GFSGL_sfc_dewp_000.txt.gz
Dewpoint
27 28 28 25 24 25 26 26 26 27 26 26 26 27 27 27 28 28 29 30 30 30 32 33 34 34 34 32 31 29 28 29 28 30 28 34 41 45 47 48 50 50 50
26 27 26 25 25 26 25 26 27 26 27 27 26 25 25 24 25 26 27 27 28 29 29 30 30 27 33 34 32 30 29 29 27 30 30 32 38 41 45 45 47 49 50
25 25 25 26 25 25 26 26 26 26 26 25 23 23 23 23 23 25 26 27 28 28 29 29 29 29 31 32 31 30 29 25 29 30 30 30 34 41 44 45 44 45 47
24 22 25 26 26 26 26 26 26 26 23 21 22 22 23 23 23 24 25 26 27 27 29 31 31 31 32 31 29 30 28 30 30 29 28 28 31 38 43 41 39 41 40
24 24 23 27 27 26 25 26 25 23 20 20 21 21 22 23 21 25 24 25 25 26 28 28 29 30 31 32 31 32 31 32 30 29 31 32 32 35 39 40 40 37 37
25 23 24 26 25 24 24 24 21 19 18 19 20 21 23 20 25 26 25 25 25 26 28 28 28 30 30 30 30 32 34 34 32 32 30 30 30 32 37 40 36 34 34
23 23 24 24 23 23 21 18 16 18 18 18 20 23 24 24 26 25 25 26 28 28 28 28 27 25 29 28 30 30 30 31 30 32 32 30 29 31 34 39 37 37 35
22 22 22 22 21 21 18 15 16 16 18 19 23 23 23 22 25 25 25 27 29 29 28 28 28 29 29 28 29 30 31 32 32 29 30 32 31 31 32 39 38 36 33
21 21 20 21 20 17 14 15 16 17 19 22 23 23 24 26 26 25 26 29 30 29 28 29 28 29 30 30 29 30 29 32 34 33 32 31 32 36 37 39 36 34 30
21 20 20 20 17 14 13 14 16 19 21 24 24 25 25 28 26 26 28 30 29 28 29 30 28 29 29 29 30 30 31 29 31 34 35 34 34 34 35 39 38 36 30
21 21 19 17 14 13 14 15 16 22 26 28 28 29 29 29 30 28 28 31 30 30 28 30 32 30 30 30 30 32 30 29 30 32 31 33 33 34 33 37 38 37 31
20 19 18 16 13 10 14 16 20 23 27 27 28 29 30 33 32 32 31 30 31 31 30 30 31 30 30 32 32 31 30 29 32 35 33 33 33 32 32 35 37 38 35
19 19 17 15 12 12 15 20 21 20 22 24 26 27 29 31 32 30 28 28 28 29 29 28 27 27 28 30 32 31 31 32 33 32 34 32 33 33 35 34 32 31 31
19 19 17 13 13 14 16 18 20 21 22 22 24 27 28 28 29 30 29 30 29 29 28 28 29 29 31 33 33 32 32 33 32 32 31 32 33 33 32 31 28 26 24
20 18 14 14 17 18 18 20 21 23 23 25 25 26 27 27 28 30 29 28 28 27 28 30 29 27 28 30 33 32 32 33 34 36 36 32 30 29 28 30 28 26 23
20 18 18 19 19 19 19 21 22 21 22 23 25 27 28 28 29 29 27 26 26 26 27 27 27 28 26 26 28 31 33 32 33 34 34 31 29 28 27 28 28 28 23
23 22 18 19 19 19 20 20 20 23 22 23 25 25 26 28 28 26 27 28 24 25 25 25 25 25 24 23 24 26 26 28 30 29 29 30 30 28 28 28 27 28 24
22 19 20 20 21 21 21 21 21 21 22 23 24 25 26 27 28 26 26 25 23 24 23 23 24 24 23 23 23 23 25 27 27 27 27 27 27 27 28 26 26 25 23
18 19 22 23 23 22 22 21 21 21 21 21 22 22 25 27 28 28 27 25 23 21 21 23 25 22 23 23 24 24 24 24 26 27 26 26 28 26 25 25 25 24 23
16 17 18 21 22 21 21 20 20 21 20 21 21 20 22 24 24 25 27 28 27 26 27 23 23 25 24 23 24 25 25 24 24 24 26 27 27 25 23 22 22 22 21
18 18 18 20 20 20 20 19 20 21 20 21 21 22 22 22 22 23 23 24 24 25 26 27 28 26 25 24 23 23 22 22 22 22 24 24 25 24 23 23 22 19 15
21 20 21 20 20 21 20 19 20 21 20 20 21 21 21 21 21 21 21 22 23 24 26 27 26 26 26 26 25 24 23 23 22 22 21 21 20 21 20 19 19 18 16
23 22 21 19 20 19 20 19 19 21 21 20 20 20 20 20 19 19 20 21 21 21 22 23 24 24 26 26 26 26 24 23 24 25 24 23 22 21 21 19 18 17 16
24 24 19 20 21 20 19 19 19 18 19 20 20 20 19 19 19 19 19 19 20 20 20 20 19 20 21 23 25 25 24 24 24 24 25 24 23 22 21 19 19 17 16
25 24 23 21 20 20 20 18 18 18 18 19 19 19 18 18 18 18 18 18 17 18 17 18 18 18 18 18 18 19 20 21 23 22 23 22 21 19 18 18 17 16 14
23 22 22 22 21 20 20 18 18 17 17 17 18 18 18 17 16 16 16 15 15 14 14 14 14 13 14 14 14 14 14 15 18 19 22 20 19 18 18 16 14 15 13

GFSGL_sfc_dewp_003.txt.gz
Dewpoint
30 32 32 30 28 27 26 26 27 28 26 26 25 25 26 26 27 28 29 30 30 31 33 33 34 34 33 33 35 36 35 33 30 31 31 32 36 45 47 48 50 50 51
29 30 29 28 26 26 26 26 28 27 27 26 26 25 24 24 24 24 25 25 26 27 29 30 31 26 32 33 33 35 35 34 31 30 31 30 34 37 39 44 46 48 49
26 27 27 26 26 27 26 27 27 26 25 25 24 24 23 23 23 24 23 25 26 27 28 29 30 30 31 31 32 32 34 31 32 30 29 30 31 33 37 41 44 46 46
25 25 28 28 27 26 27 27 27 26 25 24 23 23 23 22 21 22 21 24 26 26 29 30 28 29 30 31 31 33 31 32 32 31 30 30 31 32 34 39 42 43 43
27 28 31 29 28 27 27 27 26 26 24 22 21 22 22 21 18 22 23 24 26 26 27 26 28 30 30 30 29 30 32 33 32 31 31 31 31 30 32 38 40 40 39
31 31 28 27 26 26 26 26 25 22 20 21 21 21 22 17 25 29 28 25 25 25 27 26 26 28 28 30 30 30 30 31 32 34 33 32 32 32 32 34 39 37 35
30 28 27 25 25 25 23 22 21 21 21 21 21 21 21 23 27 28 28 26 27 27 27 28 27 24 28 28 29 30 30 30 29 29 30 33 33 33 33 33 38 37 36
30 26 23 23 23 24 23 19 19 20 20 20 21 22 23 23 27 28 28 28 28 28 28 28 28 29 29 29 30 31 30 31 31 28 28 30 32 34 36 35 38 38 34
23 21 21 22 23 21 19 19 19 19 20 20 21 24 25 26 27 28 27 30 30 29 28 28 29 30 30 30 31 31 31 32 32 32 34 32 30 30 32 35 37 35 31
22 21 22 22 20 18 19 19 19 19 19 24 24 25 26 28 28 29 30 31 31 30 30 30 29 28 30 31 31 30 30 30 29 30 34 34 35 32 30 33 36 36 32
21 22 21 19 18 19 18 18 17 20 25 30 30 29 28 30 31 31 32 32 31 29 28 30 32 31 32 31 30 31 31 30 29 28 32 35 34 34 33 35 35 37 34
21 21 20 20 19 16 17 16 18 21 27 28 28 28 29 31 29 29 29 31 30 30 29 29 30 32 32 30 29 29 32 32 31 32 32 33 32 35 34 34 36 38 37
21 20 21 21 19 16 16 19 20 19 24 26 26 26 27 28 29 27 29 29 31 30 31 30 29 28 28 28 28 28 28 32 31 31 32 31 32 32 33 32 37 33 32
21 21 22 21 17 16 17 17 19 22 23 22 24 25 26 25 26 28 29 30 28 29 29 29 28 29 30 31 32 33 31 32 31 30 30 35 33 33 33 32 32 30 28
22 22 22 20 19 18 19 19 20 24 25 24 24 26 26 25 26 29 29 28 29 28 28 31 29 28 28 29 33 33 32 33 32 32 32 31 34 34 34 33 29 29 25
23 23 24 20 20 20 19 19 23 25 25 24 26 27 27 26 29 30 30 31 27 28 29 27 27 27 26 27 30 31 31 30 31 32 33 34 33 32 30 32 30 29 26
26 25 21 21 21 20 20 19 21 25 24 24 26 26 26 28 30 30 30 28 27 27 27 26 26 26 26 25 26 27 30 33 34 33 34 34 33 30 28 28 30 28 26
27 23 21 22 22 22 21 22 23 23 23 24 25 26 25 27 28 28 29 27 26 27 25 25 26 25 24 25 25 26 28 29 29 29 31 33 32 30 29 27 28 27 27
22 21 24 24 24 23 23 22 21 22 22 23 23 23 24 27 28 25 26 27 26 26 26 25 26 25 25 25 25 26 27 28 28 28 28 28 30 30 29 29 28 27 26
19 20 20 22 23 22 21 20 20 21 21 23 22 21 23 24 24 25 25 25 26 26 27 27 27 27 27 26 27 26 26 26 28 27 28 28 28 28 26 26 26 24 23
21 21 21 22 21 21 21 20 20 22 21 22 22 23 22 23 22 22 22 22 23 23 25 27 27 28 28 27 26 25 25 26 26 26 26 25 25 24 25 26 25 21 19
23 23 23 22 21 22 20 20 21 22 22 21 22 22 22 22 21 21 21 21 22 23 23 24 25 26 26 27 26 26 25 25 24 24 25 25 25 24 23 22 21 21 20
25 24 23 21 21 20 21 20 21 21 22 22 21 20 21 20 20 19 20 21 21 21 22 22 21 23 26 26 27 26 25 25 26 27 25 25 24 24 23 21 20 19 17
24 23 22 22 22 20 21 21 21 19 19 21 21 21 19 20 19 19 19 19 20 20 19 20 19 18 19 21 23 25 26 27 27 26 26 25 24 23 23 21 20 19 20
24 23 22 22 21 21 21 20 20 20 20 20 20 19 19 19 18 18 18 18 17 17 16 16 15 15 14 14 16 17 19 22 24 24 24 24 23 23 22 21 20 19 18
24 23 22 22 21 21 20 20 19 19 19 18 19 19 18 17 17 17 16 15 14 14 14 14 13 10 10 10 10 12 14 17 21 22 22 20 20 19 18 17 15 14 13

GFSGL_sfc_dewp_006.txt.gz
Dewpoint
37 38 38 36 36 34 32 32 31 33 32 32 31 30 29 28 29 29 29 29 29 28 29 29 29 30 30 30 31 31 31 31 31 31 33 33 32 33 36 46 47 47 49
36 36 35 34 33 32 32 32 33 32 32 32 30 28 27 27 27 27 27 26 26 26 26 27 27 25 27 29 29 29 30 30 31 30 32 33 31 30 30 35 44 46 45
31 33 32 32 32 31 33 33 32 32 31 29 28 28 27 27 26 26 25 25 25 25 25 26 26 27 27 28 28 29 29 28 30 31 31 32 31 32 31 31 33 42 45
29 29 32 30 32 33 33 32 32 31 30 29 28 27 27 25 23 23 22 23 24 24 27 28 28 28 28 28 27 28 28 29 30 32 31 31 31 30 31 30 30 38 39
29 29 32 36 36 33 32 32 31 31 28 28 25 25 26 24 21 23 24 25 25 25 26 26 26 27 29 29 27 27 27 27 29 31 31 32 30 30 29 31 31 33 37
32 38 39 36 33 31 31 31 31 29 27 25 25 25 25 21 27 30 30 26 25 25 26 26 25 27 27 28 28 29 28 27 27 29 30 32 32 32 31 31 31 31 34
39 37 35 35 30 30 29 27 28 26 26 25 24 24 24 24 29 30 29 26 26 25 25 25 25 24 27 26 28 29 29 30 28 27 24 25 28 30 33 32 31 32 34
36 36 34 29 28 27 28 26 25 24 24 23 24 24 24 24 28 28 28 26 26 27 27 26 26 26 27 27 27 28 30 30 29 28 28 27 26 27 29 32 34 33 34
32 27 25 26 26 27 25 23 24 23 22 23 23 25 24 25 28 28 27 27 29 28 28 28 27 27 28 29 29 30 29 29 30 33 32 31 30 30 29 29 30 32 32
27 25 24 26 25 23 23 23 22 23 20 25 24 26 27 25 27 29 29 30 30 29 28 30 30 31 31 30 29 29 28 28 29 28 28 30 32 32 32 32 28 28 31
24 24 24 24 22 22 23 22 20 21 24 25 26 26 26 26 27 29 29 29 29 28 28 27 27 28 29 31 32 30 29 28 28 27 28 28 28 32 32 32 30 29 31
23 24 24 23 22 20 22 20 21 22 24 23 24 24 25 25 27 26 28 29 30 28 28 29 29 30 30 31 31 31 31 31 31 30 30 28 30 30 30 32 31 30 34
24 24 24 24 23 20 19 21 22 21 23 23 25 22 23 25 25 25 26 28 30 28 28 29 30 30 29 29 30 30 28 28 27 28 28 29 29 30 33 32 33 34 34
24 25 24 24 23 21 20 21 21 22 23 24 22 22 23 24 23 24 26 29 30 29 29 29 28 28 29 29 30 31 30 30 27 27 29 29 32 32 32 33 31 31 29
25 25 25 25 23 21 22 22 23 24 24 23 23 25 25 23 24 28 30 29 29 29 29 27 27 26 25 26 27 31 28 28 28 30 29 29 30 31 32 32 30 29 27
25 26 26 24 23 23 22 22 24 25 25 26 25 27 26 26 28 30 30 32 30 29 27 25 23 23 25 25 26 29 28 27 27 26 27 30 31 32 31 30 30 28 27
26 26 24 23 23 22 22 21 20 23 25 25 25 26 25 27 29 29 29 30 31 27 24 22 23 23 23 24 25 27 27 31 30 29 28 31 29 28 29 29 29 28 27
27 24 25 23 23 23 22 22 22 21 21 22 25 23 24 27 28 27 27 26 24 25 26 24 23 22 24 23 24 25 27 28 28 29 31 31 27 26 27 28 26 26 25
26 25 24 24 24 23 23 22 22 21 22 22 23 21 22 26 27 25 25 23 22 23 24 23 25 25 23 24 24 24 25 26 27 28 28 28 29 28 28 28 25 25 25
25 22 20 23 23 23 22 21 20 21 22 22 21 20 21 22 21 20 21 20 20 20 22 23 24 25 25 24 23 23 23 24 26 25 25 25 27 27 26 25 24 23 24
25 24 21 24 23 22 22 20 21 21 22 22 22 22 21 20 20 19 19 19 19 19 19 20 22 23 24 25 25 23 22 22 23 24 24 24 22 21 23 21 20 19 19
26 25 24 23 24 23 21 22 21 20 20 21 21 21 21 20 19 18 18 18 18 19 19 18 18 19 20 22 24 23 23 23 23 23 23 23 22 21 21 21 20 20 20
27 26 25 23 23 19 22 21 20 21 20 21 21 19 19 19 18 17 17 18 17 16 17 17 15 15 16 18 19 21 24 24 24 25 23 22 21 21 21 20 19 19 19
27 25 24 23 23 22 23 19 19 18 20 19 19 19 18 18 17 16 17 17 17 16 16 14 14 12 12 13 14 16 19 24 25 25 25 23 22 21 20 20 19 20 19
26 25 25 24 23 21 21 19 21 19 20 19 18 18 18 17 16 16 16 17 16 15 13 12 11 9 8 8 9 11 14 16 21 23 22 22 21 21 20 18 18 18 18
27 26 24 24 23 21 19 18 18 19 19 19 18 18 17 17 16 16 16 15 14 13 13 12 10 8 7 7 8 10 10 12 15 16 19 18 15 15 13 11 9 9 11

GFSGL_sfc_dewp_009.txt.gz
Dewpoint
35 36 35 34 32 32 32 32 32 33 34 36 36 35 33 31 30 30 30 30 30 30 30 29 29 30 30 31 31 30 30 29 28 28 29 31 33 34 35 37 42 45 46
34 34 34 32 30 30 30 31 32 32 33 32 33 31 30 31 30 30 29 28 27 26 27 28 27 25 26 27 28 27 28 28 28 27 28 29 32 33 33 34 33 42 44
32 31 31 30 29 30 31 31 31 32 33 32 30 31 31 31 29 29 27 26 25 26 26 26 25 26 25 26 27 27 28 27 30 30 30 32 33 33 33 33 33 35 43
29 30 30 29 29 31 31 31 31 31 31 30 30 31 31 28 25 25 24 24 25 25 27 28 27 27 27 26 26 26 27 27 27 27 27 27 29 31 33 31 31 31 33
29 31 36 35 34 34 33 31 31 30 30 30 29 27 27 26 21 24 25 26 26 26 27 26 26 27 29 29 26 25 25 25 26 26 26 26 27 29 31 31 31 30 31
39 38 38 37 36 33 30 30 30 29 29 26 25 26 26 22 28 31 29 26 26 26 25 25 25 26 27 29 29 29 27 25 24 24 24 25 26 28 33 33 32 30 27
39 38 38 38 38 37 31 28 27 27 25 24 24 24 24 25 29 29 28 25 25 25 24 25 25 24 27 25 27 28 28 29 27 27 26 24 24 25 27 29 31 32 30
38 38 38 38 35 27 27 27 24 23 22 22 23 24 24 23 28 29 28 26 26 26 26 26 26 26 26 26 26 25 26 26 27 27 28 27 27 27 26 26 27 32 33
38 37 32 27 26 26 24 22 22 21 21 22 23 23 24 26 28 29 28 27 27 27 28 28 28 29 29 30 28 29 27 27 28 31 31 31 31 31 29 27 26 26 26
27 25 25 25 24 22 21 21 21 21 20 24 24 26 27 25 27 27 27 28 27 26 26 26 27 27 29 30 30 29 27 27 27 28 28 29 31 31 33 30 30 27 26
25 25 25 24 22 22 22 21 19 20 23 20 20 23 24 25 24 26 26 27 27 27 26 27 26 28 29 30 31 30 29 29 28 28 27 27 28 28 29 31 33 32 29
24 24 24 24 23 22 19 19 20 21 20 14 16 20 22 22 25 26 26 26 27 27 27 27 28 29 30 30 31 31 31 30 30 29 28 28 28 29 28 31 31 31 32
25 25 24 24 24 21 20 20 21 21 18 17 20 20 21 24 26 26 25 26 28 29 29 30 30 30 30 29 29 30 29 29 27 26 26 28 28 28 29 31 32 33 32
24 25 25 24 23 21 21 22 20 19 18 21 20 21 23 24 23 24 26 28 30 29 28 28 26 26 27 26 26 28 30 30 29 26 26 27 30 30 30 31 31 32 31
26 26 26 25 22 22 23 22 22 22 19 23 23 25 24 22 23 28 28 29 29 28 26 24 23 22 22 24 25 26 26 24 29 27 27 27 29 29 30 32 32 30 28
26 25 24 22 21 21 21 21 23 24 26 25 26 27 25 25 28 28 28 29 29 29 25 20 20 21 21 23 23 25 27 24 25 26 25 27 29 29 29 30 30 29 28
23 25 23 22 21 20 20 20 18 19 23 23 26 25 25 26 27 26 27 27 27 26 23 23 19 20 22 22 23 24 25 27 29 25 27 29 29 27 29 29 29 27 24
19 21 18 17 16 18 17 20 15 17 13 16 24 23 24 26 25 25 24 22 20 20 23 22 22 20 21 22 22 22 24 25 27 27 30 27 27 25 25 27 26 21 23
25 22 17 15 13 15 17 13 13 13 13 17 21 20 22 24 23 23 21 19 18 18 19 20 21 22 22 22 21 21 22 23 23 24 25 27 23 19 24 23 19 17 18
24 19 18 19 16 18 14 13 13 13 12 19 20 19 20 19 18 18 18 17 18 17 17 17 18 19 19 22 22 22 21 22 22 22 22 22 23 24 23 23 20 21 21
21 24 23 24 22 18 13 11 15 10 9 17 19 20 20 18 17 17 17 15 15 15 15 15 15 15 16 17 18 21 21 20 21 21 21 21 22 21 21 20 18 19 20
21 24 23 17 19 12 11 15 11 11 8 16 18 19 19 18 17 16 16 15 15 14 15 13 13 13 13 14 15 16 21 21 22 21 21 20 20 20 20 20 19 20 20
15 19 18 17 15 13 12 11 11 8 7 13 17 17 17 16 15 15 15 15 15 14 13 12 10 10 11 12 13 15 16 20 22 22 20 20 20 20 19 19 19 17 17
16 15 16 17 14 12 10 10 10 8 13 11 14 16 15 15 15 14 15 15 15 12 12 10 8 7 7 9 11 13 15 18 22 22 21 20 19 18 18 19 19 19 18
18 14 15 15 12 13 7 8 8 4 11 10 11 13 14 13 14 14 15 15 13 12 10 9 8 6 6 6 8 8 10 13 14 16 18 17 17 17 18 17 17 18 18
25 21 16 15 16 9 6 6 4 8 12 9 9 9 12 13 15 14 14 13 12 11 9 9 7 6 5 6 7 8 8 9 10 9 12 12 10 8 6 7 7 10 10

GFSGL_sfc_dewp_012.txt.gz
Dewpoint
38 35 35 32 33 32 32 33 33 36 38 39 40 38 37 36 35 34 32 32 31 30 30 30 29 30 29 30 31 30 30 30 28 28 29 30 31 32 34 37 38 38 39
34 34 34 32 31 30 31 32 33 34 35 36 36 34 34 34 32 31 30 29 29 27 27 27 27 25 26 27 28 27 27 27 27 25 26 28 29 32 34 35 35 36 38
32 33 31 30 29 29 31 32 32 32 32 32 32 31 32 32 30 30 29 27 27 26 26 26 27 27 27 27 27 28 29 28 28 28 27 29 30 33 31 33 34 35 36
30 30 30 30 29 31 32 32 31 31 31 30 30 30 31 30 27 27 26 26 26 26 27 27 26 26 25 25 25 25 25 25 25 25 25 26 27 28 31 30 31 33 33
37 38 37 36 34 33 32 32 33 31 30 30 29 27 27 26 23 26 27 27 26 26 26 25 25 26 28 28 26 26 25 25 24 23 22 23 23 24 26 28 30 31 32
38 38 38 39 38 38 37 36 33 32 29 26 25 25 25 22 28 30 29 26 24 23 24 24 24 26 25 27 29 29 28 26 25 24 23 23 23 25 27 28 30 30 29
39 39 39 40 38 37 37 34 31 27 24 23 22 23 23 24 27 28 29 26 26 25 25 25 25 24 26 25 27 28 28 29 27 26 25 25 25 26 26 27 27 28 27
38 38 38 37 37 34 29 25 23 22 21 21 22 23 23 23 27 28 29 26 26 26 26 26 26 26 26 26 26 27 26 26 26 25 26 27 27 28 27 26 26 27 27
39 36 29 27 25 24 22 21 21 21 21 20 22 23 24 25 27 27 27 25 25 27 27 26 26 27 28 28 27 28 28 27 28 30 30 29 30 30 30 28 28 27 25
25 25 25 25 23 22 22 21 21 19 20 23 24 24 24 24 26 26 25 26 25 25 25 25 27 27 28 29 28 28 27 27 27 27 27 29 30 30 31 32 30 26 26
26 26 25 24 23 23 21 20 19 20 22 18 18 21 23 24 23 25 26 27 26 25 25 25 26 28 29 30 30 29 28 28 27 28 27 27 28 28 28 30 32 31 28
25 25 25 25 23 20 20 20 20 21 19 13 13 17 20 21 24 26 25 25 26 27 27 27 29 30 27 29 29 31 30 30 29 28 27 27 27 27 27 28 29 31 31
25 25 25 25 23 21 20 21 21 20 18 16 18 19 20 23 24 26 25 26 28 28 29 28 27 26 25 25 27 28 28 28 28 27 25 25 27 28 29 29 28 29 30
25 25 26 25 23 22 22 22 20 18 17 21 20 20 21 22 22 23 26 27 28 29 26 25 23 23 21 25 26 27 28 29 29 28 27 26 28 30 29 28 29 29 30
25 26 25 24 22 22 22 22 22 21 19 18 19 25 21 19 22 28 26 27 28 27 27 22 20 20 21 22 23 25 27 27 24 27 27 25 27 27 29 28 29 29 28
25 24 23 22 21 20 20 21 24 24 23 23 25 24 22 24 27 26 27 28 26 27 23 21 16 20 20 21 21 22 23 26 26 21 17 20 21 25 24 25 28 29 28
22 24 22 22 21 20 19 19 14 18 21 23 24 22 23 25 25 25 25 25 24 22 21 20 18 20 20 20 20 21 21 24 28 28 26 27 27 26 29 29 27 26 26
16 19 21 20 18 18 11 13 12 10 8 13 20 20 22 24 23 23 22 20 18 18 18 18 17 18 19 21 20 20 20 22 22 24 27 24 25 22 20 23 25 22 23
24 20 14 16 16 15 12 13 10 8 10 11 12 18 20 21 22 21 19 16 16 15 16 16 16 16 16 17 19 20 20 20 21 21 21 22 21 15 20 20 20 22 21
23 22 20 20 17 18 16 11 12 9 9 11 11 17 18 18 16 16 15 14 13 14 14 14 14 14 14 14 15 17 19 20 19 19 19 20 21 22 22 23 21 20 20
19 24 23 18 15 17 11 9 9 6 5 7 13 16 18 16 15 15 14 14 12 12 12 11 12 12 12 12 13 13 18 18 19 18 17 18 18 18 18 17 16 19 20
17 20 21 17 16 12 10 12 5 5 5 5 14 15 16 15 15 14 14 13 13 13 12 11 9 10 11 11 11 11 13 17 18 17 14 15 15 16 17 17 16 13 16
14 16 17 17 13 10 5 6 5 2 3 5 10 13 13 12 13 14 14 13 12 11 11 9 7 7 9 10 11 12 13 15 19 17 13 12 14 13 12 13 13 14 14
14 15 16 15 9 8 5 5 4 5 10 7 6 10 10 10 11 13 14 13 12 10 9 8 6 5 6 7 9 11 12 13 14 16 14 13 14 13 12 13 14 15 15
15 20 13 13 8 7 3 1 -2 2 10 7 6 7 11 10 11 12 13 13 11 9 7 7 6 5 4 5 7 6 7 9 8 10 12 9 7 8 9 12 13 15 15
25 24 17 9 11 5 4 2 -2 2 7 6 5 5 7 10 11 11 11 11 10 9 7 5 6 4 4 6 6 7 5 5 6 6 7 8 5 4 3 4 2 3 2

GFSGL_sfc_dewp_015.txt.gz
Dewpoint
39 34 35 36 33 32 32 34 35 37 38 39 37 38 39 38 37 35 35 33 32 31 30 30 30 30 30 30 30 30 29 29 26 26 28 28 28 28 30 33 35 37 39
33 33 34 34 31 31 32 32 34 35 36 34 35 36 36 35 34 32 31 30 29 28 28 28 27 25 27 28 29 28 28 27 26 24 25 26 27 28 32 34 33 34 36
32 32 32 31 29 29 31 33 33 33 32 32 32 33 32 32 30 30 29 28 28 27 27 27 27 27 27 27 27 27 27 27 27 27 26 27 28 29 29 30 31 32 32
32 31 30 30 29 30 32 32 32 32 31 30 31 31 31 28 26 26 25 26 26 26 27 26 26 25 25 25 24 24 24 24 24 24 23 24 25 26 27 26 27 31 31
38 36 36 36 35 36 37 37 36 36 35 31 28 26 25 24 22 26 27 26 26 25 25 25 25 25 27 26 24 25 25 25 24 24 23 23 23 23 23 25 26 28 30
39 38 39 40 40 39 39 36 36 35 30 26 24 24 24 22 28 29 28 26 26 25 24 24 25 26 26 27 27 28 28 26 26 25 25 24 23 24 25 25 25 25 25
38 38 40 40 38 37 37 36 33 27 23 22 22 23 23 23 26 27 29 26 26 25 25 25 25 25 26 25 26 27 28 28 28 27 26 25 23 24 25 25 26 25 25
38 37 37 37 37 33 27 24 22 22 21 21 21 23 23 23 26 26 27 26 25 25 26 26 26 26 26 25 25 26 26 25 25 25 26 26 27 26 26 27 26 26 26
34 27 26 27 25 23 21 21 21 20 20 20 22 24 23 23 25 25 25 23 23 24 25 26 25 25 27 28 27 27 26 26 27 30 30 28 29 30 29 28 28 26 24
25 25 25 24 23 22 22 20 20 20 20 24 23 23 23 22 24 25 25 24 24 25 25 25 25 25 27 28 28 27 26 25 26 26 27 29 30 30 30 30 30 26 25
26 25 25 25 24 22 21 20 20 21 22 19 17 19 21 22 21 25 25 26 25 25 24 25 27 28 28 29 30 28 27 29 27 27 27 28 28 28 28 29 31 31 27
25 25 25 25 22 21 21 21 21 21 19 13 12 16 20 19 24 25 25 25 26 26 26 28 27 26 25 25 25 26 28 28 29 28 27 27 28 28 28 28 29 31 30
25 24 25 25 23 21 21 21 21 19 18 15 17 18 19 22 22 23 24 26 26 27 29 28 29 24 24 24 25 27 27 27 26 26 26 27 27 28 28 28 30 30 32
25 26 26 24 23 22 22 22 21 19 18 21 20 19 19 19 20 22 26 25 27 28 26 26 24 22 22 24 25 26 27 28 27 27 27 27 28 29 28 29 28 28 28
25 25 24 24 23 21 21 21 23 22 18 16 16 21 20 19 21 26 26 26 27 26 24 22 20 19 19 20 21 21 22 23 25 23 23 25 26 27 27 28 28 29 27
24 23 22 21 21 20 19 20 23 22 23 23 24 23 21 23 25 25 25 26 26 24 22 19 16 15 17 19 19 18 19 21 23 26 25 21 21 24 24 25 28 28 27
20 23 22 22 21 19 18 18 13 16 21 22 22 21 21 23 24 24 24 24 23 20 18 17 14 14 14 17 18 18 19 20 22 23 25 27 27 28 27 27 27 28 27
14 16 15 15 15 17 15 15 9 9 7 11 18 19 20 22 23 22 21 19 16 17 16 16 14 14 14 15 15 18 18 19 18 19 21 21 23 24 24 25 25 22 22
23 17 12 12 12 14 16 12 9 9 7 10 11 14 18 20 21 20 19 14 13 13 13 13 14 13 12 12 12 13 19 19 16 16 17 17 19 22 24 23 21 23 23
22 20 21 18 13 14 14 9 11 7 9 8 9 10 17 17 14 14 15 13 12 12 12 12 12 12 11 11 10 11 15 18 17 16 15 15 15 18 19 20 19 19 18
21 20 23 20 17 14 9 9 7 6 3 5 6 9 17 15 14 13 13 12 12 11 10 10 9 10 10 11 11 10 11 14 17 15 14 14 12 10 14 12 12 15 14
18 16 19 16 13 9 8 8 5 6 4 4 3 11 14 13 13 13 13 11 11 11 10 9 7 8 9 9 9 9 11 12 15 14 10 10 11 11 10 11 10 11 14
17 15 16 15 14 10 5 6 3 -0 3 3 3 8 10 10 11 12 12 12 11 9 9 8 6 6 7 7 9 10 10 10 11 13 8 8 10 10 7 9 10 12 12
15 13 15 15 9 6 -0 -1 -2 1 7 5 1 4 8 9 9 11 12 11 9 8 8 7 6 5 5 5 6 7 7 9 9 10 7 5 7 8 8 9 10 10 10
20 21 21 11 11 7 -1 -1 -2 -6 -2 1 1 3 7 8 9 10 10 9 9 7 7 6 5 4 4 3 4 4 3 5 5 5 7 4 2 2 1 3 0 7 10
24 24 22 11 9 8 1 -3 -4 -7 -3 0 0 2 4 5 7 6 9 9 7 7 6 6 5 3 4 5 5 5 1 1 3 2 3 5 2 0 -1 -1 -3 -1 -3

GFSGL_sfc_dewp_018.txt.gz
Dewpoint
38 34 34 34 35 33 33 34 35 37 38 38 38 37 37 36 38 38 37 35 33 32 31 30 30 30 30 31 32 31 30 29 27 26 27 28 29 30 29 33 34 34 37
35 34 33 34 33 31 32 33 35 35 36 34 35 35 35 34 34 32 31 30 29 28 28 27 27 25 27 29 29 28 29 28 27 25 26 27 27 28 29 30 32 33 34
37 35 34 33 30 29 31 33 33 33 34 35 34 33 32 32 30 29 28 27 27 27 27 27 27 27 26 26 26 26 26 25 26 25 24 25 27 29 28 29 30 31 32
38 38 35 33 32 34 35 37 37 37 36 36 34 32 30 26 25 25 25 25 26 26 26 26 25 25 24 23 23 23 23 23 24 24 23 23 24 25 27 26 27 29 30
39 38 36 36 39 39 38 37 37 37 35 31 27 26 25 24 21 26 26 26 25 24 26 25 24 25 26 25 24 25 25 25 24 24 24 24 24 25 25 25 25 26 28
38 37 38 40 39 37 37 37 36 36 35 26 24 24 23 22 27 28 29 27 26 26 25 24 24 25 26 27 27 28 28 26 26 26 25 23 23 23 25 25 25 25 23
37 38 39 39 37 38 38 36 34 26 23 22 22 23 23 24 26 26 26 25 26 26 25 25 24 24 26 24 25 25 26 28 27 27 26 25 25 25 24 25 25 24 24
36 34 34 33 34 30 25 23 22 22 21 20 21 23 24 22 24 25 25 25 24 25 25 25 25 25 24 24 25 27 27 26 25 24 25 25 25 26 27 26 26 26 26
30 27 26 26 24 23 23 22 21 20 20 21 23 24 23 22 24 25 25 24 23 23 24 25 26 26 25 26 26 26 26 26 27 28 30 30 30 30 29 28 27 26 24
25 25 25 24 24 23 21 21 20 20 21 24 23 22 22 21 23 25 25 23 22 25 23 24 25 26 27 28 28 28 26 27 28 28 28 28 30 31 31 30 30 26 25
25 25 25 25 23 21 21 21 21 21 22 19 16 19 21 22 21 25 24 25 25 25 25 24 26 28 27 25 25 25 24 25 26 28 28 28 28 28 29 30 31 29 27
25 25 25 25 24 21 21 21 21 20 19 13 11 15 19 18 24 23 24 25 26 26 25 26 28 29 24 24 25 26 28 28 27 27 27 27 27 27 28 28 30 31 31
25 25 26 25 23 22 21 21 21 20 18 15 16 18 19 21 21 22 24 25 26 26 28 27 26 24 23 23 24 26 26 26 26 25 25 26 27 29 30 30 31 31 31
24 25 25 24 23 22 21 21 21 19 17 20 19 18 19 19 19 21 25 25 26 27 27 25 23 21 19 21 23 23 24 24 24 25 25 26 28 29 29 29 28 28 28
24 24 23 24 23 23 21 21 22 21 18 18 16 17 19 18 20 25 25 24 25 25 25 22 19 16 16 17 19 20 20 21 21 24 26 24 25 26 27 28 29 28 27
25 24 22 21 20 19 18 20 22 21 22 21 22 21 21 21 23 24 24 25 25 23 21 18 16 14 13 15 15 17 18 19 20 22 24 27 24 23 25 25 26 26 26
19 22 19 20 19 18 18 18 16 16 21 20 21 21 20 20 23 23 22 22 22 19 16 16 14 14 13 14 14 16 17 19 20 19 21 22 24 26 26 25 25 27 27
13 15 14 14 13 14 10 15 12 10 8 10 16 19 19 19 22 21 20 17 14 15 14 14 13 13 13 12 12 12 13 18 17 17 18 18 19 24 23 23 24 22 23
22 17 11 9 9 10 10 11 9 6 5 7 9 14 13 18 18 18 17 13 12 12 12 12 12 12 12 12 11 11 12 16 17 15 15 15 17 21 22 23 22 23 24
24 19 16 15 11 12 10 8 10 8 8 6 9 10 13 14 12 12 13 12 11 11 10 10 10 11 11 11 11 11 12 12 16 15 13 13 14 16 16 17 16 16 17
21 20 16 16 15 12 10 7 8 8 8 5 7 0 12 13 12 12 12 10 10 9 9 9 9 9 9 10 10 9 10 12 13 14 13 12 10 11 14 13 13 14 16
24 20 17 15 13 9 9 6 4 4 5 2 3 4 11 11 12 11 11 10 10 10 9 8 7 7 8 7 8 7 8 9 10 10 11 10 10 10 10 10 11 13 14
24 17 15 15 12 7 3 2 -1 -4 2 -1 -1 4 6 8 9 10 8 9 9 8 8 7 6 5 6 6 7 7 6 6 7 8 9 6 9 8 8 11 11 11 11
19 11 11 10 4 5 -1 -3 -5 -1 1 0 -6 -1 3 6 8 8 9 7 8 7 7 6 6 5 5 5 5 5 5 6 5 5 3 3 5 5 6 8 10 9 9
23 22 20 12 4 3 3 1 -5 -10 -9 -6 -6 -3 4 4 8 6 8 8 8 7 7 6 5 5 5 5 4 3 1 2 2 1 4 3 1 1 0 3 1 5 6
24 24 23 13 8 5 5 5 -0 -9 -8 -7 -7 -4 2 2 4 3 8 9 8 7 7 6 5 3 4 6 5 4 -1 -1 1 0 1 3 1 0 -1 -0 -1 2 1

GFSGL_sfc_dewp_024.txt.gz
Dewpoint
42 42 43 42 41 38 36 36 38 40 39 37 39 39 39 39 39 38 37 36 34 33 32 31 29 28 27 25 26 25 25 23 21 21 21 23 26 27 26 29 30 30 30
38 39 40 40 39 36 36 37 38 37 40 40 39 39 37 35 36 36 32 30 28 27 27 27 25 19 25 26 24 25 25 24 22 22 22 22 24 26 27 28 25 23 26
35 36 37 38 37 36 37 37 38 38 38 38 37 34 32 31 29 28 26 27 27 26 25 25 25 25 25 25 24 23 22 19 21 21 20 21 22 23 23 25 25 27 23
36 36 36 37 37 38 38 37 37 36 35 34 35 35 36 30 27 25 25 25 25 24 26 26 25 25 25 25 22 22 20 21 21 21 20 20 21 23 23 23 24 25 25
35 34 35 39 39 40 39 37 37 36 34 33 32 29 28 26 20 25 24 24 23 22 23 22 24 25 26 26 23 23 23 21 21 20 23 22 22 22 22 23 23 25 27
34 33 34 36 36 36 36 34 31 28 26 26 26 26 26 21 26 25 25 22 21 21 22 22 22 25 24 28 28 28 27 24 23 24 23 24 23 24 23 24 26 27 27
32 31 31 30 29 29 26 25 26 27 26 25 25 25 25 25 24 24 24 22 23 23 23 22 19 17 25 23 26 27 27 27 27 26 25 24 23 23 24 25 27 27 26
31 30 28 28 26 26 26 26 26 25 25 25 25 24 24 21 24 24 24 24 25 24 23 22 22 24 24 25 26 26 26 25 26 26 28 26 25 26 27 26 27 28 28
30 30 30 28 26 25 26 25 24 24 24 23 23 23 23 23 25 24 25 25 25 24 23 24 25 26 26 28 29 29 26 26 25 28 29 30 29 29 29 30 31 28 30
28 28 27 27 26 25 24 24 23 23 22 24 24 25 25 25 24 24 23 26 27 25 25 24 26 26 28 29 30 30 28 23 24 27 26 28 28 29 30 31 31 29 28
26 27 26 26 25 23 23 23 22 22 25 30 31 27 26 25 26 24 22 25 26 24 24 24 26 30 27 25 25 26 25 26 25 26 27 29 30 29 29 30 31 32 29
27 27 26 25 22 20 23 22 22 23 25 30 28 28 27 29 23 22 21 24 25 26 25 27 29 27 24 23 23 24 24 25 29 29 29 29 29 29 30 31 32 32 32
27 25 25 23 23 23 23 23 23 22 24 25 25 24 24 23 22 21 23 23 23 26 27 26 27 25 23 23 23 22 25 28 27 26 27 27 28 28 29 30 32 33 32
26 25 24 23 24 24 23 22 22 23 24 21 22 22 22 20 21 21 23 24 23 25 25 27 26 25 25 25 25 24 27 27 26 26 26 28 30 31 29 30 30 30 31
25 25 24 24 25 24 23 22 23 24 24 23 21 21 21 21 20 22 23 23 24 23 24 26 23 22 23 22 22 22 24 24 25 26 27 28 28 30 29 29 28 28 29
25 24 25 27 27 24 23 23 23 23 21 21 20 21 22 19 20 21 21 21 22 22 22 21 21 21 21 20 21 21 23 23 23 24 26 26 27 29 29 31 30 28 28
28 27 27 26 25 23 23 22 22 23 20 20 18 18 18 17 19 19 19 19 20 19 19 19 19 19 20 19 19 20 20 22 23 22 23 24 24 26 27 29 30 31 30
30 27 28 26 25 25 25 24 23 23 22 22 19 18 17 16 17 17 17 17 17 17 17 17 17 18 18 18 18 18 19 21 21 21 23 24 24 24 25 25 26 27 29
27 26 28 27 27 26 26 25 23 22 21 20 19 18 17 16 17 17 16 17 16 15 15 15 17 17 16 16 19 19 21 21 21 22 22 23 24 24 23 23 24 26 25
24 26 27 25 26 26 24 23 22 21 21 20 19 18 17 17 18 18 18 17 16 15 15 14 14 15 16 17 18 19 19 20 20 20 22 23 24 25 23 23 25 25 25
25 23 25 25 25 24 24 23 22 22 21 20 20 20 15 17 16 16 15 14 12 12 13 12 14 15 15 16 15 17 17 19 18 19 20 21 24 23 23 24 25 25 24
24 25 25 25 25 25 24 23 23 22 21 19 20 19 14 19 16 16 15 14 14 13 12 13 13 13 14 14 15 16 16 17 17 18 18 20 22 22 23 23 22 23 22
26 26 25 24 25 24 26 24 24 24 22 21 20 19 18 18 18 16 16 15 14 13 13 12 13 12 13 14 15 15 14 14 16 17 17 18 19 20 21 21 21 21 20
26 28 25 25 28 26 26 25 25 23 23 22 21 21 20 19 19 17 17 17 15 14 14 12 11 10 10 12 13 12 11 12 14 15 16 16 17 18 19 18 19 19 19
29 29 29 28 28 28 27 25 25 24 24 23 22 21 20 20 18 19 18 17 15 14 11 11 11 10 9 9 10 10 10 8 10 10 16 15 15 15 16 16 17 17 17
28 27 28 28 27 27 27 26 26 26 24 24 22 21 21 19 19 19 17 15 14 13 10 12 11 9 9 9 7 8 7 8 9 9 14 14 14 13 14 14 14 16 15

GFSGL_sfc_dewp_027.txt.gz
Dewpoint
35 35 36 37 37 38 36 36 37 39 38 39 39 39 38 37 36 37 37 35 34 33 33 33 32 32 29 28 28 31 31 30 27 26 25 27 30 30 27 31 31 32 33
30 31 33 35 35 35 37 37 38 37 38 38 39 38 36 35 32 31 31 29 28 28 30 29 25 19 25 26 25 24 25 24 24 25 23 25 27 29 30 31 25 22 28
31 33 34 34 37 37 38 38 37 37 37 37 37 37 34 31 30 29 28 26 25 25 25 24 23 24 24 24 24 24 23 19 23 22 22 23 25 25 26 28 28 30 23
32 32 32 35 38 38 40 39 40 38 36 37 35 31 29 25 24 24 23 25 24 23 24 24 24 24 24 24 23 23 21 22 22 22 23 23 23 24 25 25 26 28 27
32 31 32 36 36 38 38 37 36 35 28 27 26 25 25 23 19 25 24 24 22 22 23 21 23 26 27 26 21 22 22 22 22 22 22 23 21 21 23 24 25 27 29
31 30 31 32 31 32 32 31 29 28 28 25 24 24 24 19 27 25 25 23 21 21 22 22 22 26 25 29 29 29 27 22 22 24 23 23 23 25 26 26 27 28 29
30 28 29 30 30 30 29 28 27 27 24 24 24 23 23 23 25 24 25 23 22 22 23 23 21 18 25 22 26 28 28 29 28 25 25 24 23 24 24 26 27 28 27
27 27 28 30 30 28 25 24 24 23 24 23 24 23 23 21 27 25 25 23 23 23 24 23 22 23 24 25 25 25 26 26 27 26 27 26 27 28 29 28 29 29 31
24 25 26 29 25 24 23 23 23 23 23 22 22 25 25 26 28 26 24 25 24 23 21 24 25 26 27 28 30 30 26 27 26 30 31 30 29 29 30 29 29 28 30
22 23 25 25 24 23 23 22 23 22 21 23 26 25 26 25 27 25 24 26 26 25 24 23 25 25 27 29 30 28 26 25 27 25 27 26 28 29 30 31 29 26 26
23 25 26 25 23 22 22 22 21 21 24 31 33 29 26 28 29 25 24 27 25 26 24 25 26 30 28 26 26 26 26 27 25 25 26 28 30 31 32 32 32 31 28
27 27 26 24 22 19 22 22 21 22 25 33 32 31 29 30 25 24 24 23 25 25 25 26 29 25 26 26 25 25 27 25 27 29 29 28 31 34 32 33 35 34 34
28 27 26 25 22 20 22 21 21 21 24 28 27 26 27 25 24 23 21 23 23 25 26 26 24 28 26 26 28 26 25 27 29 28 27 26 28 30 32 31 31 31 35
27 28 27 25 23 23 21 21 22 24 25 23 23 23 24 21 22 22 23 24 23 23 24 25 28 27 27 28 28 28 29 30 27 28 28 28 30 31 32 29 29 31 32
29 31 27 24 23 26 24 23 23 24 25 23 21 22 22 21 20 20 22 23 23 22 23 26 24 23 23 24 25 25 27 25 27 27 28 28 28 28 32 33 30 29 28
32 30 26 26 26 26 25 24 27 25 23 22 20 21 21 19 18 19 20 20 21 21 22 22 22 21 21 22 23 23 24 23 23 25 26 26 26 26 27 30 32 31 28
32 27 26 27 27 26 25 25 24 26 27 25 21 19 17 17 17 18 18 18 21 20 20 20 20 20 20 20 21 21 21 23 24 23 24 25 25 25 27 27 28 29 30
31 29 28 26 28 27 26 26 26 24 24 24 26 21 17 17 17 17 17 18 17 19 18 18 18 19 19 16 17 18 20 23 23 23 24 25 25 25 26 25 26 26 25
29 27 29 29 29 28 28 28 26 25 24 23 22 22 20 16 21 22 20 18 17 16 16 16 18 18 16 16 19 20 21 22 22 23 24 24 25 26 24 25 26 25 26
25 27 26 26 28 28 28 26 25 25 23 23 21 22 20 16 20 21 20 19 17 14 14 13 13 14 16 16 18 19 21 21 20 20 22 24 25 26 24 25 25 25 24
23 25 27 26 26 28 27 25 25 25 24 23 23 24 15 16 20 19 18 17 15 13 14 14 14 15 15 16 15 16 17 19 18 19 19 21 25 24 24 25 24 24 23
25 25 26 27 27 28 27 25 25 25 24 24 23 22 18 22 19 19 18 17 17 15 14 14 14 13 13 14 14 15 15 15 16 17 17 19 21 22 23 23 23 24 22
28 28 27 26 28 27 28 28 27 27 26 25 24 22 21 21 19 18 19 19 17 16 15 14 14 12 13 14 15 14 12 11 12 16 16 18 18 19 21 20 20 19 21
27 28 27 27 29 28 28 28 28 26 26 25 26 24 22 21 20 18 19 20 18 17 15 14 13 11 11 12 13 12 11 11 11 12 15 17 16 16 18 16 18 18 18
30 29 30 29 29 29 29 28 28 28 27 27 26 24 23 21 19 19 19 18 16 16 13 13 13 11 10 10 10 9 9 8 10 11 15 16 15 14 16 14 16 16 16
29 29 29 30 30 30 29 28 28 28 27 27 27 25 23 21 19 19 18 17 16 14 12 13 12 10 11 10 9 9 7 7 8 9 14 12 12 12 12 13 12 14 13

GFSGL_sfc_dewp_030.txt.gz
Dewpoint
33 35 38 38 39 40 40 40 39 40 39 39 39 38 38 38 38 37 37 37 37 36 35 34 34 33 32 32 32 34 35 35 33 32 30 28 27 27 27 32 34 32 33
33 35 36 38 38 38 38 39 40 38 38 39 39 39 39 36 35 34 33 32 31 30 29 28 27 23 27 27 28 27 27 27 25 23 25 26 26 27 29 30 27 24 28
32 33 35 36 37 39 39 40 40 40 40 39 38 37 36 35 31 29 27 28 28 26 25 25 25 25 25 27 27 26 26 24 25 24 23 24 25 26 25 26 27 28 27
31 33 34 37 36 38 39 39 39 39 39 37 35 31 31 27 25 26 26 27 27 24 25 25 24 24 24 25 24 25 22 22 22 22 22 23 24 24 25 25 26 28 27
31 33 33 36 35 36 37 37 35 34 32 31 30 28 28 25 23 26 25 25 25 23 23 23 24 27 30 28 22 23 23 23 23 22 22 23 24 24 25 26 25 26 28
30 32 32 33 34 35 35 34 34 32 31 29 27 27 27 21 28 27 26 24 24 23 22 22 24 28 26 29 31 31 29 26 23 22 22 21 22 23 24 25 26 26 25
28 28 31 32 33 34 31 30 30 30 28 27 27 27 27 27 28 27 27 24 23 23 23 23 23 21 26 24 26 27 28 30 28 27 25 24 23 23 23 24 24 25 26
27 26 27 30 29 31 31 28 29 27 27 26 26 28 26 24 30 28 27 24 23 23 23 21 22 24 25 26 25 26 28 27 27 27 30 28 26 27 29 31 32 31 31
27 25 25 28 29 29 28 28 26 26 26 25 26 27 25 25 28 29 27 25 24 23 22 23 24 23 25 27 27 26 26 26 27 29 34 33 32 32 31 28 27 25 23
28 29 31 30 28 29 28 26 26 26 24 30 28 28 28 26 29 29 28 27 23 23 23 23 25 25 28 29 28 27 25 24 24 27 27 26 26 26 28 29 29 27 25
33 32 31 30 29 28 26 25 24 25 27 30 30 30 28 28 27 27 27 26 25 23 22 22 23 27 28 26 26 25 24 26 27 26 25 25 26 27 29 30 31 31 28
31 32 33 33 28 26 26 25 25 24 27 26 25 26 27 28 27 25 28 24 21 22 23 23 27 24 27 27 26 27 28 27 25 25 26 27 28 30 31 33 33 34 33
34 35 33 30 29 26 25 25 24 24 26 25 26 24 25 24 24 24 21 20 21 21 22 24 24 27 28 27 28 29 28 27 26 27 27 28 28 28 30 31 31 31 30
31 33 33 32 30 26 26 25 26 27 25 25 24 22 21 21 21 20 19 21 21 21 22 21 24 26 24 25 27 28 27 28 27 27 27 28 30 29 28 33 27 25 26
33 32 32 31 28 28 27 26 27 27 25 24 23 22 19 18 19 18 19 20 20 22 21 23 23 21 21 21 23 23 26 25 24 25 26 26 26 27 26 26 31 28 23
31 32 33 32 30 28 27 27 27 27 25 24 23 21 21 20 19 18 18 19 19 22 21 21 19 19 19 20 21 21 22 24 24 24 24 25 25 24 25 26 26 25 28
30 29 29 29 28 28 27 27 26 27 28 28 27 24 22 19 19 18 18 18 20 23 19 19 18 18 19 19 19 20 20 23 24 22 24 23 24 24 25 26 26 25 22
31 28 30 30 29 28 29 28 27 27 26 26 27 26 24 19 18 21 20 18 17 18 18 18 17 18 18 16 17 18 18 21 20 21 22 23 23 24 25 24 25 25 26
30 29 30 27 29 29 29 28 28 27 26 25 25 25 26 18 18 22 19 16 16 16 15 17 18 18 16 16 17 17 18 19 19 19 19 20 23 25 23 25 25 24 25
28 27 27 27 28 28 28 28 27 26 25 25 24 24 19 16 15 16 18 16 16 13 14 14 15 16 16 16 16 16 16 16 16 16 17 18 21 23 22 24 23 23 24
27 27 26 26 27 28 28 27 27 26 25 25 25 21 11 14 16 14 18 16 14 11 11 14 15 15 15 15 15 15 14 14 13 14 14 15 18 19 21 23 21 22 23
27 27 27 27 28 28 28 27 26 26 26 25 25 23 15 15 21 14 15 16 14 12 12 13 14 14 14 14 14 13 12 10 10 11 12 14 17 16 18 18 20 15 18
28 28 27 27 28 28 28 27 28 27 27 26 24 24 23 22 19 16 13 17 17 14 12 12 13 12 12 12 14 13 11 9 10 11 10 11 16 14 16 16 15 16 11
28 28 27 27 28 28 28 28 29 27 26 27 26 26 23 23 17 14 13 14 12 17 10 11 13 12 12 10 10 10 10 9 9 10 9 12 14 14 14 12 13 15 9
29 29 29 28 28 28 28 27 28 28 28 27 27 27 23 23 18 17 14 13 12 10 8 8 12 11 10 10 9 8 7 7 6 7 9 12 10 10 9 11 8 12 6
29 29 28 29 28 28 28 28 27 28 27 27 27 24 24 20 18 16 13 12 10 9 8 9 10 9 10 11 9 9 7 6 6 6 9 12 9 7 5 6 5 7 8

GFSGL_sfc_dewp_033.txt.gz
Dewpoint
31 33 35 35 37 38 38 38 39 39 37 37 39 39 39 40 39 37 37 36 36 35 34 32 31 31 31 32 32 31 33 34 31 30 34 33 31 30 29 33 36 36 35
31 33 34 34 37 39 39 39 39 39 39 39 40 39 38 38 37 36 33 31 29 27 26 26 27 24 26 27 28 27 27 27 26 24 25 25 25 26 27 27 27 25 29
31 32 32 35 35 37 38 38 38 39 39 38 38 38 36 35 31 28 28 28 27 26 26 25 25 24 24 25 25 26 27 24 24 23 22 25 25 25 25 25 25 27 25
31 31 32 35 34 35 36 37 37 38 38 37 32 32 30 28 27 26 25 26 25 25 26 25 24 24 24 25 26 25 23 23 22 22 23 23 24 26 27 26 26 27 27
29 30 33 34 34 34 33 34 34 33 31 31 29 28 28 26 24 25 24 24 24 24 25 23 23 25 28 29 26 27 24 22 22 22 22 22 22 22 22 25 24 25 26
30 30 32 34 34 34 33 32 32 30 30 27 27 27 27 23 29 28 26 24 24 23 22 23 24 25 25 27 29 28 28 26 26 25 24 23 22 22 24 24 24 23 23
31 31 31 33 34 33 32 32 29 28 25 26 25 27 26 26 29 28 28 25 23 22 22 23 20 18 24 25 26 28 28 29 28 26 24 24 24 24 24 23 23 23 23
31 30 31 33 32 33 34 30 27 24 23 24 26 26 25 24 29 29 30 25 24 23 23 22 21 23 24 24 23 25 26 27 28 27 27 27 27 27 27 27 28 30 30
33 34 34 35 35 35 32 28 24 23 23 25 27 26 26 26 29 30 29 25 25 25 25 24 22 22 24 26 27 25 25 26 27 28 29 29 30 32 34 32 28 27 24
28 34 35 36 36 35 34 29 24 24 27 28 27 28 29 26 28 29 27 21 21 24 23 22 23 22 25 28 26 26 23 23 23 24 26 26 26 26 28 28 26 25 25
31 33 35 36 34 35 28 23 24 25 27 28 26 27 27 27 25 25 27 25 23 23 21 21 22 23 24 26 28 27 25 26 27 26 25 24 25 27 28 29 31 29 27
30 33 36 36 34 28 25 24 24 26 25 19 15 18 23 24 24 24 22 20 20 19 20 21 23 25 28 27 27 28 29 28 27 25 25 25 26 28 30 30 31 32 32
33 34 33 33 32 28 24 24 24 24 21 20 19 17 17 23 21 22 20 20 21 20 21 23 25 26 23 25 26 26 27 27 27 25 26 26 27 30 31 31 33 31 30
34 33 32 31 30 28 26 25 23 21 19 24 20 15 12 20 19 19 19 19 22 21 22 22 24 23 22 23 24 24 25 25 24 23 24 26 28 27 25 28 27 29 22
31 30 31 30 28 26 25 24 25 23 22 18 18 17 9 7 17 20 19 19 20 22 22 22 20 19 19 20 21 22 23 23 23 23 23 24 25 25 25 26 23 24 24
29 28 29 29 27 25 23 24 27 26 26 27 27 19 16 20 21 21 20 20 19 23 19 18 16 17 17 18 18 19 20 21 22 22 23 23 23 23 24 25 24 20 19
29 29 26 26 25 24 23 24 22 25 28 28 29 28 26 23 21 19 20 19 17 18 16 16 15 16 17 17 17 17 18 21 22 21 21 21 22 23 24 22 23 22 19
30 29 29 29 27 26 26 27 26 23 20 19 24 25 26 23 19 21 20 17 13 14 15 16 15 16 16 15 16 16 17 18 17 17 18 18 19 22 21 21 21 20 22
28 27 27 26 25 26 27 26 24 25 22 23 21 20 22 21 18 19 19 9 7 9 11 14 16 16 15 15 14 14 15 15 14 14 14 16 17 20 19 22 21 20 21
26 25 26 26 26 26 26 22 23 24 23 19 18 16 14 12 3 2 3 1 1 5 4 11 14 15 14 14 14 13 12 11 10 11 11 12 15 18 18 20 20 20 19
25 26 24 25 25 26 22 24 23 22 22 19 14 14 11 9 4 9 6 3 3 3 0 6 9 11 12 12 14 12 11 8 8 9 9 10 11 14 15 17 19 18 18
23 22 25 26 26 26 25 25 21 15 16 19 20 15 11 4 7 9 5 4 2 3 3 3 7 10 11 11 12 9 10 7 7 7 8 9 10 13 13 14 13 12 12
18 22 26 25 26 23 26 25 24 15 19 19 15 13 11 10 9 9 5 2 3 2 2 2 2 9 8 7 8 9 7 6 7 7 7 7 10 12 11 11 11 10 5
22 20 24 25 19 23 24 21 18 19 18 16 14 15 13 14 9 8 4 1 1 1 -2 -0 3 8 10 7 6 7 9 6 6 7 5 7 10 10 9 10 9 4 2
21 17 20 26 25 24 25 25 24 20 21 19 23 15 14 10 9 6 3 2 2 -1 0 -2 0 4 7 8 7 7 6 7 5 5 7 7 6 6 6 8 4 6 1
19 15 19 23 24 25 24 16 13 18 24 23 18 15 18 15 9 6 3 3 1 0 -0 -2 0 2 7 8 8 8 6 5 5 6 7 8 5 4 4 2 2 1 1

GFSGL_sfc_dewp_036.txt.gz
Dewpoint
31 32 33 34 37 38 38 38 38 38 38 38 38 38 38 37 37 36 35 35 34 31 28 27 27 28 27 27 28 28 29 30 28 28 31 33 31 27 27 30 36 38 38
30 32 32 33 37 38 38 38 38 36 38 38 38 37 36 36 35 32 30 29 27 26 26 26 25 22 24 25 26 26 26 26 26 23 25 24 23 24 25 26 25 23 29
30 31 31 32 36 36 37 38 37 37 37 37 37 35 32 31 28 27 27 26 25 25 25 25 24 24 23 23 24 25 26 25 25 23 22 24 24 25 25 26 26 27 26
31 30 31 32 35 34 36 36 36 37 36 35 32 31 29 27 25 25 25 24 24 24 25 25 24 24 23 24 25 26 26 24 23 22 22 23 24 24 24 24 23 26 25
30 30 30 32 34 35 35 34 37 35 33 32 27 28 27 25 24 25 24 24 23 23 24 23 23 24 23 24 24 27 27 25 25 25 23 22 22 21 21 21 22 23 25
32 31 32 32 34 34 35 35 34 32 34 27 26 27 26 23 29 27 27 24 23 23 22 22 23 23 21 24 26 27 27 25 24 23 23 23 23 22 23 23 23 22 20
31 33 33 33 34 34 34 35 36 36 29 25 27 27 25 25 29 29 30 27 24 23 23 22 22 20 23 23 25 26 26 27 27 27 26 25 23 24 24 23 23 22 22
31 32 34 34 33 34 35 35 33 32 28 25 27 26 25 24 29 30 30 27 25 25 25 24 23 22 23 22 23 25 26 26 26 27 27 27 27 26 26 27 26 24 27
31 33 34 35 35 36 36 35 35 33 25 27 27 26 25 26 29 29 27 24 24 23 24 23 21 21 23 24 26 25 24 24 24 25 25 26 28 31 29 28 28 27 25
31 32 34 35 36 35 34 34 32 25 28 27 27 27 27 25 25 25 24 22 15 21 22 21 21 20 23 25 25 24 23 23 23 23 23 25 26 26 27 26 25 23 22
30 32 35 36 35 35 33 27 25 28 27 26 24 25 25 24 22 23 22 19 20 21 20 19 20 23 26 26 25 25 26 26 27 26 26 25 25 26 27 29 29 28 26
32 34 33 33 33 32 25 25 26 26 25 17 12 17 21 22 22 21 20 20 20 19 19 20 23 26 23 23 25 27 27 26 26 26 25 25 26 27 29 30 31 32 32
33 33 32 32 31 30 25 23 24 23 20 18 18 16 15 22 20 21 21 20 21 20 21 23 24 21 22 23 24 25 24 24 24 23 23 25 27 29 29 29 31 31 31
32 31 30 31 30 27 25 25 24 20 19 23 19 14 10 19 19 19 20 17 21 22 22 22 22 21 20 22 22 23 23 23 23 22 23 25 27 26 26 27 26 24 25
33 30 28 31 31 28 26 24 25 23 21 18 18 16 7 6 16 20 22 20 18 22 16 15 18 17 17 18 18 20 21 22 21 22 22 23 23 24 25 24 22 22 22
31 29 29 27 26 25 25 25 27 26 26 28 28 20 15 20 23 22 22 19 16 18 14 10 14 15 15 16 16 17 18 19 19 20 20 20 20 22 23 22 21 17 17
31 31 28 28 26 26 25 26 18 22 27 27 28 27 27 25 22 20 20 17 16 15 9 9 11 13 15 15 15 15 15 16 17 17 17 18 18 19 21 20 20 21 18
30 30 28 27 25 23 25 25 25 18 14 16 23 25 26 23 20 19 19 16 11 11 10 7 11 14 14 14 14 14 14 13 13 13 14 15 16 18 18 20 20 18 17
28 27 27 25 25 24 25 25 20 24 23 22 16 18 17 24 18 19 19 7 5 6 8 9 7 14 13 13 12 12 9 9 8 8 10 11 13 16 16 18 17 17 14
27 24 25 26 25 24 25 18 23 23 24 22 13 13 14 13 2 -1 -2 -4 -4 3 2 6 7 9 9 11 11 9 9 7 7 7 7 7 9 13 14 16 16 13 15
26 26 25 25 23 24 24 16 19 20 20 16 14 13 11 9 4 1 3 1 1 0 -2 2 1 1 6 7 11 9 8 4 6 6 7 7 7 9 12 12 12 12 13
20 20 21 21 25 24 23 24 23 14 16 17 17 12 10 2 6 6 4 6 2 1 2 0 2 4 6 9 9 2 4 1 2 4 5 6 8 10 10 9 9 4 7
16 14 19 23 23 20 22 23 18 20 17 20 18 16 9 11 12 12 8 5 1 -1 -2 -2 -4 0 2 3 5 7 4 4 4 3 3 4 7 9 6 5 7 6 2
21 18 18 19 23 20 22 15 15 13 15 16 14 14 11 12 15 14 6 1 -4 -4 -7 -4 -2 2 2 0 3 5 7 4 5 5 4 3 5 7 4 5 6 4 1
24 20 19 18 20 24 21 21 20 18 18 19 20 15 12 9 14 13 5 1 2 -5 -3 -5 -4 -0 -2 1 4 5 4 5 4 4 5 5 2 2 4 4 2 4 -0
27 21 21 18 16 19 24 21 16 11 11 14 17 16 13 13 13 7 4 3 5 1 -4 -6 -4 -2 -1 2 5 6 4 3 3 5 5 7 2 2 2 1 0 1 -1

GFSGL_sfc_dewp_042.txt.gz
Dewpoint
28 31 32 33 34 37 37 37 37 37 37 36 36 37 37 36 35 34 33 30 27 26 25 25 25 26 26 25 26 26 25 26 23 22 26 27 28 30 27 26 29 30 32
30 30 31 32 32 33 35 37 37 37 37 35 36 36 36 35 33 30 28 26 25 24 24 24 25 22 22 23 23 23 23 24 24 23 25 26 26 26 25 25 24 22 27
31 31 31 31 31 31 32 34 36 36 36 35 36 35 35 33 28 27 26 24 24 24 24 24 24 22 21 23 23 23 24 25 27 27 25 25 24 25 25 25 24 25 23
29 29 30 31 31 31 33 34 34 35 35 35 34 34 35 30 26 25 25 24 23 24 25 25 24 23 22 22 22 21 22 23 23 23 23 23 25 25 25 23 23 23 23
27 29 31 32 31 32 32 33 34 35 34 34 35 36 32 26 23 25 24 24 24 24 25 25 24 25 27 25 23 23 21 21 21 22 21 21 22 23 22 23 22 22 23
25 30 32 32 32 32 32 32 34 34 34 35 35 33 28 25 29 30 30 28 27 26 25 25 24 24 24 24 23 23 22 21 22 21 21 21 21 22 23 23 22 22 22
26 30 33 33 33 33 33 34 33 31 32 30 28 28 25 25 29 29 29 25 24 23 21 21 20 19 21 21 22 23 23 24 24 25 25 24 24 24 24 24 23 23 23
28 30 32 31 32 33 33 33 32 33 33 32 27 25 23 25 28 28 26 23 21 21 20 20 20 20 21 20 21 23 23 23 23 23 23 23 25 25 26 26 26 25 26
26 29 29 31 33 33 32 32 33 34 33 29 26 24 25 24 25 25 23 22 20 19 19 20 20 20 22 25 26 24 22 22 23 25 28 27 27 27 27 27 26 25 23
27 28 30 33 33 32 32 32 31 27 26 26 25 25 26 22 23 22 22 20 12 19 20 20 21 21 23 22 23 23 21 22 23 24 25 26 26 26 27 26 25 23 22
29 29 32 33 32 32 31 28 27 26 28 27 25 24 25 23 21 22 21 19 19 21 20 20 21 22 21 22 23 23 24 25 23 24 24 26 28 28 28 27 26 25 23
31 32 32 33 32 30 29 29 27 29 25 19 16 18 21 23 22 22 22 23 22 18 20 21 21 20 19 20 21 23 23 23 23 22 22 22 24 25 27 29 30 28 27
31 30 29 32 31 28 26 25 25 26 23 21 17 15 16 21 21 22 22 23 21 18 21 18 18 18 18 20 19 21 21 21 20 19 19 20 22 25 27 28 29 32 31
29 29 29 32 29 30 30 29 26 22 19 21 18 15 12 18 19 19 20 21 19 19 17 16 15 18 15 17 17 18 19 19 18 18 18 20 22 23 24 27 26 27 26
30 30 29 29 27 28 28 25 27 25 23 20 19 16 8 11 16 19 22 18 12 16 9 8 11 10 12 14 15 15 16 14 14 16 17 17 18 20 22 25 25 24 23
28 28 28 27 25 24 23 25 27 27 26 28 29 22 16 22 24 25 21 19 16 15 10 4 -2 -3 4 11 13 12 13 10 11 13 15 14 15 16 19 21 22 21 21
29 29 28 28 25 23 21 23 20 24 26 27 27 27 26 26 26 23 19 18 15 12 6 3 -6 -6 0 10 12 12 11 9 10 10 11 12 12 14 17 18 19 19 19
30 28 26 26 25 23 18 19 21 19 16 21 22 24 26 26 25 22 19 17 10 9 8 4 0 0 5 9 11 10 9 8 7 7 8 8 9 12 14 15 16 14 15
29 28 25 22 18 21 19 20 19 18 19 21 15 16 17 25 25 23 19 9 7 6 7 8 4 5 6 6 0 1 1 5 5 4 5 6 5 8 11 12 14 12 11
28 27 26 23 21 19 22 17 18 18 20 22 15 14 10 14 10 1 -2 -3 -2 6 4 7 7 6 3 2 -4 -7 -2 1 5 5 5 5 5 6 9 10 11 10 11
27 25 22 20 19 19 18 18 17 14 16 18 15 14 14 18 21 11 7 2 6 7 4 5 4 0 0 -1 4 -1 -2 -6 1 4 5 6 5 5 8 8 9 10 10
26 24 21 19 18 15 17 18 15 15 15 14 15 13 15 10 11 12 10 9 8 8 7 5 5 5 4 5 3 -6 -4 -6 -5 1 3 4 6 7 7 6 7 7 7
23 22 22 23 22 19 17 17 15 14 13 14 14 15 12 15 13 14 13 11 9 5 4 3 -0 1 0 -2 -3 2 0 1 0 -1 1 3 5 6 6 6 6 6 4
28 25 25 24 22 20 21 21 20 19 17 14 14 14 15 16 14 14 13 10 10 3 -4 1 3 4 2 -4 -4 -1 3 -1 0 2 1 4 5 5 5 5 6 5 4
28 28 26 25 25 24 23 23 23 21 19 17 18 19 18 17 17 16 14 13 11 5 3 0 1 3 2 1 -1 1 -2 -1 -4 -3 1 4 5 3 4 5 3 5 3
29 28 27 27 26 25 24 24 23 22 21 21 19 19 19 18 18 18 18 15 12 10 8 5 3 2 1 1 1 1 -4 -5 -6 -4 -1 4 4 4 4 3 2 3 2

GFSGL_sfc_dewp_045.txt.gz
Dewpoint
32 33 35 35 35 36 36 37 37 39 39 40 40 38 37 38 39 38 36 34 31 30 29 27 27 27 25 24 23 22 22 23 20 19 19 22 25 26 25 27 28 29 27
33 34 33 34 35 35 34 34 37 37 39 40 40 37 37 37 37 34 32 29 28 26 26 26 25 22 24 23 21 20 20 20 19 17 19 21 22 25 26 27 25 23 24
27 28 30 33 33 32 33 34 34 35 36 38 38 38 37 35 34 33 28 26 26 25 25 25 24 24 23 22 22 21 21 19 20 20 19 18 19 22 23 24 25 27 24
26 27 32 33 33 33 34 33 35 36 37 37 36 36 37 35 33 30 26 26 25 25 26 26 25 24 24 23 22 22 23 21 20 19 17 16 17 19 19 21 20 22 23
26 27 32 34 34 33 33 35 36 37 37 36 37 35 35 33 30 28 26 26 26 26 26 24 24 25 26 24 21 20 21 19 17 17 15 15 16 16 16 18 19 20 22
26 28 32 34 33 33 34 35 36 36 35 34 34 33 31 28 29 30 29 27 25 22 19 17 16 18 18 21 21 22 21 20 20 19 19 18 18 16 18 19 20 21 21
26 28 30 33 32 32 33 34 34 35 34 34 32 30 29 27 29 29 27 23 20 19 16 14 14 15 19 18 19 21 21 23 25 27 25 22 18 18 18 21 21 22 20
26 27 28 31 31 33 34 33 34 35 36 33 33 28 26 25 26 27 25 22 21 17 16 16 16 17 18 20 21 26 21 19 19 20 26 26 25 24 23 23 24 25 25
25 27 28 30 32 33 31 32 33 33 32 32 30 26 25 24 23 24 23 23 21 19 18 18 18 19 21 23 24 22 20 18 20 23 24 25 28 28 30 30 28 25 23
28 30 31 32 33 32 32 31 32 28 27 28 26 26 26 25 22 22 23 25 25 22 20 17 19 19 21 22 23 23 21 19 19 20 21 22 24 30 29 29 26 25 21
30 31 32 33 34 33 31 30 29 29 29 32 31 27 26 25 25 22 22 26 24 22 19 17 18 19 20 20 20 21 23 22 21 21 21 21 23 25 28 31 31 29 24
31 30 29 28 27 31 30 27 27 31 31 29 29 28 27 28 23 23 23 22 23 23 20 19 19 18 18 18 19 19 21 21 21 21 21 21 21 23 25 26 29 32 30
30 29 28 28 29 30 28 29 28 28 29 30 28 26 26 26 26 24 23 23 23 22 21 18 17 17 16 17 16 17 18 19 18 19 19 19 21 23 25 27 29 33 33
27 28 30 29 29 29 29 28 27 27 26 25 25 26 26 25 25 26 24 25 22 19 19 16 16 16 15 15 16 16 17 15 15 17 18 20 22 23 24 27 27 28 30
26 26 27 29 30 29 28 26 25 26 28 27 26 27 27 26 26 26 25 25 23 19 18 17 14 14 13 12 14 14 13 10 12 16 18 18 19 20 22 25 25 26 27
27 27 29 29 29 28 26 25 27 29 27 28 28 30 30 27 26 25 25 21 18 16 16 16 15 15 14 11 13 13 12 9 11 14 16 17 17 19 20 22 23 23 23
28 29 29 28 29 28 28 25 24 25 26 27 27 28 27 27 27 27 24 21 18 15 17 16 17 15 14 11 10 11 10 10 9 13 14 15 16 18 19 19 20 20 21
30 30 29 29 29 28 27 28 26 25 24 25 26 26 26 26 27 27 24 20 20 18 17 16 16 16 13 10 9 9 8 10 9 10 14 14 15 16 17 18 18 18 18
30 30 30 30 30 28 29 28 26 25 24 24 25 26 25 24 26 28 25 24 22 20 19 17 17 16 14 12 14 13 13 12 10 10 13 12 14 14 15 16 17 15 15
29 30 30 28 28 27 26 26 25 25 24 24 24 25 26 22 27 27 26 25 23 22 22 19 17 16 17 15 15 14 14 13 10 9 12 13 13 13 14 14 16 15 14
30 29 28 27 28 27 26 25 25 25 25 24 25 28 24 24 26 27 26 25 23 23 23 21 21 19 18 17 14 14 13 14 10 8 11 12 12 12 12 13 13 12 12
31 30 30 29 29 28 27 26 26 25 25 24 25 26 21 24 26 26 26 26 26 25 24 23 21 19 18 16 15 15 13 13 11 9 11 11 10 11 11 11 12 12 12
30 28 27 27 28 28 28 27 27 26 26 25 25 25 26 26 26 26 26 27 26 25 24 22 22 20 19 17 17 15 14 13 12 10 10 12 11 10 12 11 10 10 9
29 28 28 29 28 28 28 28 28 27 27 28 27 27 26 26 26 26 26 26 26 25 24 20 19 19 18 17 17 15 14 14 12 9 8 11 11 9 11 10 10 10 9
30 30 30 30 30 30 29 28 28 28 28 28 28 27 26 26 26 27 27 27 25 24 23 19 18 18 17 15 15 13 12 10 7 5 10 11 10 8 10 10 9 9 8
29 29 30 30 30 31 30 29 29 28 28 28 28 28 28 27 26 27 27 26 25 23 23 21 18 16 17 16 14 12 8 6 5 3 9 10 11 10 11 10 6 8 6

GFSGL_sfc_dewp_048.txt.gz
Dewpoint
34 35 37 35 32 32 32 31 31 32 29 30 30 33 34 35 37 37 37 35 34 33 31 29 27 27 25 24 24 22 21 20 17 18 17 19 21 22 21 25 26 25 25
36 31 28 29 29 28 28 29 31 30 31 31 32 34 34 35 37 37 35 36 33 30 28 27 26 21 25 25 22 22 21 21 19 18 19 18 20 21 21 22 21 20 22
24 25 26 26 27 27 28 29 30 31 32 32 33 34 34 36 35 36 34 35 31 28 27 27 26 25 24 23 23 21 21 18 20 20 19 19 18 19 19 21 22 23 19
23 23 23 27 28 29 29 30 32 32 33 34 34 35 36 36 35 35 32 30 29 27 28 28 26 24 24 23 21 20 18 17 18 21 20 17 17 18 18 17 18 20 21
22 21 24 29 30 30 30 32 32 34 33 33 34 34 35 33 30 31 29 28 28 27 26 23 22 21 21 21 19 19 19 18 17 17 16 17 17 17 17 17 17 18 21
22 23 24 28 29 31 32 32 33 32 32 33 32 32 31 28 29 29 29 26 25 23 20 20 18 19 18 21 21 21 21 19 18 18 19 19 20 19 19 20 23 20 22
23 21 22 25 27 30 30 31 32 33 33 33 33 32 31 30 29 30 26 24 23 21 20 18 16 13 20 18 20 21 23 26 27 28 25 22 23 24 22 22 20 20 21
22 22 23 25 27 28 31 31 31 32 33 32 33 33 31 27 28 27 25 24 23 22 21 20 19 18 19 21 18 22 20 20 20 18 22 24 23 22 23 25 28 26 25
21 23 25 28 28 30 30 31 31 30 30 29 32 32 29 27 25 26 24 25 24 23 21 20 19 19 20 21 22 23 21 20 20 22 23 24 25 25 27 31 27 26 26
23 26 27 28 30 30 31 31 30 29 28 29 28 29 28 28 24 23 23 27 28 25 22 19 22 19 19 19 21 23 22 20 18 19 20 20 22 24 27 31 28 26 23
26 28 28 28 28 28 29 31 29 27 30 33 33 32 28 28 28 23 23 28 26 23 22 19 19 19 18 19 19 21 22 20 20 21 21 21 23 24 24 26 28 31 29
27 28 28 28 26 25 28 29 28 28 30 33 33 32 30 29 27 25 24 24 23 26 23 21 21 18 17 17 19 17 17 19 23 21 21 21 22 22 23 25 28 29 32
28 27 28 28 27 26 28 28 27 27 28 31 31 29 28 27 26 26 25 25 23 26 24 21 19 16 16 17 16 16 17 19 18 19 20 20 21 24 26 29 30 32 34
26 26 27 29 29 27 27 26 26 26 26 25 27 27 28 26 26 26 27 26 25 25 23 21 19 18 17 16 17 17 19 17 16 18 19 21 22 24 26 27 27 27 31
26 26 26 26 28 28 26 26 25 25 26 26 24 28 29 28 27 26 26 26 27 23 22 23 20 18 15 14 16 16 16 14 13 17 19 19 19 20 22 26 25 25 28
26 25 27 28 27 27 26 26 28 28 28 29 28 29 31 29 28 27 26 25 23 19 20 22 23 22 19 15 16 16 16 13 11 13 17 17 17 19 20 23 23 24 25
28 28 28 28 27 26 26 26 26 27 28 27 28 28 28 29 28 28 27 26 23 20 21 21 24 23 21 16 14 13 14 14 13 12 15 16 17 17 20 21 21 21 22
30 30 30 29 29 29 28 28 26 26 26 27 27 28 27 27 27 26 27 26 22 23 21 22 22 22 20 14 13 12 13 16 15 12 15 16 17 17 17 17 19 19 18
28 29 31 32 32 30 30 29 28 27 26 25 25 26 28 27 26 26 27 27 23 23 22 21 22 21 19 17 19 19 18 18 16 16 16 15 17 15 16 16 16 16 16
28 29 30 31 31 30 29 28 28 28 27 26 25 25 26 28 28 29 30 28 27 26 25 23 22 22 22 20 21 20 19 19 17 15 16 17 17 16 15 15 16 16 14
28 28 29 31 31 30 31 30 29 29 28 28 28 32 27 26 26 27 28 30 28 26 27 26 25 24 24 23 19 19 17 19 16 14 15 16 16 15 14 14 15 14 13
30 31 31 32 31 32 31 31 31 29 28 28 30 30 27 29 28 28 29 31 31 30 28 28 26 25 23 22 20 21 18 17 17 16 15 14 14 15 14 14 14 14 13
30 30 29 29 29 28 30 30 31 32 32 32 31 30 31 31 31 29 31 32 31 31 30 28 27 26 25 24 23 20 18 17 18 16 13 15 14 15 16 15 13 12 12
30 32 29 30 32 31 32 32 32 31 32 32 32 32 32 32 32 32 32 32 32 32 31 30 27 26 25 25 24 21 17 18 18 14 11 14 14 14 14 13 13 12 12
32 32 32 32 32 32 32 32 32 32 32 32 32 32 32 32 32 32 32 32 31 31 29 29 28 27 25 22 22 20 17 14 14 9 12 13 12 11 12 13 12 12 10
28 27 28 29 31 31 31 31 32 32 31 32 32 32 32 32 32 32 32 32 31 30 29 29 27 26 24 23 21 19 16 13 12 6 12 13 13 14 14 12 3 12 8

GFSGL_sfc_dewp_051.txt.gz
Dewpoint
35 37 39 36 33 32 31 30 29 30 29 29 29 30 31 31 31 33 37 36 33 34 33 33 31 29 28 26 26 26 22 23 21 21 21 24 25 25 23 26 26 27 26
37 39 30 30 30 29 27 27 30 30 31 31 31 30 31 30 31 32 32 33 32 32 32 32 30 25 28 26 24 22 22 22 21 20 21 21 21 25 24 25 20 17 23
31 25 26 26 25 26 26 28 29 30 31 31 31 31 31 34 36 35 34 34 34 33 31 29 28 28 25 22 23 22 22 17 21 20 19 21 22 23 21 22 21 23 19
23 22 23 24 27 28 29 29 31 31 32 31 31 31 34 34 33 32 32 31 31 30 30 29 26 23 22 23 19 19 18 18 18 18 17 16 18 19 21 19 20 22 22
23 21 22 26 27 28 29 31 31 32 31 30 31 31 32 32 30 29 30 30 28 28 27 22 22 22 21 20 17 19 19 17 17 15 15 17 16 17 20 22 21 21 24
21 20 21 23 24 26 29 31 31 30 30 31 32 33 33 30 30 30 29 27 26 23 21 21 21 23 22 24 25 24 21 17 17 19 19 20 21 19 21 26 26 24 23
21 19 20 22 23 25 25 26 29 31 30 32 33 32 34 34 31 30 26 25 25 23 22 21 19 15 22 20 22 22 22 25 26 26 25 21 23 26 24 23 22 22 23
19 19 20 22 24 25 27 29 30 30 30 31 32 33 33 35 30 28 26 25 24 23 23 22 21 20 21 21 19 18 19 20 21 20 22 22 22 21 22 22 25 27 28
17 19 21 24 25 27 28 30 30 29 29 29 30 31 32 34 28 27 25 26 24 24 23 22 21 19 21 21 19 20 19 19 20 23 22 22 23 24 25 28 27 28 27
19 21 24 26 27 28 29 30 30 29 27 29 29 30 30 31 27 26 24 27 32 25 23 21 24 20 19 19 20 21 20 19 15 17 19 21 22 23 27 27 29 28 27
21 24 25 26 26 27 27 28 28 28 30 32 34 31 31 32 31 26 24 26 27 25 23 22 22 21 20 18 18 20 22 18 17 20 21 21 23 24 25 27 28 28 26
24 25 26 27 26 25 27 27 28 28 29 35 34 32 31 31 30 28 26 25 25 26 24 23 24 22 20 17 18 18 18 19 22 19 19 20 21 22 24 26 28 30 30
26 26 26 27 28 27 27 27 27 26 29 31 32 32 31 31 30 29 27 26 26 25 25 24 22 21 19 19 17 17 19 20 18 17 18 19 20 23 25 28 29 30 30
26 26 26 26 27 27 27 26 26 28 28 28 28 29 30 28 29 28 31 29 27 26 27 26 23 22 22 21 20 19 20 20 17 16 17 18 21 21 22 24 26 27 28
26 26 27 27 28 28 28 28 28 28 28 27 27 27 31 30 28 28 27 26 28 27 24 24 23 22 20 19 18 17 18 17 16 16 17 16 16 18 20 23 24 25 25
27 27 29 28 29 28 27 28 30 30 29 27 27 28 30 29 29 28 27 26 26 25 23 22 24 26 23 21 19 18 18 16 15 15 16 16 15 16 17 21 22 22 23
28 29 28 28 28 28 29 28 28 30 30 29 28 29 29 29 28 28 29 28 27 26 23 22 25 25 25 21 19 17 17 17 17 15 15 16 17 16 19 19 20 21 20
30 29 30 31 31 30 30 31 31 30 29 29 30 29 28 29 28 28 28 27 25 26 23 23 23 25 23 20 18 16 17 19 19 17 17 18 17 16 17 16 16 18 18
29 29 33 33 33 32 32 31 30 30 30 29 28 29 30 28 28 28 28 27 25 26 24 26 27 25 23 22 23 22 21 20 20 19 18 17 18 16 15 15 15 16 16
28 28 30 31 32 32 31 32 30 30 30 30 30 29 29 28 30 30 31 31 30 27 28 25 26 26 25 24 24 24 22 21 20 19 19 19 19 17 16 15 16 15 14
28 28 29 29 31 31 32 32 32 33 31 31 32 33 29 29 30 30 30 31 31 30 30 28 29 29 27 26 23 22 21 21 19 18 18 18 18 17 16 16 15 14 13
30 30 30 30 30 31 31 30 31 31 31 32 32 32 30 32 31 29 29 30 31 31 31 31 29 29 28 25 24 24 22 21 20 19 18 16 16 17 16 16 15 15 14
33 32 30 29 30 30 32 31 31 32 32 32 32 33 33 33 32 31 31 32 32 31 32 31 32 30 30 29 27 24 22 20 20 20 17 16 15 16 16 16 14 14 13
34 33 30 31 32 31 32 32 32 31 32 33 32 32 32 33 32 33 32 33 33 32 33 32 31 30 30 30 27 24 22 21 20 18 14 14 14 14 15 14 14 13 13
34 32 32 31 31 32 32 32 32 32 32 32 32 32 32 33 33 33 33 33 33 32 32 32 31 30 29 29 26 24 22 19 19 17 16 14 14 13 13 13 13 13 12
32 31 30 28 27 27 26 26 26 28 28 30 31 31 32 32 32 33 33 33 33 32 32 32 31 30 29 28 26 24 22 18 16 13 13 13 15 15 15 14 11 13 10

GFSGL_sfc_dewp_054.txt.gz
Dewpoint
40 41 41 42 40 36 35 35 33 34 34 34 34 34 34 34 35 35 36 34 35 35 34 34 34 33 31 30 30 28 26 26 22 22 23 23 23 24 23 25 26 23 23
40 41 43 41 35 34 34 32 34 33 35 34 35 34 34 34 37 36 35 35 34 33 34 33 32 29 30 29 28 26 25 23 21 19 19 20 21 23 23 24 21 19 21
37 39 35 32 31 31 32 33 33 33 34 34 34 35 34 35 34 34 34 33 33 34 32 32 30 29 28 26 24 22 21 19 21 19 18 19 20 22 21 22 21 22 21
35 28 29 28 30 33 34 33 34 34 34 34 34 34 35 33 34 33 30 32 32 31 32 31 30 27 23 21 19 19 18 19 19 18 17 17 18 19 21 20 22 23 23
28 27 28 31 31 32 33 35 35 35 34 34 34 34 35 34 32 32 31 30 31 30 30 27 24 25 26 22 16 19 20 20 19 16 17 17 19 20 21 21 22 26 25
28 25 27 28 28 31 33 34 34 34 33 34 34 34 34 32 32 31 29 28 28 27 25 24 23 25 26 25 27 25 24 20 19 19 21 22 22 19 23 27 25 22 20
26 23 25 27 27 30 29 29 32 34 34 34 33 33 33 33 32 31 27 25 26 26 25 24 21 18 26 22 23 23 21 22 23 23 22 24 26 25 23 21 19 19 20
24 22 23 26 26 28 30 31 33 34 33 32 31 32 34 33 34 32 28 25 26 26 25 24 23 22 22 21 20 20 18 19 20 19 23 25 22 20 21 21 23 24 24
22 22 23 27 26 28 28 32 32 31 31 31 30 30 31 34 32 30 26 26 26 26 25 25 24 22 21 22 21 20 19 19 20 21 19 20 23 24 24 25 24 24 22
22 24 25 27 28 28 30 31 31 31 29 32 31 31 32 32 31 29 27 27 26 27 25 24 24 21 21 20 19 18 18 19 18 17 18 21 23 23 26 27 28 25 25
24 26 25 27 27 29 30 30 29 30 31 31 31 31 31 31 33 29 28 26 27 27 27 25 25 22 21 21 19 19 19 20 19 19 21 19 23 24 25 25 25 23 23
25 26 26 28 27 27 29 30 30 29 29 31 30 32 30 31 32 32 30 28 27 25 25 25 26 24 23 21 19 19 20 21 20 19 18 19 20 22 23 24 26 28 29
26 26 27 27 28 27 27 28 29 28 28 29 31 29 30 31 30 32 31 29 28 26 26 26 26 24 25 23 22 22 20 20 20 14 16 17 19 22 23 24 25 25 26
26 27 28 28 28 28 27 27 28 29 29 29 28 28 29 28 28 29 28 29 28 27 26 26 26 23 21 21 21 22 22 21 18 16 16 17 19 20 20 22 22 24 24
26 27 29 29 30 28 28 28 29 29 30 28 28 28 25 24 27 28 29 29 29 29 24 23 22 22 23 22 22 21 21 21 18 17 15 17 17 18 18 20 21 23 22
29 29 31 31 31 29 27 28 30 30 30 30 30 27 27 28 29 29 30 29 27 26 23 21 19 20 24 21 19 19 19 18 19 17 16 16 17 17 17 18 21 22 21
30 30 31 30 30 29 28 28 29 30 31 31 31 30 29 28 28 29 29 29 29 28 24 20 19 23 22 24 20 20 17 18 18 18 16 15 16 17 17 18 19 19 18
32 30 30 31 31 31 30 30 30 29 28 29 30 30 29 30 29 29 29 28 26 27 25 23 22 23 25 23 21 20 19 16 16 18 12 15 12 13 16 16 17 17 17
32 31 32 32 32 30 30 30 29 29 28 28 28 28 28 30 30 30 29 26 24 23 24 26 24 24 26 23 21 21 17 14 13 10 12 14 16 14 11 16 16 15 15
31 30 30 31 31 31 30 30 29 30 31 31 29 28 29 30 29 28 27 27 26 25 25 24 25 25 26 25 24 23 19 16 15 16 12 9 17 10 11 11 14 15 16
32 32 31 30 30 30 30 30 29 29 29 29 30 31 30 31 30 30 30 30 28 27 26 26 26 26 26 25 23 20 22 16 15 14 12 12 10 8 12 11 12 15 16
33 33 32 32 32 30 29 28 28 27 26 27 28 28 31 32 30 29 29 29 29 29 29 30 28 27 27 26 24 23 22 16 16 14 12 11 10 11 12 10 11 8 13
30 32 32 32 32 30 30 30 29 29 29 29 29 30 30 31 32 31 30 30 30 30 30 30 30 29 27 27 26 24 23 19 17 15 12 8 10 10 8 9 9 7 7
28 29 31 31 31 31 30 30 30 30 30 30 31 31 30 30 30 31 32 32 32 32 32 31 31 30 28 28 27 25 22 19 18 14 10 8 8 10 8 8 9 5 5
28 29 31 31 30 28 28 26 25 25 24 24 25 27 28 28 28 29 30 32 31 32 32 32 32 30 30 29 28 24 22 21 16 15 13 9 7 5 5 7 5 7 5
29 30 28 27 26 25 23 22 22 22 21 21 22 22 22 23 24 22 22 28 29 28 30 32 31 30 30 29 28 25 23 20 17 14 12 13 10 9 8 7 5 5 7

GFSGL_sfc_dewp_057.txt.gz
Dewpoint
37 38 38 38 40 37 35 33 30 31 31 32 32 32 33 34 36 36 35 34 34 33 33 33 33 31 31 30 30 30 27 24 21 21 22 22 21 22 24 25 26 25 25
38 40 41 42 38 33 31 30 31 30 32 32 33 33 34 36 34 34 33 33 33 31 32 32 32 30 29 29 26 22 21 20 20 18 20 20 20 21 22 22 21 19 22
43 39 40 40 30 29 30 31 31 31 31 32 33 33 34 34 32 33 33 33 31 31 32 30 30 29 26 22 20 19 19 18 20 20 19 19 18 20 20 21 22 23 23
36 37 33 29 31 31 31 31 32 32 32 33 33 34 34 33 33 33 31 30 31 31 31 31 30 25 20 18 18 17 18 20 20 19 18 17 18 19 21 21 21 23 25
32 27 31 30 29 29 30 32 33 34 33 33 34 34 34 33 32 32 32 31 29 28 28 27 25 24 27 21 17 19 20 19 19 18 17 18 19 20 21 20 25 25 22
27 27 29 29 27 29 30 31 32 32 32 33 33 33 33 32 32 31 29 28 31 28 25 25 22 25 25 26 25 24 23 19 18 19 19 20 20 21 27 23 22 19 16
26 27 27 28 28 29 29 30 31 32 33 33 31 31 32 33 33 32 32 28 27 27 25 23 22 23 24 21 21 21 20 20 21 21 20 20 23 23 22 20 19 20 20
25 24 26 27 27 29 30 31 32 32 31 31 31 30 31 33 34 33 31 29 25 25 24 23 23 22 22 21 20 20 19 19 20 18 21 20 20 19 21 21 23 23 24
24 23 25 28 29 29 30 30 30 30 29 30 30 30 31 33 34 33 31 24 25 26 25 24 25 22 22 21 20 19 18 19 19 22 21 22 23 24 24 24 24 24 21
23 25 27 29 30 30 30 30 30 29 29 31 30 30 31 30 34 33 30 25 24 26 25 25 24 21 21 21 19 16 16 17 20 19 19 20 22 22 25 26 25 22 22
26 28 28 29 28 29 30 30 30 29 29 29 30 29 29 29 30 33 30 27 25 25 26 25 24 23 22 22 22 19 17 19 21 20 20 20 19 22 23 24 24 25 24
27 28 28 29 28 27 27 28 29 29 27 29 29 30 28 29 31 33 33 31 27 24 25 25 25 26 25 24 23 23 22 22 16 17 18 17 18 18 20 22 24 25 25
28 28 28 29 28 27 27 27 27 27 25 26 26 25 26 29 28 32 33 32 30 26 26 26 26 27 25 26 26 26 23 20 17 13 15 16 17 19 21 22 22 23 24
26 27 28 28 28 27 27 27 26 24 24 27 29 29 28 29 27 26 27 29 31 28 27 26 24 25 23 22 22 23 21 19 17 18 14 15 18 19 19 19 19 20 23
26 27 28 28 28 28 27 27 27 27 28 28 26 27 26 26 27 27 26 29 30 28 27 24 23 21 21 22 22 22 21 20 17 14 13 14 16 18 17 19 19 21 21
28 28 28 28 28 27 26 27 30 30 29 31 31 30 28 28 28 30 30 30 30 30 25 15 13 11 15 20 22 20 19 17 17 16 12 15 14 15 16 18 19 19 18
27 28 29 29 28 28 27 27 26 28 31 31 31 31 31 31 29 29 30 30 29 29 25 19 14 15 17 20 24 20 18 18 17 16 13 11 12 15 13 16 18 17 16
29 29 29 29 29 29 28 28 27 27 26 27 29 30 31 31 31 31 30 30 27 26 26 24 20 19 20 22 23 20 18 16 13 14 8 6 4 10 9 13 15 15 16
29 29 30 31 31 31 30 29 27 29 27 27 27 26 27 30 31 31 31 29 26 24 24 24 24 22 22 22 23 20 14 10 7 4 5 6 5 9 7 11 12 13 14
30 29 31 31 31 32 31 29 29 30 30 30 29 29 28 26 28 27 28 29 27 26 25 24 24 24 24 25 25 21 16 11 9 7 7 7 0 4 4 5 6 9 15
27 28 29 26 27 29 30 28 29 27 23 23 24 22 25 29 30 29 27 27 27 26 26 26 26 25 25 24 24 22 20 16 15 12 9 6 -1 3 5 7 6 13 13
24 27 26 25 26 29 30 30 28 24 22 22 25 25 24 27 30 29 29 30 30 30 29 28 27 27 27 26 25 22 20 16 13 11 8 5 6 5 4 5 6 3 7
21 22 24 25 26 28 30 28 25 22 26 27 27 25 27 28 28 29 30 31 31 31 31 31 30 29 29 28 27 25 22 20 19 16 11 6 5 4 1 3 4 3 2
23 24 25 26 26 27 27 25 24 24 23 22 21 21 22 23 25 22 22 24 31 32 32 31 31 30 30 29 28 26 24 22 20 18 13 9 7 6 1 3 3 -0 -1
20 18 18 20 21 21 22 21 20 20 19 18 18 18 20 19 17 17 17 17 18 18 28 30 32 31 30 29 29 26 24 24 19 15 12 9 6 2 1 2 -1 3 -0
15 13 13 14 15 16 16 16 17 15 15 15 14 15 15 15 14 13 12 13 13 16 17 24 29 30 29 30 29 26 24 24 20 15 15 13 10 5 4 4 2 1 3

GFSGL_sfc_dewp_060.txt.gz
Dewpoint
39 39 39 40 41 40 37 36 33 32 32 31 32 31 32 35 36 34 34 34 33 32 32 32 33 32 31 31 32 32 27 23 20 20 21 21 20 20 20 22 24 23 24
38 40 41 41 41 39 33 32 33 31 32 32 32 32 33 36 35 33 32 33 32 31 30 32 32 31 29 27 24 21 20 19 19 17 19 19 19 19 20 21 20 20 23
42 41 44 44 32 31 32 31 31 30 31 31 32 33 34 36 33 32 33 33 33 31 31 31 30 29 27 23 20 19 19 18 20 19 19 19 19 19 19 20 21 23 23
42 42 37 33 32 31 32 31 32 32 32 33 34 34 35 34 33 33 33 31 30 31 32 31 30 29 24 20 18 17 18 19 19 19 18 17 18 20 21 21 22 23 24
34 30 32 31 31 30 29 29 30 33 33 34 34 34 34 34 33 33 32 32 29 28 30 29 26 24 25 22 18 19 20 18 18 17 16 18 18 19 19 23 22 21 20
27 28 30 30 28 30 29 30 31 31 33 33 33 33 33 32 33 33 30 28 31 32 32 30 26 25 27 27 26 24 22 18 18 17 17 18 18 20 24 21 19 19 18
26 28 29 30 28 28 28 30 30 32 32 31 31 31 31 32 34 32 32 30 30 27 27 25 22 23 26 24 24 22 20 20 21 19 18 19 20 20 19 19 19 20 20
26 26 26 27 28 29 29 30 30 32 30 29 30 31 30 31 34 34 33 27 28 27 25 24 23 23 22 22 20 20 19 18 18 17 20 20 19 20 21 22 25 25 25
24 25 26 30 29 29 29 30 30 30 30 29 29 30 30 30 34 34 32 29 25 25 26 25 24 24 24 24 22 20 19 18 16 20 21 22 23 22 23 24 22 21 19
26 31 29 29 29 30 30 29 29 29 29 30 29 30 30 29 32 34 33 26 26 26 26 25 27 22 24 23 21 19 17 17 17 20 19 20 22 21 23 23 23 20 20
29 29 28 29 28 29 29 28 28 28 27 27 29 29 29 30 29 32 34 27 27 27 25 25 25 25 24 24 24 21 18 19 20 21 20 20 20 20 20 21 22 22 21
27 28 29 29 28 27 27 27 27 26 26 24 23 26 29 28 30 31 33 33 30 27 26 26 26 26 26 26 26 25 25 24 19 18 17 18 18 18 19 20 22 22 23
28 27 28 28 28 28 27 27 26 26 24 24 25 25 26 27 27 30 32 33 33 28 27 26 26 27 27 27 27 27 24 22 19 11 16 16 17 17 20 20 20 21 22
27 27 27 27 27 28 27 27 26 25 24 25 25 25 26 27 27 28 28 28 31 31 27 27 26 26 21 22 22 23 22 20 18 17 15 15 16 18 18 18 18 19 21
27 26 27 28 28 27 28 27 27 27 27 26 26 26 23 23 25 28 28 27 25 27 28 27 25 24 24 22 21 22 22 21 18 16 13 13 15 17 16 17 18 19 18
26 27 28 28 28 27 27 28 30 29 29 30 30 29 28 29 30 30 30 31 30 31 27 21 21 19 19 19 18 19 20 19 18 16 12 14 14 13 14 16 17 16 16
28 28 28 28 28 28 28 28 27 29 31 31 31 31 31 31 31 32 31 31 30 31 27 24 22 19 17 18 19 20 20 19 17 17 16 14 12 13 11 13 14 16 15
28 29 29 29 29 29 29 29 30 29 29 30 30 30 31 31 31 31 32 31 29 29 27 25 24 22 20 20 20 20 21 18 15 15 14 7 1 7 8 11 12 6 14
24 26 27 27 28 28 27 27 29 30 31 30 30 27 26 30 30 31 32 31 28 26 25 26 25 25 23 21 22 21 19 17 13 9 10 5 -1 7 6 8 8 8 9
21 22 22 24 26 24 24 24 25 28 29 29 27 24 22 22 24 27 23 27 29 28 26 25 25 25 25 23 22 22 20 16 13 11 6 2 -2 2 3 1 1 5 11
19 20 20 21 22 23 24 24 25 28 27 26 23 22 24 25 25 26 28 24 27 28 28 27 26 25 25 25 24 24 22 20 18 17 13 10 -2 2 3 2 2 9 10
20 21 21 22 24 25 25 26 27 27 26 24 24 25 24 26 26 27 28 28 29 29 29 29 27 27 26 26 25 25 24 23 19 16 11 9 8 4 1 2 1 1 4
19 16 16 18 20 20 21 21 22 21 20 21 20 19 18 18 19 19 18 18 19 19 23 30 29 29 28 28 28 27 25 23 21 18 15 9 7 5 -3 1 1 -0 -0
14 11 12 13 13 15 15 15 16 16 16 15 15 15 16 15 13 13 13 13 14 14 17 18 21 30 30 29 30 29 28 27 24 20 17 13 10 6 -0 1 1 -2 -3
10 7 7 8 9 10 9 10 10 9 10 10 11 12 12 12 11 10 9 9 10 10 12 14 16 17 26 30 30 28 27 26 24 22 18 16 12 8 5 2 -2 1 -3
9 4 4 4 5 7 6 7 6 6 6 7 8 9 9 8 10 7 6 5 7 8 10 12 13 15 14 24 29 29 26 24 21 19 18 15 12 10 9 5 -1 -0 1

GFSGL_sfc_dewp_063.txt.gz
Dewpoint
41 40 40 41 42 43 42 42 41 37 34 33 33 32 32 34 35 34 33 33 31 32 31 31 31 33 31 31 33 33 33 29 26 20 22 21 20 20 20 20 23 22 23
40 38 41 42 41 43 44 42 35 32 33 33 32 32 32 33 35 33 31 32 31 31 31 30 31 31 30 28 26 23 21 20 19 16 18 19 19 19 19 20 20 20 22
40 42 44 45 43 39 35 35 31 31 31 31 32 32 32 33 35 33 32 32 32 32 31 30 30 30 29 26 22 21 20 18 19 19 19 19 19 19 19 20 21 22 23
43 45 43 40 38 33 32 32 32 32 31 32 33 34 34 34 34 33 33 33 31 31 31 31 31 30 29 27 21 19 18 18 19 19 18 17 17 19 20 20 20 22 20
44 40 38 37 32 31 31 29 29 32 31 32 33 33 34 34 33 33 33 32 31 29 28 30 30 28 28 26 20 19 19 19 18 17 16 15 16 18 19 21 21 19 19
37 34 33 31 30 30 30 29 31 30 32 31 31 32 32 32 33 35 33 30 29 29 29 30 31 30 28 30 28 24 22 18 17 17 15 15 17 19 19 20 19 18 17
32 30 31 31 29 29 30 29 29 30 31 30 30 29 30 31 33 35 33 29 29 29 29 28 26 22 25 25 28 27 25 22 22 19 16 17 17 19 18 19 19 20 21
28 27 28 29 30 30 29 29 29 31 31 30 29 29 30 30 33 34 33 30 28 28 29 26 24 22 24 23 21 20 20 19 19 16 18 20 20 20 20 20 23 23 23
26 26 28 31 29 29 29 30 29 29 29 29 29 29 29 29 32 33 33 29 28 28 26 26 25 24 25 27 23 21 20 20 18 19 21 22 22 23 21 19 18 19 17
29 32 31 29 28 29 29 29 29 28 28 28 28 29 30 29 31 33 33 29 29 27 25 26 29 27 26 26 22 19 18 19 17 17 19 20 20 21 22 21 19 18 18
30 30 28 28 28 28 28 29 28 27 26 26 27 28 28 29 29 31 32 32 30 27 26 27 26 28 27 26 26 21 19 20 19 19 21 20 20 20 20 20 20 19 18
28 28 28 28 27 27 28 28 27 27 26 24 21 24 26 27 29 30 31 32 32 28 27 27 27 28 28 27 26 26 26 24 22 20 19 19 18 18 18 19 20 21 22
27 27 27 28 27 27 27 27 27 26 25 25 25 25 25 26 27 29 31 32 32 32 29 29 29 29 31 28 28 28 26 22 20 14 17 18 17 18 19 20 20 20 21
27 27 27 26 26 26 27 27 27 26 26 26 26 26 26 25 26 27 28 28 31 31 31 31 29 28 28 27 24 26 24 20 19 18 16 15 17 17 17 19 17 17 18
28 27 27 27 27 28 28 27 28 28 28 27 27 27 26 25 25 26 27 26 25 27 26 28 27 26 25 24 24 24 23 20 19 16 14 14 14 16 15 16 17 17 15
27 27 28 28 28 28 28 28 30 30 30 31 31 30 30 29 30 30 31 31 31 30 27 26 25 24 23 23 22 22 21 19 20 18 13 14 14 14 13 15 16 13 13
24 24 26 27 27 27 27 27 25 27 29 30 31 31 32 31 32 33 33 32 31 31 28 25 23 24 22 23 22 21 20 19 20 18 16 13 15 13 10 12 12 13 12
24 25 24 23 23 23 25 26 26 22 22 23 26 30 31 32 33 33 33 31 30 30 29 26 24 22 23 23 22 21 20 20 17 16 15 15 11 9 8 10 11 3 8
18 19 20 20 20 21 22 22 22 23 23 23 26 27 29 31 32 31 31 27 27 27 27 27 27 26 24 23 23 22 20 19 15 10 15 14 7 8 6 8 6 6 5
20 20 19 21 21 21 23 22 22 23 24 25 26 27 25 22 17 20 19 24 25 28 29 27 27 27 27 25 24 22 20 18 15 14 13 13 9 4 5 3 -2 2 9
19 19 17 18 19 19 19 19 20 19 20 20 21 21 21 22 20 20 20 19 20 22 26 28 28 27 26 26 25 24 22 20 19 18 17 15 8 2 5 2 0 5 9
16 13 14 16 15 15 17 16 16 16 16 15 15 18 17 16 15 15 14 14 16 16 17 18 19 27 28 26 26 25 24 23 21 20 18 17 13 9 4 0 -1 -1 3
11 8 9 11 11 11 10 12 10 10 11 10 11 12 13 11 11 10 9 9 11 12 13 15 15 16 17 25 28 27 26 25 24 22 19 16 13 11 3 2 -0 -2 -1
7 4 6 6 5 7 4 6 6 4 6 5 5 8 7 8 9 8 7 7 7 8 9 11 13 14 14 14 15 28 28 28 27 22 20 18 14 11 7 4 1 -3 -4
0 -4 -6 -1 -0 2 -1 3 0 -3 -1 1 2 4 5 6 6 7 6 5 4 4 6 8 10 11 11 12 13 15 27 28 26 23 21 19 15 11 9 6 2 1 -5
1 -3 -5 -7 -7 -5 -5 -1 -5 -3 -2 -1 -1 1 2 3 4 4 4 2 1 2 2 4 6 8 9 11 12 12 15 28 25 23 20 19 15 12 9 7 4 3 3

GFSGL_sfc_dewp_066.txt.gz
Dewpoint
44 43 43 41 42 44 44 44 44 44 44 38 35 34 34 33 35 35 34 34 33 32 32 32 31 32 32 31 31 32 31 32 28 26 23 21 20 20 21 21 22 21 23
40 42 42 41 41 43 43 44 44 41 38 34 34 34 34 33 34 35 34 33 32 31 31 31 30 31 31 31 29 29 28 28 22 17 18 19 20 20 20 19 19 20 22
42 42 41 42 44 43 44 43 40 34 32 33 33 34 33 34 34 34 34 32 32 32 32 31 30 30 29 29 27 24 22 19 20 19 18 20 20 19 18 20 21 22 23
43 44 44 44 43 40 36 33 32 33 32 32 33 33 34 34 34 34 33 32 32 32 31 31 30 30 30 29 28 24 21 19 19 19 19 18 17 17 20 19 19 20 18
44 44 44 40 35 34 33 32 32 32 31 32 32 32 33 34 33 33 32 32 31 31 30 29 29 29 30 28 23 22 20 18 19 18 17 16 15 15 16 19 19 19 19
44 41 37 35 31 31 31 31 32 31 32 32 31 31 31 31 34 35 34 31 30 29 29 29 30 32 32 32 32 29 21 19 19 17 17 16 15 16 20 20 19 18 16
35 33 30 31 31 30 31 30 29 30 32 31 30 30 29 30 33 35 34 32 29 29 28 29 29 27 27 24 26 28 27 25 23 21 19 18 17 19 19 19 19 19 19
30 28 30 31 31 30 29 29 29 30 30 30 29 29 29 29 32 33 34 31 29 29 29 28 28 26 24 24 23 24 22 21 21 20 20 18 18 20 20 21 21 21 21
28 28 29 31 29 29 28 29 30 29 29 28 28 28 27 28 31 32 32 30 30 29 29 29 27 25 26 28 26 23 21 20 21 24 23 22 24 23 22 21 18 18 16
30 31 31 30 30 29 29 30 29 28 27 28 26 27 29 29 30 32 32 28 30 30 30 28 29 27 28 29 26 23 20 20 20 17 16 19 22 21 22 22 20 17 16
31 30 29 29 28 28 28 28 28 27 27 27 27 27 27 28 28 31 32 30 30 29 28 28 27 28 30 30 28 24 22 21 21 19 18 20 21 21 21 21 20 19 17
28 28 28 28 27 26 27 27 27 27 26 26 24 25 26 27 29 29 31 32 31 30 28 28 28 29 30 30 29 28 26 24 23 22 21 21 20 20 20 20 19 21 21
28 28 28 27 27 26 26 26 26 26 26 26 26 26 27 27 26 29 30 31 31 29 31 30 30 30 32 31 31 30 28 26 25 23 22 21 20 20 19 19 20 20 20
28 28 28 27 28 27 28 28 26 25 26 27 27 27 27 28 28 26 26 28 29 30 30 30 30 29 28 28 29 30 29 27 25 23 21 20 19 18 17 18 18 18 17
26 26 26 26 26 26 27 27 27 27 27 27 27 28 28 28 27 30 29 29 29 28 25 24 28 27 26 25 25 26 26 25 23 21 19 18 17 16 16 17 17 17 16
22 23 24 24 23 23 22 22 25 26 27 28 27 26 25 27 28 30 32 32 33 31 27 25 26 26 25 24 24 24 24 24 23 21 19 19 18 16 16 16 17 16 14
22 21 21 21 21 21 21 21 21 22 23 24 25 26 27 28 31 33 33 33 33 32 29 28 26 26 26 24 24 23 23 23 23 21 21 19 18 16 15 15 15 15 13
19 20 19 20 19 20 20 20 21 20 20 21 24 24 23 26 28 31 32 32 29 29 29 28 28 25 24 24 24 24 23 23 21 20 19 18 17 16 14 14 14 11 12
19 19 19 19 20 20 21 20 19 19 18 18 19 18 18 23 22 23 24 24 25 26 26 27 28 28 26 24 25 25 24 23 21 17 18 17 15 15 14 13 13 8 8
17 18 16 17 18 17 18 16 17 15 15 15 15 16 15 15 14 16 16 15 14 15 16 17 19 25 27 28 25 25 24 23 21 17 17 17 16 14 15 12 9 10 12
15 12 13 15 14 14 13 13 13 11 12 10 11 13 12 12 12 12 11 11 11 12 11 13 15 16 18 24 27 25 24 23 22 19 19 17 15 14 14 12 11 10 11
10 9 10 11 11 9 8 10 8 6 7 6 6 9 7 8 9 9 8 8 8 10 10 11 11 13 16 15 15 22 25 24 23 21 19 18 16 16 14 11 9 9 10
7 2 4 7 5 4 2 3 2 -1 3 1 2 4 5 4 4 7 6 6 6 6 7 8 9 10 12 13 14 15 16 25 25 24 22 19 17 16 12 11 9 7 7
3 -3 2 -1 -4 -1 -9 -7 -3 -3 -1 -1 -5 -1 1 1 1 3 3 3 3 3 4 5 6 8 8 9 10 14 14 13 14 26 24 21 18 15 13 11 10 7 6
-6 -10 -11 -10 -10 -13 -15 -10 -10 -12 -10 -9 -8 -5 -2 -1 -1 1 0 0 2 0 1 3 4 4 5 5 7 10 10 12 12 20 24 22 19 16 14 13 10 8 5
-2 -7 -10 -14 -16 -17 -19 -19 -15 -17 -13 -9 -9 -9 -5 -6 -4 -2 -3 -3 -2 -2 -0 1 2 2 1 3 6 8 8 10 11 18 23 21 18 16 14 13 10 10 7

GFSGL_sfc_dewp_069.txt.gz
Dewpoint
56 56 55 53 52 49 48 46 45 47 45 46 45 41 36 36 36 37 37 37 37 37 36 35 35 34 32 32 32 32 31 32 28 27 28 27 25 23 22 23 21 18 19
52 51 49 47 47 48 46 46 46 45 47 43 40 36 35 34 35 36 36 35 36 36 35 35 34 30 33 33 32 32 31 31 32 28 26 22 22 23 23 22 16 14 19
46 46 47 46 45 45 45 46 46 44 42 38 36 35 34 35 35 36 36 36 36 35 35 35 34 33 32 31 31 30 30 28 28 27 24 21 21 21 20 19 16 19 17
45 45 45 44 45 45 44 43 39 37 35 34 34 35 36 35 34 35 35 36 36 35 35 35 34 33 32 31 31 31 29 27 29 26 21 20 20 20 19 16 14 16 15
46 45 45 44 42 40 38 36 37 36 33 32 33 34 35 34 32 34 34 35 35 35 35 34 34 34 34 32 29 29 29 27 26 22 20 19 19 18 17 14 16 15 17
45 43 42 40 37 35 34 35 36 32 32 33 33 34 33 29 32 35 34 33 33 33 33 33 32 33 33 34 34 34 32 27 24 22 20 20 19 18 19 17 17 16 16
43 39 35 32 31 34 34 31 31 33 34 33 34 33 32 33 33 34 34 32 32 32 32 32 30 29 32 30 30 29 30 28 26 25 25 23 24 22 16 16 16 16 15
32 30 31 33 32 32 31 32 33 32 32 32 33 33 33 30 32 32 33 32 32 33 33 32 31 30 30 30 26 25 24 25 25 22 23 22 22 19 17 18 21 21 20
27 30 32 33 30 33 34 31 31 32 32 32 31 31 31 30 31 32 32 31 31 31 31 32 31 30 30 30 27 27 26 24 24 25 25 25 25 22 24 23 22 21 20
30 31 32 32 31 30 30 30 31 31 30 30 29 31 31 30 32 32 32 33 35 31 31 30 31 31 30 29 30 31 29 26 23 21 21 21 21 21 24 23 22 21 18
33 31 29 29 28 29 29 30 30 30 31 32 32 31 31 31 31 32 32 32 33 31 29 28 29 30 30 30 30 31 31 28 26 23 22 22 20 20 22 23 23 23 20
28 28 28 29 27 28 29 30 29 30 30 34 33 32 30 30 30 30 31 31 31 32 32 30 30 30 30 30 31 30 30 28 30 27 25 24 24 23 23 23 22 22 21
28 28 27 26 24 24 23 23 23 22 24 27 28 28 30 29 29 30 30 30 30 32 33 33 32 30 31 30 31 32 31 32 29 28 25 24 23 23 23 23 22 21 21
24 23 23 21 21 21 19 19 22 24 25 24 25 26 28 25 26 26 29 30 29 31 30 32 32 31 32 31 30 30 32 32 30 28 28 25 26 24 24 23 21 20 21
20 18 19 20 21 21 20 22 23 23 25 24 24 25 27 27 27 29 30 31 32 31 32 32 32 30 28 29 28 28 29 28 29 28 28 27 25 24 23 24 21 20 19
16 17 21 21 21 21 20 21 22 22 22 23 25 25 25 25 25 27 27 29 32 32 31 30 30 30 29 28 28 26 27 27 27 26 27 26 25 23 23 23 21 21 19
18 18 19 20 19 20 20 19 19 20 20 21 21 21 20 21 22 23 23 23 28 30 30 31 30 30 30 30 28 28 27 28 29 27 26 26 26 23 24 23 22 21 19
19 20 19 20 20 20 20 20 19 19 19 19 18 18 17 18 18 19 19 19 19 19 19 22 25 29 30 29 29 28 28 28 28 27 26 27 26 24 24 22 21 21 19
17 16 19 20 20 19 19 18 18 16 16 15 15 15 15 15 15 16 16 15 14 15 15 15 18 20 21 24 30 30 30 29 28 28 27 26 26 24 24 23 21 18 17
13 15 16 16 16 16 15 15 14 14 14 13 13 12 13 12 13 14 14 14 13 12 12 12 14 16 18 19 21 23 30 29 28 27 27 27 27 25 24 23 22 21 17
11 11 13 12 12 13 12 13 12 11 11 10 10 10 7 9 10 10 11 11 10 10 11 11 12 13 15 17 16 18 18 25 28 27 26 26 26 24 24 24 23 19 17
10 9 11 11 11 11 9 9 10 8 7 7 7 7 5 9 8 8 9 10 10 9 9 10 10 11 12 13 13 14 16 18 20 26 27 26 25 24 24 23 22 20 17
8 7 8 7 7 6 7 5 7 6 5 5 5 4 5 6 6 5 6 8 7 7 7 7 8 8 10 10 12 12 13 14 15 16 17 26 25 25 24 22 20 19 17
6 6 4 5 5 3 4 3 4 0 0 2 3 3 3 3 4 4 4 6 4 5 5 5 5 5 6 7 8 10 12 13 12 14 15 18 26 25 23 22 20 18 17
6 5 4 4 3 2 1 1 1 0 0 0 1 1 0 1 1 2 2 3 2 2 1 3 4 4 4 4 5 5 8 8 9 11 14 15 25 24 23 22 21 17 16
6 4 3 3 3 2 1 -1 -1 -2 -3 -3 -2 -1 -1 -1 -1 0 -1 0 0 -1 -0 2 2 2 2 3 4 5 3 4 8 9 12 13 24 23 22 22 19 17 15

GFSGL_sfc_dewp_072.txt.gz
Dewpoint
58 57 57 58 58 57 55 53 51 48 47 47 47 47 48 41 38 39 38 36 36 36 36 36 35 35 34 33 32 30 29 28 25 25 24 26 29 29 26 27 26 24 22
57 57 58 56 54 51 51 49 49 48 48 49 48 45 39 36 37 36 35 33 35 35 35 35 35 31 34 34 31 31 29 28 26 26 28 26 29 28 26 26 21 17 18
56 55 51 50 50 50 49 49 48 48 48 45 42 38 36 35 34 35 34 34 35 35 35 34 34 34 33 32 31 29 28 24 26 26 26 26 26 26 23 24 22 21 15
52 51 50 49 48 47 47 46 45 43 41 39 39 36 35 34 33 34 32 33 33 32 34 34 34 33 33 32 29 29 27 26 27 27 26 28 25 24 23 19 18 17 15
49 47 47 47 46 44 43 43 42 39 39 39 35 33 35 34 30 32 30 31 31 31 32 32 34 34 36 34 28 28 28 26 27 27 29 26 21 19 19 18 17 16 17
48 47 46 44 42 41 40 39 39 38 36 33 35 37 35 28 33 34 33 30 29 28 30 30 30 33 33 34 34 33 32 28 29 30 27 25 22 20 22 20 19 17 17
45 44 42 39 37 36 34 33 34 35 37 39 36 34 32 32 34 34 34 29 28 28 28 28 26 23 30 30 31 33 33 33 32 31 29 26 26 26 24 20 17 16 16
42 38 34 33 34 34 33 33 37 39 36 34 33 32 32 28 32 33 33 30 29 28 29 29 30 30 30 30 29 28 27 26 28 26 26 24 23 24 22 20 20 21 21
34 30 31 33 33 35 38 39 35 33 32 30 29 30 30 30 32 33 32 31 30 30 29 30 29 30 30 33 31 30 28 26 27 29 29 29 26 25 25 24 23 23 23
29 32 33 34 35 36 34 32 31 30 28 28 28 30 31 32 32 34 33 34 34 34 32 32 31 30 30 31 33 33 32 27 26 27 25 25 27 26 26 24 23 23 21
34 32 32 32 31 30 29 30 30 30 31 34 34 33 31 31 30 32 32 30 30 30 28 29 32 31 31 32 32 32 32 30 28 29 26 25 23 23 22 24 23 24 23
31 30 29 29 25 27 30 31 29 28 27 29 35 31 29 29 28 28 30 30 28 30 27 28 29 31 32 32 33 31 31 31 34 33 30 27 26 25 23 25 25 25 24
29 29 27 25 24 22 24 22 21 20 23 26 27 27 27 27 25 27 28 28 29 31 31 31 29 30 31 32 32 31 31 33 33 33 31 29 27 27 26 26 25 24 23
25 25 23 20 19 17 15 17 21 24 24 22 24 26 27 24 25 25 26 28 28 31 31 32 32 30 30 32 33 33 34 34 32 32 31 28 28 31 28 26 25 24 25
20 18 18 19 20 20 19 22 23 23 24 24 25 25 26 26 23 23 23 24 27 28 31 33 32 31 30 30 32 33 33 31 30 31 29 28 29 29 28 28 25 23 22
15 17 22 21 21 20 19 22 22 21 21 22 21 23 23 21 20 21 21 21 22 23 28 30 32 34 32 30 32 32 31 31 28 28 30 28 27 28 27 28 25 23 22
17 18 19 20 19 19 21 20 20 23 19 18 17 18 18 18 18 18 19 19 20 21 23 23 25 26 28 28 32 32 32 30 33 31 30 29 28 27 29 26 26 23 22
18 19 19 21 21 22 22 21 21 21 21 21 17 16 16 16 16 17 17 17 18 18 18 19 21 22 21 21 23 25 30 31 32 31 32 31 31 29 28 24 24 24 22
15 17 21 23 22 20 21 20 20 19 18 17 16 16 16 14 15 15 15 18 16 15 15 15 17 17 18 19 22 23 26 28 32 32 31 30 31 29 27 25 24 23 22
13 16 17 18 19 18 17 17 17 16 16 16 16 15 14 12 17 17 17 18 16 14 15 13 14 15 17 18 20 21 22 23 25 30 31 31 31 30 27 26 25 25 21
12 12 14 14 15 15 16 16 16 15 15 14 15 16 8 10 15 15 14 14 14 13 14 13 13 14 15 16 16 17 18 20 21 23 25 30 31 30 28 27 26 24 21
12 12 14 15 14 16 14 13 14 13 12 12 12 12 7 13 13 12 12 13 14 13 12 13 12 12 12 13 14 14 15 16 18 19 19 20 26 30 29 27 26 25 21
13 14 13 12 12 10 13 11 12 12 11 11 10 10 11 11 11 10 11 12 11 11 11 11 11 10 11 12 13 13 13 13 16 17 16 16 19 24 29 28 26 25 22
12 13 9 10 12 10 11 11 11 7 7 9 10 10 10 9 10 9 10 10 9 10 10 9 8 8 8 9 11 11 10 12 13 12 13 14 15 18 26 28 27 26 24
14 12 11 10 10 10 9 9 9 9 8 8 8 8 7 8 7 8 9 8 6 7 7 7 8 8 8 7 7 8 9 8 8 8 10 14 14 17 19 27 27 25 24
11 10 10 10 9 9 8 8 7 7 6 6 5 5 5 5 5 7 6 5 5 4 4 7 7 7 7 7 8 8 7 6 6 6 10 11 13 16 20 26 26 25 22

GFSGL_sfc_dewp_075.txt.gz
Dewpoint
56 58 59 59 59 59 58 57 57 55 51 50 48 47 47 48 48 43 40 40 37 38 38 37 37 36 34 33 32 31 30 30 28 29 27 30 31 32 29 31 30 28 29
56 58 59 59 57 54 52 52 52 50 50 48 48 48 50 47 43 41 40 37 36 35 36 37 35 30 34 34 34 33 32 31 29 29 29 28 30 31 31 33 26 23 26
57 58 56 52 52 50 50 50 50 49 49 49 48 46 44 43 40 37 36 36 36 36 35 34 33 33 34 34 34 32 32 26 30 28 28 29 28 28 28 29 28 28 22
56 55 53 52 50 49 49 49 48 47 46 45 46 45 44 39 35 34 35 35 34 32 32 32 32 32 32 34 32 34 30 30 29 27 26 25 26 28 29 29 28 27 22
54 52 51 50 49 49 48 47 46 44 44 43 42 42 39 33 33 36 33 31 29 29 30 28 31 32 36 35 31 33 33 30 28 27 25 26 28 29 28 28 27 26 25
50 48 49 49 48 45 44 44 43 41 40 41 40 35 36 35 34 33 31 29 27 27 26 27 26 31 30 34 34 33 32 31 30 30 28 28 28 30 29 27 26 24 22
49 48 47 46 44 42 39 39 38 38 37 38 36 39 37 34 35 34 34 29 27 26 26 27 25 22 30 28 31 33 32 33 31 32 30 29 30 29 27 24 23 23 21
45 44 43 42 39 37 36 35 36 37 39 39 37 34 33 30 35 34 34 30 29 29 30 30 31 32 32 32 31 32 31 31 32 31 31 29 28 28 27 26 26 23 22
43 41 39 37 35 34 36 37 40 39 36 35 32 29 29 30 33 33 32 32 32 32 31 30 30 31 31 33 33 33 32 33 31 31 31 32 30 28 25 27 27 26 26
37 35 34 33 35 36 38 38 35 33 29 27 26 29 31 31 34 33 30 31 30 30 27 25 28 27 29 32 33 33 34 31 30 32 29 30 29 27 28 26 26 26 23
33 33 35 35 35 35 33 32 29 28 29 34 35 34 29 28 29 30 30 26 27 28 26 27 28 28 29 31 32 32 33 32 31 34 34 30 33 29 28 28 27 27 25
34 33 32 32 29 29 30 29 28 28 30 29 35 31 30 29 29 29 28 28 28 28 27 29 30 30 31 30 30 30 31 32 34 32 33 33 31 29 28 28 29 28 27
32 31 31 29 26 25 26 25 24 20 24 27 28 27 28 27 26 28 25 26 26 26 28 29 30 31 32 31 31 31 31 33 32 31 32 31 31 32 30 31 30 29 28
30 29 26 24 21 18 14 17 22 25 25 23 24 26 28 24 23 24 23 24 24 25 26 27 27 28 30 31 32 33 33 33 33 32 31 30 31 32 31 31 30 31 28
25 22 21 19 21 20 19 23 24 24 25 25 26 25 26 25 23 21 21 21 23 23 25 28 29 29 29 29 31 31 32 34 33 31 30 29 29 28 29 31 31 28 28
19 19 24 24 22 20 19 25 22 24 23 22 21 21 23 19 19 19 19 19 20 21 22 25 25 26 25 25 28 28 32 33 33 32 31 29 29 28 27 29 29 28 26
21 21 20 21 19 19 20 21 20 24 21 21 20 17 17 17 17 18 18 18 19 18 20 20 21 22 23 23 23 24 25 27 31 33 31 32 31 29 29 29 29 28 26
18 23 20 21 21 22 21 21 21 21 22 22 21 18 15 15 16 16 16 17 17 16 16 16 18 18 18 17 19 21 22 24 26 26 32 33 32 32 29 29 28 27 26
17 18 22 23 22 20 21 20 20 19 19 19 18 19 19 16 15 16 16 18 17 15 14 14 16 16 16 16 19 21 22 23 23 25 26 30 32 30 30 29 28 25 25
15 17 18 17 18 17 17 17 17 17 17 18 17 17 17 14 15 18 18 18 17 16 15 13 13 14 16 16 18 19 19 20 21 22 23 25 28 30 30 30 29 27 23
12 13 15 14 15 16 17 17 16 17 16 16 17 18 11 11 12 16 16 16 16 15 15 14 14 15 14 15 14 16 15 17 17 19 20 20 21 23 29 30 29 27 24
14 13 14 16 15 17 16 15 15 15 14 14 15 14 12 14 14 14 13 15 16 14 14 13 12 12 12 12 13 14 13 14 15 15 17 17 18 19 23 28 28 28 25
14 15 15 13 14 13 15 14 15 15 14 13 12 12 13 14 14 12 12 14 13 13 12 12 12 11 11 12 13 12 12 12 13 15 13 13 14 17 18 20 26 28 26
14 15 12 12 15 12 14 14 14 11 11 12 13 13 12 12 12 11 12 12 11 11 11 11 11 10 10 11 11 12 11 12 12 12 12 10 10 13 17 18 20 28 27
15 15 14 14 14 14 13 12 12 12 12 11 11 10 9 10 8 9 10 9 8 8 8 9 9 9 10 9 10 9 10 11 12 9 9 10 10 11 13 16 18 23 27
13 12 12 13 12 12 12 11 11 10 9 9 9 8 8 7 6 7 7 6 6 6 6 8 9 7 8 8 9 10 10 8 7 6 8 8 9 10 13 16 19 21 27

GFSGL_sfc_dewp_078.txt.gz
Dewpoint
56 58 60 60 60 60 59 58 57 55 52 49 49 48 47 47 47 46 47 46 43 42 41 40 39 40 38 37 37 36 35 33 30 30 30 30 30 31 30 32 35 32 33
56 58 60 60 59 59 56 54 52 50 49 49 49 48 48 49 50 47 44 42 41 40 40 39 39 36 36 37 37 35 34 33 32 29 29 30 30 30 31 31 32 31 29
55 59 59 58 56 55 53 52 51 50 49 49 48 48 48 47 46 45 43 42 40 40 38 37 36 35 35 35 35 35 34 32 32 30 28 29 29 29 27 27 31 33 30
59 58 56 54 53 51 50 49 49 49 48 48 47 47 46 46 45 43 40 39 37 35 36 35 34 34 34 34 33 33 32 32 31 29 28 27 27 27 27 27 28 30 30
55 54 51 50 50 49 49 49 48 47 46 46 46 46 45 43 41 39 37 34 31 30 32 32 32 35 36 34 29 30 31 30 30 29 28 27 26 26 26 28 30 29 29
51 49 50 50 49 49 47 47 45 44 44 44 44 44 42 39 34 34 33 30 30 30 30 29 30 32 30 33 34 34 32 29 29 30 30 30 28 27 28 29 33 31 25
49 49 49 47 46 45 44 44 43 42 41 41 41 41 40 39 36 35 32 31 30 30 30 30 28 26 32 31 32 32 32 33 31 31 30 30 30 29 28 27 27 25 24
48 47 46 45 44 42 41 40 39 39 38 39 41 39 36 34 36 35 34 31 31 31 32 32 32 31 31 31 29 29 30 31 32 32 31 31 32 31 28 26 27 26 25
45 44 43 42 40 39 38 38 38 40 41 38 37 35 32 33 34 33 32 33 33 31 30 29 28 27 29 30 26 27 27 28 31 34 34 35 35 33 29 27 24 24 22
43 43 42 39 37 36 38 40 42 40 38 34 31 36 33 32 32 31 28 31 28 27 27 27 28 28 29 30 27 27 27 27 28 32 31 33 35 33 30 26 26 24 23
40 38 36 35 36 38 40 38 35 33 36 35 34 31 29 30 30 31 30 28 27 27 26 26 27 29 31 31 31 29 28 29 28 28 29 30 31 34 29 27 27 26 24
35 35 36 37 34 34 35 31 31 34 34 33 31 31 31 29 29 27 26 25 25 25 24 25 26 28 29 29 29 30 31 30 30 29 29 29 29 31 34 33 29 27 27
36 35 33 31 31 30 31 31 29 27 29 31 31 30 31 28 27 27 24 24 25 24 24 25 27 27 27 28 30 31 30 30 30 29 28 28 28 30 32 32 33 32 29
33 32 31 28 25 23 20 24 28 29 30 29 29 28 28 26 25 23 22 22 22 22 22 22 23 24 26 27 26 27 28 31 31 30 29 29 29 30 32 32 30 30 29
31 27 24 25 26 26 23 26 27 25 27 28 27 27 26 24 21 20 20 20 20 20 20 21 22 24 23 22 22 24 24 26 27 30 29 28 28 28 29 28 27 29 28
23 25 29 29 27 26 24 24 27 25 24 23 21 23 24 20 18 18 19 19 19 20 20 19 19 16 17 19 20 21 21 21 23 23 26 31 28 27 26 27 27 29 26
24 24 25 27 26 25 26 28 25 23 22 22 21 20 18 18 16 17 18 18 18 19 18 18 14 14 15 18 18 18 19 20 21 22 21 25 28 28 26 27 28 29 27
23 28 26 26 26 26 25 25 26 26 25 25 22 21 19 16 16 17 17 17 18 18 17 16 13 15 16 16 16 16 17 17 18 19 19 21 23 24 29 28 28 26 27
25 26 27 27 24 23 25 24 24 24 23 23 22 23 19 18 15 15 18 20 16 16 16 15 14 15 15 15 15 16 15 16 15 16 17 20 20 20 21 28 28 28 26
20 21 21 21 22 21 22 22 21 22 21 21 21 21 20 16 14 11 14 15 13 15 14 14 14 14 14 15 14 14 14 13 13 14 14 17 17 17 17 20 24 28 26
17 17 19 18 19 19 20 20 19 19 19 19 19 18 11 13 11 12 17 14 16 15 9 13 15 11 12 12 12 11 11 11 11 12 13 12 13 13 15 17 19 27 26
17 17 17 18 18 19 17 16 17 17 16 16 16 15 13 13 15 15 13 11 14 11 13 12 11 11 11 11 10 9 9 8 10 12 10 10 10 11 12 14 16 18 27
17 18 17 16 17 16 16 17 17 16 15 14 13 13 14 13 13 13 13 12 12 13 10 8 8 10 10 8 10 10 9 9 9 9 7 7 8 8 8 10 14 15 17
17 17 14 15 17 15 15 16 14 13 14 13 13 12 12 11 11 11 10 12 9 7 8 6 10 6 6 8 11 10 9 9 10 10 10 6 4 6 8 9 10 13 16
18 17 16 15 15 15 14 14 13 13 12 11 10 10 9 9 9 9 8 7 8 4 7 5 3 5 9 6 6 6 8 12 6 4 4 4 4 4 6 9 10 13 15
15 15 14 14 14 13 12 11 10 10 10 9 9 6 8 7 6 5 6 3 4 5 1 3 4 2 2 4 7 10 7 6 6 6 6 5 5 6 7 8 9 11 12

GFSGL_sfc_dewp_081.txt.gz
Dewpoint
54 59 59 60 59 59 58 57 57 56 55 53 49 48 47 48 48 47 46 46 46 46 45 44 41 39 39 38 37 36 34 34 32 32 31 31 29 30 30 32 34 34 36
56 58 60 60 59 59 58 57 55 52 50 49 48 48 49 48 48 47 47 47 46 44 42 41 39 38 38 38 37 35 34 34 33 31 31 30 30 31 31 30 31 31 31
57 57 58 59 58 57 55 54 53 51 50 50 49 48 48 48 49 48 46 45 44 42 40 38 38 36 34 34 34 34 35 34 33 31 30 30 29 29 27 27 28 30 32
57 57 57 56 56 54 52 52 51 50 49 49 49 48 48 48 47 46 45 43 42 40 38 35 33 32 32 32 32 32 32 32 31 30 29 28 27 28 27 26 27 28 29
56 55 53 52 52 51 51 50 49 50 49 48 47 47 47 46 45 44 43 38 31 29 31 30 29 32 36 34 30 29 29 29 29 29 29 27 27 26 25 27 27 28 29
52 50 50 50 50 49 49 48 48 47 47 46 47 47 45 43 39 37 34 30 29 28 27 28 29 31 30 32 34 33 32 29 28 27 29 29 29 28 28 28 27 29 25
50 50 50 49 47 47 46 45 45 45 45 45 45 44 43 41 35 34 33 30 28 28 27 28 29 30 33 31 31 30 30 32 30 29 29 30 30 29 30 31 29 28 27
48 48 47 46 45 45 45 45 44 43 42 42 41 41 40 33 35 34 32 30 30 31 32 30 29 28 28 29 27 25 26 27 29 29 29 31 31 32 33 32 30 28 26
47 46 45 44 43 43 42 42 40 39 39 39 40 37 33 33 33 33 32 31 29 28 29 29 28 27 29 31 28 27 27 27 29 31 32 32 34 34 35 34 30 27 20
45 44 43 43 42 41 40 39 39 40 39 35 33 33 32 29 31 30 29 28 27 27 27 27 28 28 30 31 28 27 25 25 26 27 28 29 30 30 33 33 31 28 24
44 43 42 40 38 38 39 41 39 35 34 32 30 30 30 29 30 30 29 26 26 25 25 25 26 27 29 28 28 26 27 28 29 30 30 29 29 28 28 31 31 29 27
41 37 35 36 36 38 36 34 34 34 32 30 30 30 29 28 29 27 25 25 25 25 23 24 25 24 24 26 28 30 31 29 29 29 29 28 27 28 28 31 31 29 29
36 36 36 34 33 32 32 30 31 32 31 30 30 29 28 27 26 24 23 22 22 23 23 22 22 23 25 26 27 26 25 26 26 25 28 29 28 28 28 30 32 32 30
33 32 30 26 25 25 26 29 29 29 29 28 29 29 28 26 23 21 21 23 20 21 21 21 21 23 24 24 23 22 24 23 22 23 22 24 28 29 29 31 31 32 30
27 25 26 26 25 24 26 27 26 27 28 26 26 27 25 23 21 20 20 21 21 21 20 20 21 21 22 20 20 20 20 20 19 19 21 21 22 25 29 29 30 29 29
25 25 27 27 28 26 25 25 27 27 26 26 26 25 24 22 18 17 19 19 19 19 19 18 15 12 14 17 17 17 16 16 17 17 18 19 20 22 23 29 30 28 27
25 26 26 27 28 27 28 26 23 25 25 23 21 20 20 21 16 18 19 18 18 20 18 17 10 9 10 16 16 15 14 15 16 16 15 16 18 19 20 20 28 28 27
28 28 27 27 27 26 26 27 26 26 24 24 23 22 21 18 16 16 16 19 18 18 18 16 12 12 13 15 14 13 13 13 13 13 12 13 14 16 15 17 18 26 27
27 27 27 25 25 25 25 24 24 24 23 23 23 23 21 18 16 14 12 16 17 17 16 15 11 10 10 12 5 6 3 4 6 3 9 12 12 12 12 13 15 17 20
23 24 23 23 23 22 22 22 22 21 21 21 20 20 19 16 12 8 9 10 11 15 13 12 12 11 10 7 1 1 6 2 8 6 7 11 9 9 10 11 12 13 16
22 18 20 21 20 21 21 19 18 19 18 18 17 14 12 13 11 9 13 9 9 9 7 7 6 4 5 2 5 -2 -0 -3 2 6 9 7 7 6 8 10 10 12 16
19 19 19 20 19 17 16 17 17 16 16 15 13 15 12 9 8 10 10 5 -1 2 6 8 4 4 3 9 7 -5 -2 -1 -0 7 4 4 4 5 6 6 7 9 12
18 16 16 17 16 14 13 14 11 9 9 7 9 9 7 2 1 7 3 -4 4 6 6 1 -5 0 3 -2 -1 5 8 7 5 5 5 4 4 2 2 3 6 7 9
16 14 15 13 10 9 7 5 6 10 11 8 1 -2 -1 -4 -7 -6 -2 -2 -2 -2 -7 -5 -0 1 1 1 6 4 5 5 7 9 1 2 1 2 2 2 4 7 9
12 9 6 3 2 -1 -0 4 -2 -3 -2 -3 -4 -4 -2 -7 -1 -5 -8 -8 -6 -11 -3 -5 -6 -2 -1 -3 -2 -0 3 8 5 4 6 5 3 -1 -0 1 4 7 8
10 7 5 7 6 2 4 -1 -4 -7 -7 -2 -6 -10 -7 -3 -5 -11 -8 -7 -2 -6 -8 -6 -6 -6 -4 -1 2 5 3 3 5 6 7 7 5 3 2 3 5 5 6

GFSGL_sfc_dewp_084.txt.gz
Dewpoint
50 55 57 58 59 58 58 57 57 56 55 55 53 51 49 48 48 48 48 47 46 45 46 46 45 44 43 40 39 37 35 34 32 32 33 32 30 30 31 32 34 34 35
54 54 56 58 59 58 57 57 57 56 55 53 52 50 48 48 48 48 46 46 45 45 46 45 44 42 40 38 37 36 35 35 33 32 32 31 30 31 31 30 30 32 32
55 56 57 58 58 57 58 57 56 54 52 52 50 50 48 48 48 47 47 47 46 45 44 43 41 39 37 35 34 34 34 34 34 31 31 31 30 29 28 28 28 28 29
55 56 56 58 58 58 57 57 56 53 51 50 51 49 49 48 48 48 47 46 46 44 43 40 38 35 32 31 31 31 31 31 30 29 28 28 28 28 27 27 26 27 27
55 56 55 55 56 55 54 54 52 51 51 50 49 49 49 48 48 47 46 45 42 38 35 31 30 32 35 32 29 28 28 27 27 26 27 26 26 26 26 27 27 27 28
55 53 52 51 52 52 51 50 50 50 49 49 48 47 47 47 42 43 42 40 35 30 28 28 28 31 34 34 33 32 29 26 25 25 26 26 26 27 27 28 30 30 29
51 50 50 50 48 48 48 48 47 47 47 47 47 46 46 44 40 39 35 31 29 28 27 29 30 28 30 28 29 29 28 30 29 27 26 26 26 27 27 29 30 29 28
50 49 48 48 47 47 46 46 46 46 46 45 45 44 44 39 36 35 33 30 32 32 30 29 28 26 27 29 28 27 27 27 28 27 27 27 28 29 29 30 30 31 32
48 48 48 47 46 46 45 44 45 45 44 44 43 40 36 35 34 34 33 31 28 28 28 28 27 26 29 30 28 27 26 25 27 30 31 31 31 32 32 31 29 25 25
47 46 45 45 45 44 43 43 42 41 38 36 34 34 32 31 33 32 29 28 27 25 25 26 27 27 28 29 26 26 25 26 26 27 28 29 31 30 30 30 30 26 25
45 44 44 44 43 43 43 42 40 36 33 32 31 31 30 30 31 30 28 26 26 25 24 24 25 25 24 24 26 27 28 28 28 27 25 27 28 29 29 29 28 28 28
43 42 42 40 38 39 38 37 35 33 31 30 30 29 29 28 28 27 26 26 24 24 22 23 24 22 23 25 27 25 23 26 25 24 23 23 24 25 30 29 28 30 32
37 37 37 35 33 34 35 34 34 32 30 30 29 28 26 26 25 24 23 22 22 22 21 21 21 22 23 25 22 20 24 22 21 19 20 19 22 23 25 29 30 30 31
29 27 27 28 28 28 28 29 30 30 30 30 30 28 26 24 23 23 22 23 20 20 22 21 22 23 24 23 22 22 23 21 20 18 17 20 19 20 21 23 25 29 29
26 25 25 26 27 26 25 26 26 28 29 28 27 28 24 23 23 21 21 21 22 22 21 21 21 21 19 18 19 19 18 17 16 16 17 14 15 16 18 19 21 22 28
25 26 28 28 26 26 26 26 28 28 27 27 27 26 25 24 19 19 20 20 19 19 21 19 16 14 15 17 16 16 15 15 14 15 13 13 12 13 15 15 17 19 23
26 27 28 29 29 29 28 27 26 28 28 28 26 22 22 21 20 22 21 19 19 18 18 17 13 12 12 16 15 14 12 13 15 13 11 10 12 12 12 12 14 15 16
28 28 27 27 27 27 26 26 26 26 24 25 26 26 26 22 21 18 16 15 19 19 18 17 14 13 14 14 13 12 11 8 7 10 6 5 9 10 8 8 10 11 13
27 26 25 25 25 25 25 25 25 24 24 23 23 23 23 21 19 14 13 16 16 16 15 13 13 12 10 10 -0 -3 -7 -6 -5 -9 -1 1 3 7 5 6 7 8 11
24 24 24 25 24 24 23 22 21 20 20 19 19 19 18 17 13 11 10 7 8 11 10 12 12 10 3 3 -6 -8 -8 -8 -5 -3 -5 -1 -6 1 3 4 6 6 7
21 20 21 21 20 18 17 17 17 17 17 16 15 14 14 13 12 11 12 9 10 10 6 9 6 1 2 -1 5 -5 -5 -10 -4 -1 1 1 -10 0 4 5 3 4 7
17 17 17 17 16 14 15 17 14 13 13 12 11 14 11 9 8 7 7 3 2 7 9 7 5 4 5 2 0 -10 -6 -6 -2 -5 -5 -2 3 3 2 0 0 2 6
15 14 14 14 14 11 9 11 8 8 10 8 8 8 6 -2 -4 1 3 -2 3 0 -0 1 -2 -0 -1 -6 -7 1 2 0 1 -3 3 -2 1 1 -4 -1 -0 1 3
12 10 11 8 6 4 -0 -1 1 5 4 -0 -4 -1 -3 -7 -12 -11 -11 -12 -11 -14 -13 -13 -8 -5 -3 -8 -10 -5 1 -0 5 7 3 3 2 2 1 1 0 -1 3
7 5 3 3 2 -0 -4 -2 -3 -5 -3 -3 -3 -2 -0 -8 -7 -14 -16 -16 -12 -15 -13 -11 -11 -8 -7 -8 -7 -5 -3 3 2 2 4 4 3 2 1 -0 -2 -1 3
5 3 0 -3 -3 -2 -3 -6 -5 -4 1 1 -1 -4 -6 -4 -4 -16 -13 -12 -13 -12 -11 -11 -10 -9 -8 -5 -3 0 -1 -1 1 -1 1 1 0 1 2 1 0 2 3

GFSGL_sfc_dewp_087.txt.gz
Dewpoint
50 52 53 55 56 57 57 56 56 57 56 55 55 55 52 51 50 49 48 48 47 47 47 46 45 45 44 43 42 40 37 35 32 32 33 32 31 31 32 32 33 33 34
52 53 53 56 57 57 57 57 57 56 56 55 54 53 52 51 50 49 48 47 48 46 46 45 44 45 43 43 41 39 37 35 33 31 32 32 31 32 32 31 31 30 32
53 54 53 54 56 57 57 56 56 56 55 54 54 53 51 51 50 49 48 48 47 46 45 45 45 44 42 40 38 37 35 34 33 31 30 30 30 30 28 28 28 28 28
53 53 53 53 56 57 57 56 56 56 56 55 53 52 51 50 50 48 48 47 47 46 46 45 44 42 41 37 33 32 31 30 29 28 27 27 28 28 28 27 27 27 27
53 53 53 54 56 56 56 56 57 57 56 53 52 51 51 49 49 48 47 47 46 45 43 41 40 38 36 32 29 27 28 27 27 26 25 25 25 26 26 27 27 28 28
54 54 53 53 55 55 54 54 52 51 52 52 51 50 49 49 43 43 45 45 44 41 37 33 32 35 34 33 33 32 28 25 24 24 24 25 24 25 26 26 26 26 24
53 52 51 51 50 50 50 50 50 49 50 49 49 49 48 48 44 42 39 40 37 35 33 31 29 28 30 28 29 28 28 29 28 26 25 25 24 25 26 26 25 26 27
50 50 50 50 49 49 48 48 48 48 48 47 47 47 45 44 40 38 36 35 34 32 31 30 28 27 30 30 28 27 27 28 28 27 27 26 26 27 28 28 28 29 29
49 49 49 48 47 47 46 46 46 46 45 45 45 43 41 38 35 35 33 32 29 28 28 28 27 27 27 27 26 25 25 25 26 28 29 30 31 32 32 31 28 28 25
48 47 47 46 46 45 45 45 45 44 42 40 37 36 35 34 34 33 32 30 28 26 25 25 26 25 26 25 25 26 25 25 28 28 28 28 29 30 31 31 30 26 26
46 45 44 45 44 44 43 42 38 36 34 32 31 31 31 31 31 31 29 28 27 26 24 23 24 22 22 23 25 27 26 25 25 25 25 25 25 25 26 29 31 30 27
44 44 42 41 41 40 38 36 34 33 31 30 29 28 29 30 30 30 29 25 24 25 21 22 22 21 22 25 26 21 22 24 23 22 21 21 20 21 22 22 24 28 32
34 32 31 31 32 34 35 34 32 32 31 30 28 27 26 27 27 27 24 22 21 21 21 20 21 21 23 26 20 20 22 22 20 19 17 16 18 18 19 21 22 23 24
29 29 29 28 28 28 29 30 30 31 31 30 29 27 26 25 25 24 22 23 22 22 22 21 22 23 24 23 21 21 20 19 18 16 15 17 15 16 15 17 18 17 20
26 26 26 24 25 26 26 27 28 30 31 30 29 28 25 24 24 24 23 23 23 22 23 22 21 20 18 18 17 16 16 14 14 15 15 12 12 12 12 15 14 14 16
27 27 27 28 29 28 27 27 30 29 29 28 28 26 27 26 25 25 25 24 22 20 21 19 17 16 16 16 16 15 14 13 13 13 12 10 9 10 10 10 11 12 11
29 29 29 29 29 29 28 28 26 28 29 29 28 27 26 25 25 25 24 22 23 23 20 19 14 14 14 16 15 13 12 13 12 11 9 7 8 9 8 7 8 8 8
26 26 26 26 26 25 25 25 25 24 24 25 28 27 27 25 24 22 20 19 18 20 19 17 14 14 13 12 11 11 10 6 3 7 2 0 0 6 4 4 4 4 6
25 25 25 24 24 24 24 23 22 22 21 21 22 21 21 22 21 19 18 16 15 14 14 13 13 12 11 10 2 -3 -11 -10 -9 -12 -6 -5 -6 1 2 3 3 3 3
23 23 23 22 21 19 18 17 18 17 17 16 15 15 17 15 12 11 11 9 9 10 10 11 11 9 1 -1 -10 -10 -13 -12 -7 -7 -5 -12 -13 -8 -1 0 1 1 1
18 17 17 16 14 15 16 14 14 14 13 13 13 12 12 11 10 9 9 8 6 4 4 6 5 -1 1 2 3 -6 -8 -13 -7 -1 -3 -3 -10 -8 -1 2 1 0 1
16 15 15 14 13 12 13 11 9 8 9 9 10 10 7 3 4 4 3 -4 -7 4 5 4 2 4 4 2 1 -8 -5 -6 -8 -4 -6 -5 -1 -1 -1 -0 -2 -2 -1
12 11 11 10 10 7 5 7 4 3 1 -2 1 2 -1 -10 -11 -5 -8 -13 -8 -11 -6 -5 -8 -5 -3 -7 -9 -7 -8 -4 -3 -1 -1 -0 -0 -1 -7 -3 -3 -2 -2
9 8 7 5 2 1 -2 -4 -3 -1 0 -1 -4 -2 -3 -4 -8 -6 -12 -18 -17 -16 -17 -13 -10 -8 -6 -10 -11 -8 -3 -1 1 3 1 0 -0 0 1 0 -1 -1 -3
4 2 0 -2 -4 -10 -10 -9 -11 -12 -10 -8 -7 -6 -1 -6 -3 -12 -12 -13 -11 -18 -13 -13 -12 -10 -10 -10 -9 -8 -6 -1 -2 -3 -1 0 -1 -4 -3 -1 -1 -2 -4
1 -1 -3 -4 -8 -11 -14 -17 -16 -13 -12 -10 -9 -7 -8 -9 -9 -17 -13 -12 -12 -11 -12 -12 -11 -11 -11 -9 -7 -3 -5 -5 -6 -5 -3 -2 -3 -4 -2 -1 -1 -1 -1

GFSGL_sfc_dewp_090.txt.gz
Dewpoint
50 50 50 50 51 51 52 52 54 55 55 55 55 55 54 52 52 51 50 50 50 49 48 48 47 47 46 45 43 42 38 38 36 35 34 34 34 34 34 35 35 35 35
51 50 51 51 52 52 53 53 54 55 55 55 55 55 55 53 52 52 51 51 49 48 48 48 47 46 45 44 43 41 40 38 35 34 34 33 33 34 34 33 32 30 33
51 50 51 52 53 53 54 55 56 56 56 55 56 56 55 54 53 53 53 52 50 49 48 48 47 45 44 44 43 41 39 37 36 34 33 32 32 32 30 30 30 31 28
50 50 51 52 53 54 55 56 56 56 56 56 55 55 54 53 53 52 51 50 50 50 49 47 46 45 44 43 41 39 37 35 32 30 29 29 29 30 29 29 28 29 28
50 50 50 51 53 53 54 55 55 56 57 56 56 55 53 52 52 51 50 49 48 47 46 45 44 43 41 40 37 35 33 29 28 28 27 27 27 27 27 28 27 27 28
52 50 51 52 52 52 53 54 56 56 56 56 53 52 51 52 46 44 47 48 47 45 41 39 38 38 36 35 34 32 31 29 27 26 26 25 25 26 27 27 26 26 25
52 51 51 52 52 54 53 54 54 53 52 52 52 51 51 51 43 43 42 46 44 40 36 35 34 33 32 30 30 29 28 29 27 27 26 25 25 26 26 26 26 26 25
51 51 51 51 50 50 51 51 49 49 49 48 47 46 45 42 39 38 38 39 37 36 36 34 31 29 30 29 28 27 27 26 26 26 27 26 27 28 28 28 28 29 28
50 50 50 50 48 48 47 46 46 46 45 44 43 41 39 37 36 36 35 34 32 31 30 29 28 28 29 29 26 25 24 25 27 28 29 30 30 31 31 31 28 29 26
48 47 48 47 47 45 46 45 45 43 40 38 36 36 35 34 34 34 32 30 27 27 28 28 29 28 27 25 25 25 25 25 25 25 24 24 25 27 27 29 30 28 26
46 45 45 44 44 43 41 40 38 35 33 31 30 30 31 31 32 33 32 30 29 28 27 24 23 23 24 25 26 27 25 23 21 21 20 21 23 21 23 23 22 24 23
39 38 38 38 38 37 36 35 34 32 30 30 29 28 28 29 30 30 30 29 29 27 25 23 24 24 25 27 27 23 21 21 21 19 18 17 16 17 18 19 20 23 24
34 33 33 33 33 34 33 33 32 31 30 29 28 26 26 26 27 28 28 26 25 24 24 24 24 24 25 26 22 21 22 20 18 17 15 14 15 15 14 15 16 18 18
30 30 29 28 29 30 30 31 31 31 30 29 28 26 26 25 25 25 25 25 26 25 24 24 23 24 26 23 23 22 20 19 17 16 14 15 12 12 11 12 13 14 14
25 25 26 28 28 28 28 29 28 29 31 29 28 28 26 24 24 26 25 24 24 24 24 23 23 23 22 21 20 20 19 18 17 16 13 11 10 8 8 10 10 9 10
28 29 30 30 29 27 27 27 30 30 30 29 29 27 27 27 27 27 26 26 26 25 22 20 19 18 17 18 17 17 16 15 13 12 11 10 7 7 7 8 7 7 7
28 28 27 27 27 26 26 26 24 27 28 28 28 27 26 26 26 25 24 23 23 22 20 19 16 15 15 16 15 14 12 12 10 9 9 7 6 6 6 4 4 4 4
24 25 24 24 23 23 22 23 23 22 21 22 23 24 25 23 22 21 20 18 17 18 16 14 13 13 13 12 11 9 9 7 4 5 5 3 0 5 3 2 3 3 2
23 22 22 21 19 19 19 18 19 18 17 17 16 16 17 19 18 17 15 12 11 10 11 11 12 11 9 9 5 -0 -2 -1 -3 -7 -2 -2 -2 2 1 1 2 1 1
17 17 16 16 16 15 14 14 14 14 13 11 10 10 11 9 7 6 6 1 4 6 5 7 7 6 3 4 1 -2 -1 -3 -3 -3 -2 -1 -2 -2 -1 -1 0 1 0
15 14 14 14 13 12 11 10 9 8 9 9 7 6 4 4 0 -1 0 -3 -1 1 -1 3 4 3 4 4 3 -1 -3 -9 -6 -2 0 0 -3 -3 -1 0 1 1 0
13 12 11 10 8 8 8 7 5 4 4 4 3 5 -1 -7 -2 -1 -1 -7 -12 -6 -2 -3 -5 -2 -1 -2 -3 -6 -7 -8 -7 -5 -5 -3 -1 1 -0 -0 -1 -1 -1
9 7 6 5 5 1 -0 1 -2 -2 -2 -5 -2 -1 -2 -8 -7 -4 -8 -15 -10 -10 -9 -8 -11 -7 -6 -8 -9 -8 -8 -6 -4 -2 -2 -1 -1 -0 -1 -2 -2 -2 -2
5 4 3 -1 -2 -4 -9 -11 -8 -6 -5 -9 -12 -8 -6 -6 -14 -17 -18 -17 -13 -14 -15 -16 -12 -10 -8 -9 -10 -8 -5 -3 -1 0 0 -2 -2 -1 -1 -1 -1 -1 -1
0 -2 -4 -8 -9 -15 -14 -12 -16 -20 -18 -18 -18 -18 -11 -15 -10 -16 -16 -14 -13 -15 -12 -13 -12 -11 -11 -12 -11 -10 -8 -3 -2 -2 -2 -2 -3 -4 -4 -4 -3 -1 -1
-2 -5 -8 -9 -13 -15 -20 -24 -26 -24 -23 -22 -22 -22 -21 -16 -13 -19 -16 -14 -12 -12 -13 -11 -12 -13 -13 -11 -9 -4 -4 -4 -4 -3 -3 -4 -4 -4 -4 -4 -3 -2 -1

GFSGL_sfc_dewp_093.txt.gz
Dewpoint
53 53 53 52 52 53 53 53 53 54 54 54 55 56 56 57 57 56 56 55 52 52 51 51 50 50 49 48 48 46 44 44 44 42 40 39 36 37 35 38 39 38 38
53 53 53 54 53 53 54 53 54 54 56 56 55 55 56 56 56 54 53 54 52 52 51 50 50 50 48 48 49 45 45 42 40 41 38 35 36 38 39 39 36 32 34
53 53 53 54 53 53 53 54 54 54 54 54 55 56 56 56 55 56 55 54 52 52 52 50 50 49 48 48 48 48 46 41 41 39 37 36 37 36 36 35 34 34 31
52 52 52 53 53 53 54 54 55 55 54 55 56 56 57 57 56 56 54 54 53 53 54 52 50 50 48 49 47 45 43 40 38 36 35 34 34 34 32 31 30 31 30
52 53 53 53 54 54 55 55 55 56 57 57 58 58 57 57 56 55 54 54 53 52 51 50 49 49 47 46 45 42 40 37 35 33 32 32 33 30 30 29 28 27 26
52 52 52 52 52 54 55 56 56 57 57 58 57 57 56 55 48 45 48 52 51 50 47 42 42 41 39 37 37 37 37 35 33 32 34 32 33 31 30 28 26 24 20
52 51 51 51 51 53 54 55 55 56 57 57 56 55 54 51 44 43 41 47 45 41 38 38 36 35 35 34 33 32 32 32 31 34 34 32 32 29 26 25 23 23 22
53 53 53 53 53 54 54 55 53 51 50 48 46 45 42 38 38 39 38 39 37 36 36 34 33 32 33 32 32 31 31 32 32 31 31 27 27 28 29 28 27 28 28
52 52 52 52 51 49 48 47 47 45 42 41 40 38 36 35 35 35 35 33 31 31 31 31 31 31 31 32 30 29 28 28 30 30 30 30 29 29 29 29 28 26 25
47 48 48 48 47 46 45 43 40 38 36 35 33 33 34 33 34 33 31 30 29 28 28 28 29 28 29 28 27 26 25 26 26 26 26 25 25 25 24 25 26 25 23
45 45 44 44 42 41 40 38 36 34 32 31 30 30 31 31 32 32 31 30 29 27 26 25 26 28 28 27 28 28 28 27 24 21 21 21 22 20 22 24 22 22 22
39 39 38 38 37 37 36 34 33 32 30 29 28 28 29 29 30 30 30 30 30 28 26 26 26 27 27 28 28 26 25 25 25 21 19 21 21 21 22 18 18 20 19
34 32 32 32 32 33 33 32 31 30 29 28 27 26 26 26 27 29 28 27 27 26 26 25 25 26 26 28 27 25 22 23 23 22 20 20 20 19 17 17 16 14 15
31 31 30 30 30 30 29 30 31 31 30 29 28 26 26 25 25 26 26 27 27 26 25 25 25 25 26 26 25 24 24 22 20 20 18 18 17 16 13 11 11 12 12
30 29 29 28 28 28 28 28 27 29 30 29 29 29 28 26 26 27 26 25 25 24 24 23 23 21 22 23 22 21 21 20 18 18 16 15 13 10 9 10 10 9 10
30 29 30 29 28 27 27 27 28 27 27 27 27 27 27 27 26 24 23 22 22 22 21 20 20 20 18 17 18 18 16 15 14 13 13 11 10 9 8 9 9 9 9
27 26 26 26 26 26 26 25 23 24 24 25 26 24 23 23 21 20 19 19 18 17 17 16 17 17 16 15 15 14 13 14 11 9 9 9 8 7 7 7 7 7 6
24 25 24 23 23 23 23 22 22 21 20 19 19 19 19 18 17 16 14 12 12 11 11 12 13 13 11 9 9 9 8 8 8 7 7 7 7 7 6 5 5 6 5
21 20 20 20 20 19 18 17 17 16 15 13 12 12 12 12 12 11 11 10 8 7 6 6 8 7 7 6 8 7 7 7 6 6 6 5 6 5 4 3 4 3 3
17 17 16 15 14 14 14 13 13 12 11 10 9 9 9 8 9 9 8 8 7 5 5 3 3 4 5 4 5 6 5 4 3 3 4 4 5 5 3 3 4 4 3
12 12 12 11 10 10 10 10 9 10 9 8 8 7 5 6 6 5 5 5 3 3 3 2 3 3 2 2 1 2 1 2 1 1 2 2 3 3 3 4 4 3 3
10 9 9 9 8 8 7 7 7 6 5 5 5 5 2 5 4 3 3 2 3 2 2 1 0 -0 -0 -1 -1 -1 -2 -2 -1 0 0 0 1 2 3 3 3 3 3
8 7 6 5 5 4 5 4 4 4 3 3 2 2 2 2 1 0 0 0 -0 -0 -0 -1 -1 -3 -2 -2 -2 -2 -3 -3 -1 -0 -0 0 0 1 2 2 2 2 2
7 5 2 3 3 2 2 2 2 -2 -1 -0 0 -0 -1 -2 -1 -2 -3 -3 -3 -2 -3 -4 -4 -6 -6 -5 -3 -2 -3 -1 -0 -0 0 -0 -0 -0 1 1 1 1 2
4 3 2 1 1 0 -0 -1 -2 -2 -2 -3 -3 -4 -5 -4 -4 -4 -5 -6 -6 -6 -7 -6 -6 -7 -7 -8 -7 -6 -4 -3 -2 -2 -1 -0 -1 -1 -1 -0 0 1 2
1 0 0 -0 -1 -2 -2 -3 -4 -5 -5 -5 -5 -6 -6 -7 -7 -7 -7 -8 -9 -9 -8 -7 -7 -8 -8 -6 -5 -3 -4 -4 -3 -3 -1 -1 -1 -1 0 0 0 2 2

GFSGL_sfc_dewp_096.txt.gz
Dewpoint
54 55 55 54 54 54 53 53 53 54 53 53 53 54 54 54 54 56 56 55 55 56 57 58 57 56 55 54 52 51 49 49 47 49 51 48 45 43 38 38 39 40 40
53 54 54 55 54 54 54 53 54 53 54 54 54 53 53 53 55 56 56 55 56 56 56 55 54 53 53 53 51 50 49 49 48 47 49 42 43 41 39 40 37 35 38
53 54 54 55 54 54 54 54 54 54 54 54 54 54 54 54 54 55 57 56 55 56 56 55 54 52 51 51 51 49 50 49 48 47 47 41 40 40 39 40 40 40 35
53 53 54 54 54 54 55 55 55 55 54 54 54 54 54 54 53 54 56 56 57 57 57 54 54 53 51 51 50 49 49 48 47 44 41 37 37 39 39 38 38 40 39
53 53 53 54 54 55 55 55 55 54 54 53 54 54 55 55 56 56 57 57 56 55 54 53 54 51 47 47 49 49 47 43 39 38 36 35 36 35 35 38 37 38 37
52 53 53 54 53 54 54 54 54 54 54 55 55 56 56 57 49 46 50 55 53 51 50 43 40 40 38 37 36 35 38 38 35 35 34 34 33 33 34 35 35 36 33
54 53 53 53 53 53 53 54 54 55 56 56 56 54 47 41 39 43 41 46 42 40 38 38 36 35 35 34 34 33 33 33 32 35 34 33 33 34 35 35 33 29 26
53 52 53 53 53 52 53 53 54 52 49 46 43 40 38 36 37 37 36 36 34 34 34 33 32 32 33 33 32 31 31 31 32 33 34 34 34 32 31 30 30 31 30
53 53 53 54 53 51 49 48 45 42 38 37 36 36 34 34 34 34 33 31 30 29 30 30 29 29 31 32 30 30 30 30 33 33 32 32 32 31 31 32 30 28 27
48 48 47 47 46 43 41 39 37 36 34 33 32 33 33 33 33 33 31 30 28 27 27 28 28 28 29 29 30 30 28 29 30 30 30 28 27 26 24 25 26 27 27
42 41 40 40 38 38 36 35 34 32 31 30 29 30 30 31 32 32 31 30 29 28 26 25 26 28 28 28 29 31 30 30 28 25 25 25 27 27 25 27 28 27 24
36 36 36 36 34 34 34 33 31 31 29 29 29 28 28 29 29 30 29 29 29 29 28 29 28 27 26 28 28 27 25 26 28 27 25 25 25 25 26 26 25 25 25
35 34 33 33 32 33 32 32 31 30 29 28 27 26 26 27 27 28 28 27 27 28 27 25 25 25 26 28 26 24 24 26 25 24 24 22 22 22 20 21 20 20 20
33 33 32 31 30 29 29 30 31 30 29 28 27 27 28 27 27 27 27 27 25 25 25 24 25 26 26 25 26 25 24 23 20 20 21 18 19 18 16 15 15 14 15
31 31 30 29 28 27 27 28 27 29 30 30 29 29 27 25 25 24 23 23 24 23 25 24 22 20 20 20 20 22 21 18 18 19 17 16 15 14 13 13 12 11 12
31 30 31 30 29 27 25 25 27 26 26 25 26 25 24 22 21 20 20 18 18 18 20 19 20 20 19 17 18 18 17 17 17 12 14 13 12 12 11 10 9 11 11
29 29 29 29 29 27 25 24 21 22 22 22 21 20 19 18 17 16 15 15 14 15 16 15 16 17 15 12 11 12 11 11 10 11 11 10 10 9 9 9 8 10 9
27 27 27 26 26 25 25 24 23 22 20 18 16 15 15 14 13 13 12 10 11 9 9 10 11 10 9 6 6 7 7 8 8 8 8 8 9 8 8 7 7 8 7
25 24 24 24 23 22 21 20 19 18 17 15 13 13 11 10 10 10 10 11 9 7 5 5 7 7 6 5 8 8 9 8 7 7 7 7 8 6 6 6 5 5 6
18 19 18 18 18 17 16 15 14 14 13 12 10 9 10 9 12 11 11 10 9 7 7 5 5 5 6 6 7 7 7 6 5 5 6 6 7 6 5 5 5 5 4
12 12 13 12 12 13 13 13 12 12 11 10 9 8 5 9 9 8 8 8 7 6 7 6 6 6 6 5 4 5 4 5 4 3 4 4 5 4 4 6 6 5 4
11 11 11 12 11 12 10 10 10 9 8 7 8 6 3 9 7 6 6 7 7 6 6 5 5 4 4 3 3 4 2 3 3 3 3 2 3 4 5 5 5 5 5
11 11 9 8 9 8 10 8 9 9 8 7 6 6 6 7 6 5 5 6 5 4 5 3 4 2 3 3 3 2 2 2 3 3 2 3 3 3 4 4 4 4 4
10 10 7 9 9 9 9 9 6 2 4 6 7 6 5 5 5 4 4 4 2 3 3 2 0 -1 -1 -0 2 2 1 3 3 2 2 3 2 2 4 3 3 3 4
10 9 9 8 8 8 7 6 6 6 6 6 6 5 3 3 2 3 2 1 -1 -0 -1 -1 1 -1 -1 -2 -1 -0 1 -0 0 0 1 2 2 2 2 3 3 4 4
7 7 7 7 7 7 6 6 5 5 4 4 4 3 3 1 1 1 -0 -1 -3 -3 -2 0 -0 -1 -1 0 1 1 -1 -2 -1 -2 0 1 2 3 3 4 3 4 4

GFSGL_sfc_dewp_099.txt.gz
Dewpoint
54 55 56 54 54 54 55 56 56 56 55 54 55 55 55 56 56 57 57 57 56 56 57 57 57 57 58 58 57 56 54 52 50 51 52 52 49 48 48 48 47 45 43
54 54 55 55 54 54 55 55 56 56 56 55 54 53 54 54 56 56 56 55 56 56 56 57 57 56 56 56 57 54 54 53 50 48 50 50 51 51 51 47 45 41 41
52 54 54 55 55 54 55 56 56 56 55 55 54 55 54 55 55 56 56 56 56 56 57 57 56 55 55 56 55 53 53 52 51 49 48 49 50 45 46 43 44 41 39
52 52 53 54 55 55 55 55 57 56 54 54 55 55 56 54 53 54 53 55 56 56 57 56 56 56 55 54 54 52 51 50 49 48 47 42 38 39 39 38 39 41 41
52 52 53 54 55 55 55 56 55 55 54 54 54 54 54 53 52 54 53 54 55 56 56 52 41 40 38 38 44 47 48 47 46 43 36 36 36 35 36 38 36 36 39
53 53 53 54 54 55 55 56 55 55 54 54 54 54 55 49 38 41 48 53 47 45 42 38 37 36 35 34 34 34 33 36 37 36 34 34 33 34 34 34 33 33 33
53 52 53 53 53 54 54 54 54 55 55 49 45 43 39 39 38 38 38 38 36 36 35 34 33 34 34 33 32 32 32 32 31 34 32 32 32 32 34 34 34 34 34
52 52 52 53 53 53 53 51 47 44 41 39 37 36 35 35 35 35 34 33 32 32 31 31 31 32 33 32 31 31 31 31 32 33 33 34 34 35 34 34 34 34 34
52 52 52 53 52 49 45 42 39 37 35 35 35 34 33 33 34 33 32 30 29 29 30 30 29 29 30 31 31 30 30 30 32 32 32 32 32 32 32 32 31 31 29
48 47 46 45 42 39 37 36 34 34 33 32 32 32 33 32 33 33 31 30 29 28 28 28 28 28 28 28 30 30 30 30 30 30 31 30 29 30 28 28 28 26 26
41 39 38 37 36 35 34 33 32 31 30 30 29 30 30 30 30 31 31 31 30 28 27 26 26 27 27 28 28 27 27 27 28 27 27 27 28 29 29 29 29 28 24
36 36 35 35 34 33 32 32 31 30 29 28 28 28 28 29 28 28 28 29 30 30 28 27 26 26 27 27 27 25 24 26 27 25 24 24 25 24 26 21 22 23 23
34 33 33 33 32 32 31 31 30 29 29 29 28 28 28 29 30 29 27 27 27 26 26 25 24 25 26 27 24 23 25 24 23 21 20 21 20 20 18 18 19 18 18
32 31 31 30 29 29 29 30 31 30 30 29 29 28 27 25 25 26 25 25 25 24 26 25 25 24 26 26 23 24 26 23 20 22 19 16 16 16 15 15 16 15 17
31 30 29 28 27 27 27 27 26 28 30 28 27 27 25 23 23 21 20 20 21 20 23 21 20 18 17 16 17 17 17 17 17 15 13 13 12 10 11 14 13 11 12
31 30 30 29 27 24 23 24 25 24 23 24 23 23 20 19 18 18 17 16 16 16 18 17 18 17 15 12 12 11 11 10 10 8 12 11 10 10 10 10 11 13 12
31 30 30 30 28 26 23 21 19 20 20 19 19 18 17 15 15 14 13 12 12 12 14 14 14 14 12 9 8 8 8 9 8 8 9 9 9 8 11 8 9 10 9
32 31 30 29 28 28 27 26 24 21 19 16 15 14 13 12 13 13 12 11 10 9 8 10 11 10 8 5 6 6 7 8 9 7 8 9 9 9 8 7 7 9 7
29 27 27 27 26 25 24 22 20 19 16 14 13 13 12 11 12 12 11 12 10 8 6 6 8 7 7 6 9 9 9 9 8 8 7 8 8 7 6 5 6 6 7
21 23 22 22 21 18 17 16 15 15 14 12 10 10 12 12 13 13 12 12 11 8 8 6 6 7 8 7 9 8 7 7 6 5 6 7 8 7 5 6 7 7 6
14 14 17 14 14 15 15 15 14 14 13 11 9 8 7 11 11 11 10 10 9 8 8 7 7 7 7 7 5 6 5 5 4 4 5 5 6 6 5 6 7 7 6
14 14 14 15 14 15 13 12 13 12 11 10 11 8 7 11 10 9 9 9 9 8 7 7 6 5 5 4 4 5 4 4 5 5 4 4 4 5 6 6 6 7 6
13 13 11 11 12 12 13 12 13 12 11 11 9 9 9 10 9 8 8 8 6 6 6 5 5 3 4 4 4 4 4 4 4 5 3 3 3 4 5 5 6 5 5
13 13 11 13 13 12 13 11 9 6 9 10 11 10 9 8 8 7 7 6 5 5 5 4 3 2 2 3 4 4 3 4 4 3 3 3 2 2 5 4 4 5 6
15 14 13 12 12 12 11 10 11 11 10 9 9 9 6 7 5 6 6 4 3 3 2 3 4 3 2 2 2 3 5 4 2 1 1 2 2 2 3 5 5 5 6
12 12 12 12 12 12 11 10 9 9 8 7 7 7 6 5 4 4 4 2 0 -0 1 3 3 2 2 3 3 4 1 1 2 2 3 2 2 3 5 5 3 4 4

GFSGL_sfc_dewp_102.txt.gz
Dewpoint
56 56 56 55 55 54 54 56 56 56 56 56 56 56 55 54 55 55 54 54 54 54 56 56 56 56 57 57 57 57 55 54 51 52 52 53 53 51 50 49 49 49 50
56 55 54 55 55 54 55 53 54 56 56 55 56 55 55 54 54 54 55 54 55 55 55 56 55 55 56 56 56 56 56 54 53 52 53 52 51 51 50 49 49 48 48
54 56 55 55 55 55 55 56 56 56 55 54 55 54 54 54 54 55 55 55 54 54 55 54 54 55 55 54 55 55 55 55 53 52 51 51 49 45 46 45 44 45 43
54 54 55 55 55 55 55 55 56 56 56 55 55 55 55 54 54 54 53 54 54 55 54 46 41 40 40 42 47 47 49 50 51 49 48 47 40 40 39 39 39 40 41
52 54 55 56 56 56 56 56 56 56 55 55 55 55 55 55 50 49 54 54 51 45 41 38 38 37 36 35 37 36 38 41 41 40 37 35 35 35 35 36 36 35 36
52 53 54 56 56 56 56 56 56 56 56 56 54 49 43 41 38 41 45 42 41 39 37 36 36 36 34 34 33 33 33 34 34 34 33 33 32 32 33 32 32 32 32
53 53 53 54 54 55 56 56 56 53 46 42 40 39 37 36 36 37 37 36 35 34 34 34 33 33 34 33 33 32 32 33 31 33 31 31 31 32 32 32 32 32 32
54 53 53 54 54 54 53 45 42 40 38 36 35 35 34 34 34 34 33 32 32 32 32 31 30 30 32 33 32 31 30 31 31 32 31 31 32 32 32 32 31 31 32
53 53 53 54 48 43 40 38 37 36 35 34 34 33 32 33 33 33 31 30 29 29 30 30 29 28 29 31 31 30 30 30 31 31 31 31 31 31 30 29 27 25 24
47 46 43 42 40 37 36 35 34 33 32 32 31 32 32 32 33 33 31 30 29 28 28 28 28 27 29 30 27 26 24 25 29 27 28 28 29 29 30 29 28 23 23
39 38 37 36 35 36 34 32 32 31 30 29 29 29 29 29 31 32 32 30 30 29 28 25 26 28 27 27 25 25 25 26 27 25 25 25 27 26 25 23 23 23 20
37 35 34 34 33 32 32 31 30 30 29 28 28 27 28 28 28 28 28 29 28 26 25 25 26 28 26 25 25 25 25 25 22 22 22 22 20 20 20 20 21 21 21
34 35 33 32 32 32 31 30 30 29 29 28 28 27 28 29 27 27 27 27 28 26 26 26 26 25 25 26 25 24 22 21 20 17 16 15 14 15 14 15 15 15 15
31 30 30 30 29 29 30 30 30 29 29 27 26 24 23 22 21 22 23 23 23 25 25 23 21 21 20 20 19 18 18 16 15 13 11 12 12 12 11 11 11 10 10
28 28 27 26 25 24 25 25 25 27 26 24 23 23 21 20 20 19 18 19 20 21 22 19 17 16 14 13 13 12 12 11 10 10 10 10 9 8 9 10 9 8 7
28 27 26 25 24 22 21 22 25 24 23 22 21 19 19 18 17 17 15 15 16 17 16 14 13 12 11 10 10 9 10 9 9 9 9 8 8 8 7 8 8 7 7
27 26 25 24 23 22 21 20 17 19 19 18 17 16 16 16 15 14 14 14 13 13 12 12 10 9 9 8 8 8 7 8 9 8 7 7 7 7 6 6 6 6 5
31 31 30 29 27 24 22 21 19 17 14 14 15 15 15 15 15 15 14 12 10 9 9 9 8 8 7 6 7 7 8 8 7 7 6 6 5 5 5 4 4 3 4
29 28 28 27 26 25 24 22 20 18 16 14 14 15 16 14 14 13 13 11 9 8 7 7 8 8 8 8 6 6 4 4 3 2 4 3 3 5 3 3 4 3 3
25 23 22 21 20 19 18 18 16 14 12 10 10 11 13 13 11 11 10 9 8 8 8 7 7 8 7 6 3 1 2 2 3 3 2 3 3 3 2 3 3 4 4
19 18 18 17 17 17 16 16 15 13 10 8 8 8 10 11 10 9 9 7 7 7 6 7 6 5 5 4 4 3 2 -1 3 3 3 3 1 1 3 3 4 3 3
16 16 16 16 15 15 15 14 14 12 12 11 10 9 9 10 9 8 7 6 5 6 7 5 5 5 5 4 3 -2 1 0 2 3 2 0 0 0 2 2 1 3 3
15 15 14 14 14 14 14 13 13 12 11 11 10 9 9 8 7 7 7 3 5 4 4 4 0 2 4 -1 1 4 2 2 3 3 1 -0 -1 -1 -2 0 1 -0 0
15 15 13 14 13 12 11 9 9 8 10 10 9 8 7 6 5 5 3 1 2 1 0 -0 2 3 1 -1 1 1 3 5 3 0 -1 -2 -3 -1 -1 -2 -1 1 3
15 14 13 12 12 12 11 10 10 10 9 9 8 7 7 6 6 3 4 2 0 -4 -2 0 2 0 -0 -2 -1 3 5 0 -1 -2 -0 -0 -1 -2 -2 -0 1 3 -1
13 13 13 13 12 11 10 9 9 8 7 7 7 5 5 5 3 -0 2 1 -4 -4 -0 -1 0 -2 -1 2 2 5 -1 2 3 1 0 1 -0 -0 0 -1 -2 -0 1

GFSGL_sfc_dewp_105.txt.gz
Dewpoint
55 56 56 55 55 56 56 56 56 56 55 56 55 54 55 56 56 55 54 54 54 54 55 55 55 55 56 56 56 56 55 55 53 53 54 54 51 52 53 53 52 52 51
55 56 55 55 54 54 56 56 56 55 56 56 56 55 55 54 54 54 54 54 54 53 53 54 54 55 55 55 56 55 55 55 54 53 54 54 52 52 52 52 51 50 49
55 55 55 55 54 52 54 55 55 56 55 56 56 55 55 55 54 54 54 54 54 54 55 54 52 50 52 48 50 51 51 52 52 50 49 50 48 43 44 44 43 43 45
55 54 54 54 55 54 54 53 52 56 56 54 56 56 56 55 54 54 54 54 55 50 45 42 40 39 39 42 41 40 43 44 44 44 43 39 38 39 39 38 38 40 40
55 55 54 55 55 55 54 55 55 55 55 55 55 55 54 52 47 51 54 52 45 40 39 37 37 37 36 36 37 35 37 37 37 37 34 35 33 33 33 34 34 34 36
54 54 55 55 55 55 54 54 55 55 55 52 45 44 41 39 38 41 43 41 39 37 36 36 36 35 34 34 34 33 33 33 32 33 31 31 30 31 32 32 32 31 31
53 54 55 55 55 55 55 55 54 47 42 40 38 37 36 36 36 37 36 36 35 34 34 33 32 33 34 33 33 32 32 31 31 32 29 29 29 29 29 28 28 27 29
53 53 54 55 55 55 51 44 41 39 38 36 35 34 34 34 34 34 34 32 32 31 31 31 30 31 32 32 32 31 30 31 31 30 29 29 28 29 29 28 27 27 26
52 52 53 54 46 43 40 38 37 35 34 33 33 33 32 32 33 32 31 30 29 29 30 30 30 30 30 29 27 25 25 27 29 30 30 30 32 30 26 23 21 19 18
43 43 43 42 40 38 36 34 34 33 32 31 31 32 33 32 33 32 31 30 28 28 28 29 29 27 27 25 25 24 24 25 24 24 25 25 23 23 23 22 20 18 18
41 40 38 37 35 34 34 33 31 30 29 29 29 29 30 31 32 32 31 29 28 26 25 26 27 27 26 27 27 24 22 22 22 22 19 17 17 17 17 18 18 18 16
38 38 36 35 34 33 32 31 30 29 28 28 27 27 28 29 29 29 28 27 26 26 25 26 27 26 25 24 21 20 20 19 17 15 14 13 13 14 13 13 14 13 13
37 36 35 34 33 31 30 30 29 29 28 28 27 25 25 25 25 25 27 28 27 24 22 22 21 21 19 18 17 16 16 14 12 11 11 11 11 10 9 11 10 10 10
32 31 31 31 30 31 31 30 29 28 26 25 23 21 21 21 21 22 22 22 24 21 20 18 17 17 15 14 14 14 13 12 11 10 9 9 9 9 8 8 8 7 8
28 27 26 26 25 25 25 25 23 25 25 23 22 21 20 19 20 20 20 21 20 19 16 14 13 12 11 10 10 10 10 10 9 9 8 7 7 6 6 7 6 6 5
26 25 24 23 22 21 20 22 26 25 25 24 24 22 21 20 18 18 18 19 18 15 12 10 8 8 8 8 8 8 8 8 8 7 7 7 6 5 5 6 6 5 3
25 24 23 22 21 20 20 18 16 21 23 22 22 21 19 17 18 16 16 16 14 13 10 8 6 3 5 8 8 7 7 7 8 6 6 5 5 5 4 3 3 4 3
26 25 24 22 21 19 18 18 17 15 15 17 19 19 20 20 18 16 13 11 9 10 9 7 5 5 7 7 6 5 5 3 3 4 2 0 -2 3 1 1 2 2 2
28 27 27 26 25 23 21 18 17 16 16 16 17 16 15 14 14 14 13 9 7 7 7 7 7 6 5 5 -2 -3 -11 -6 -8 -9 -3 -2 -7 0 -0 1 2 2 2
25 25 23 22 20 19 17 15 13 12 11 10 10 12 12 11 8 6 7 4 5 6 6 5 5 4 1 1 -5 -8 -6 -10 -4 -2 -10 -14 -12 -2 -1 -0 1 1 -0
22 21 19 18 18 16 15 12 10 10 9 9 10 11 11 9 7 5 5 2 2 2 -2 2 1 -2 0 -3 0 -5 -7 -14 -6 -6 -7 -2 -9 -4 -1 -0 -1 -1 0
17 17 17 17 17 16 15 13 10 9 9 9 9 9 7 6 6 4 2 -4 -8 -3 -2 -4 -3 -1 2 -3 -5 -11 -10 -14 -13 -8 -4 -4 -3 -3 -4 -4 -3 -2 -2
15 15 14 14 14 13 12 11 10 9 9 8 7 6 5 2 -0 -0 -4 -9 -2 -5 -6 -6 -10 -3 -4 -9 -8 -6 -9 -3 -1 -4 -5 -5 -5 -5 -6 -4 -4 -5 -3
14 13 11 10 10 9 8 8 8 7 7 4 1 -0 0 -1 -8 -6 -12 -11 -8 -11 -12 -10 -1 -0 -4 -8 -10 -5 3 -0 -3 -5 -7 -3 -4 -4 -3 -4 -4 -3 -2
13 12 11 11 10 10 9 7 6 3 4 2 -1 -2 0 -2 -4 -11 -5 -9 -12 -15 -9 -2 -7 -6 -7 -6 -4 1 -3 -2 -2 1 -1 -2 -3 -4 -4 -3 -3 -2 -4
13 13 12 11 9 8 5 3 1 2 1 -2 -7 -10 -4 -8 -9 -8 -6 -12 -13 -12 -11 -11 -8 -7 -4 -3 -3 1 -0 -1 -6 -6 -5 -2 -2 -2 -2 -2 -3 -2 -2

GFSGL_sfc_dewp_108.txt.gz
Dewpoint
55 56 56 56 56 56 56 56 55 56 57 56 56 56 56 57 57 57 56 55 55 54 53 53 53 54 55 55 55 55 54 53 51 52 53 54 51 52 52 53 54 54 53
54 56 55 55 56 56 56 56 56 55 56 55 55 55 55 55 56 55 55 54 54 54 54 54 54 54 54 55 54 53 54 54 54 53 54 54 52 49 45 45 44 43 44
55 55 55 54 54 55 56 56 56 55 55 55 54 54 54 54 55 55 54 54 54 54 54 53 52 49 52 47 47 47 46 47 48 47 47 43 43 40 39 41 40 41 39
55 56 55 54 54 54 56 55 55 56 56 55 55 54 54 54 54 53 54 54 54 48 43 40 38 38 39 41 39 39 41 42 41 40 39 38 36 37 36 34 33 34 34
54 53 55 54 54 53 54 54 55 55 55 56 56 55 55 54 52 53 53 53 43 39 38 36 36 36 36 35 35 35 36 36 36 34 33 32 31 31 30 32 32 31 31
54 54 54 55 55 54 53 53 53 54 55 51 49 44 41 40 39 42 44 41 39 37 35 34 34 34 34 34 33 33 32 33 32 31 30 30 28 29 29 27 26 26 26
54 54 54 54 54 54 54 54 53 45 42 40 39 38 36 37 37 38 37 36 35 34 33 33 33 33 33 32 32 32 32 32 30 30 28 27 27 28 27 24 24 24 22
54 54 54 54 54 54 51 44 41 40 38 36 35 34 34 34 35 34 33 32 31 31 31 31 31 31 32 32 30 29 30 30 30 30 29 28 26 25 23 22 21 20 20
54 54 54 55 49 44 41 38 37 36 35 34 33 33 32 32 33 32 31 30 29 30 30 29 28 28 29 30 28 26 24 24 28 27 25 23 22 21 21 18 17 15 14
46 47 49 45 42 39 37 35 35 34 33 33 32 32 32 32 32 31 29 28 27 28 28 29 29 29 29 28 25 22 21 22 22 18 17 16 17 16 17 17 15 12 11
43 42 42 40 37 36 34 33 32 31 31 30 30 31 31 32 32 31 29 27 27 27 27 27 28 27 24 23 22 20 18 17 16 15 14 13 13 12 12 13 13 13 10
40 38 36 35 34 33 32 31 31 30 29 28 28 28 29 29 30 30 30 29 28 27 26 27 26 24 21 20 17 16 15 14 14 13 11 10 10 9 9 10 9 11 10
37 36 34 33 32 32 31 31 29 28 27 27 25 24 24 26 29 30 28 27 26 24 24 22 21 19 17 17 15 13 14 12 11 8 8 8 8 8 6 7 7 7 7
33 33 32 32 31 30 30 29 28 26 24 23 22 21 22 23 24 26 24 23 22 20 18 16 16 16 15 13 12 12 12 11 9 8 8 8 7 7 6 6 6 6 5
28 28 27 26 25 24 25 25 24 25 24 22 21 22 21 21 24 25 23 21 18 17 16 15 13 11 10 9 9 9 9 8 7 8 7 5 4 4 5 5 5 4 3
25 24 24 23 22 22 21 22 26 26 26 25 25 23 24 26 26 24 22 19 18 17 12 10 9 9 8 8 7 7 7 7 6 6 5 5 3 3 3 3 3 3 2
23 23 22 21 21 20 19 19 19 24 26 25 25 24 24 23 23 22 20 18 16 12 8 7 6 5 7 7 6 6 4 5 6 5 3 2 1 1 0 1 2 2 1
23 22 20 20 19 19 19 18 18 17 17 19 23 23 23 21 20 18 16 13 9 9 8 7 6 6 6 4 4 3 2 -0 -1 1 -2 -5 -7 -2 -2 -1 -0 -0 -0
22 22 21 20 19 19 19 19 18 17 16 15 15 17 18 18 16 15 13 9 8 7 7 6 5 4 3 1 -10 -12 -15 -12 -13 -16 -10 -7 -14 -5 -4 -2 -2 -2 -2
24 23 22 21 19 18 17 16 15 14 13 13 11 9 8 7 5 5 5 5 5 5 5 4 3 1 -4 -6 -14 -18 -12 -14 -10 -7 -15 -18 -15 -9 -4 -4 -4 -4 -3
22 22 20 18 16 15 14 13 13 12 11 11 10 10 8 6 4 4 3 0 -1 -1 -5 -1 -3 -4 -4 -9 -4 -12 -12 -21 -12 -8 -9 -8 -17 -10 -5 -5 -5 -5 -3
20 19 17 15 13 12 12 12 11 10 9 8 8 7 6 4 2 1 -1 -6 -12 -6 -5 -5 -3 -2 -5 -5 -7 -17 -15 -18 -15 -10 -12 -10 -8 -6 -6 -7 -7 -5 -5
17 16 14 14 13 12 12 11 9 8 7 7 6 4 3 1 -2 -2 -6 -14 -7 -12 -11 -10 -12 -7 -8 -12 -12 -9 -8 -7 -5 -9 -11 -11 -5 -5 -7 -7 -5 -6 -6
14 13 12 12 11 10 9 7 6 5 4 2 0 -0 -0 -4 -7 -9 -13 -17 -16 -18 -19 -14 -6 -7 -7 -13 -13 -10 -1 -4 -4 -9 -12 -10 -5 -5 -5 -5 -5 -6 -5
13 12 11 10 9 8 7 6 4 2 0 -1 -0 0 -1 -3 -4 -10 -15 -18 -16 -18 -13 -15 -15 -11 -11 -10 -8 -6 -4 -5 -9 -9 -10 -11 -9 -9 -7 -5 -5 -4 -4
12 11 10 9 8 6 4 3 1 -0 -2 -2 -3 -7 -9 -7 -8 -16 -17 -16 -16 -16 -15 -15 -12 -10 -9 -7 -5 1 -5 -9 -11 -10 -12 -7 -6 -7 -5 -4 -5 -3 -3

GFSGL_sfc_dewp_111.txt.gz
Dewpoint
56 57 56 56 56 56 56 57 57 58 58 58 57 57 57 57 57 57 57 56 55 55 55 55 54 55 55 55 55 55 54 54 51 51 52 52 50 49 47 46 46 45 45
56 56 56 56 56 56 55 55 57 56 57 57 57 57 57 56 56 56 55 56 55 55 55 54 54 53 54 54 54 54 53 53 53 52 53 46 41 42 42 40 40 37 38
55 55 56 56 56 56 56 55 55 56 56 56 56 56 56 56 56 56 56 55 55 55 54 53 49 48 49 47 47 47 46 47 46 46 44 41 39 36 37 36 37 35 35
54 54 55 55 56 56 56 55 55 55 55 55 55 55 56 56 56 55 55 54 52 45 42 40 38 39 40 41 40 40 41 41 40 39 37 35 34 34 34 30 30 30 31
54 54 53 55 55 55 55 55 55 55 55 55 54 54 54 54 53 54 53 51 42 39 37 36 36 36 36 36 35 35 36 36 34 33 32 31 29 29 27 28 26 27 29
54 55 53 55 53 54 54 54 55 55 55 54 51 48 46 44 40 44 46 43 39 36 35 34 34 34 33 33 33 32 32 32 30 29 28 27 26 27 27 25 23 21 21
53 54 55 54 53 53 53 53 53 48 45 42 41 40 38 39 39 39 38 37 35 34 33 33 33 33 32 31 32 31 32 31 29 29 24 24 22 22 22 20 20 19 17
54 54 54 54 53 53 51 46 42 41 39 37 36 36 35 35 36 35 34 33 32 32 32 32 32 31 31 30 28 28 28 28 27 26 24 22 22 20 19 18 18 17 16
55 55 54 54 51 46 42 40 38 37 36 34 34 33 33 33 34 33 32 30 29 28 29 29 29 30 31 30 26 25 25 23 21 22 21 20 18 17 16 14 11 10 8
54 54 53 48 45 41 38 37 36 35 33 33 32 32 32 31 33 32 30 28 27 27 28 29 29 28 27 26 24 22 19 17 17 15 14 13 12 12 14 13 11 9 8
43 46 45 44 42 38 36 35 34 33 32 31 31 31 31 31 31 31 30 27 27 26 26 25 26 25 24 22 21 19 17 15 13 11 9 10 10 10 10 10 11 11 8
38 38 37 37 36 35 34 33 32 31 30 29 29 29 29 30 31 31 30 29 29 26 24 24 24 23 20 18 16 16 14 13 12 10 9 7 8 8 7 7 7 8 8
35 34 33 33 33 33 32 31 30 29 28 28 27 26 27 28 29 29 29 28 26 24 24 24 22 20 18 18 17 15 12 11 10 8 7 7 6 6 3 5 5 4 4
33 31 31 30 29 29 29 30 29 27 26 25 24 24 24 24 24 24 24 24 24 21 20 18 17 17 14 13 12 11 10 10 8 7 6 5 5 6 5 4 4 4 4
26 26 25 24 24 24 24 24 24 25 24 23 24 24 23 22 23 23 22 20 20 19 17 15 13 11 10 9 8 7 7 7 6 6 5 4 2 3 2 3 3 3 2
24 23 23 23 24 23 23 23 27 26 27 27 28 26 26 27 26 25 24 22 20 18 13 11 10 9 8 6 6 6 6 6 5 4 3 2 -0 1 0 1 2 1 0
22 22 22 22 22 22 22 21 20 24 27 27 27 26 26 25 24 23 21 20 18 13 9 8 7 7 6 6 5 4 4 4 4 2 1 -1 -2 -2 -1 -1 -0 -0 -1
22 22 21 21 21 21 21 21 21 20 19 20 24 24 24 22 20 19 17 14 10 10 8 6 5 5 5 2 2 2 1 -1 -2 -0 -4 -8 -12 -4 -4 -3 -3 -4 -3
20 20 20 20 20 20 19 19 19 18 17 16 16 18 19 19 19 17 14 9 7 6 5 4 4 3 1 -0 -6 -8 -14 -12 -13 -16 -12 -10 -17 -7 -7 -5 -4 -5 -5
20 20 20 19 19 18 18 17 15 14 12 11 10 9 9 7 5 5 6 6 6 6 5 3 2 0 -2 -3 -12 -15 -14 -15 -13 -11 -17 -21 -19 -14 -8 -7 -7 -7 -6
19 19 18 17 16 16 15 13 13 12 11 9 8 9 8 5 3 3 2 0 2 1 -3 0 -1 -3 -3 -7 -3 -13 -14 -24 -15 -13 -11 -9 -18 -13 -7 -6 -7 -7 -5
19 17 16 15 14 14 13 13 11 10 9 7 6 5 4 2 1 1 -1 -5 -9 -4 -3 -3 -3 -3 -5 -4 -7 -19 -17 -19 -19 -13 -13 -12 -9 -7 -8 -8 -9 -8 -6
17 15 13 13 13 12 11 10 9 8 6 5 4 3 1 -1 -1 -2 -4 -10 -6 -11 -9 -10 -11 -8 -10 -15 -14 -10 -12 -10 -7 -10 -15 -15 -9 -8 -13 -10 -7 -7 -7
15 13 12 12 11 9 8 7 6 5 3 2 1 -0 -2 -6 -9 -10 -13 -16 -13 -14 -17 -15 -9 -9 -9 -16 -16 -13 -3 -8 -8 -11 -16 -17 -11 -8 -9 -8 -7 -8 -7
12 11 11 10 8 7 6 5 4 3 2 1 -0 -1 -4 -6 -7 -11 -18 -18 -17 -20 -16 -17 -17 -13 -14 -14 -13 -8 -10 -10 -14 -14 -16 -16 -15 -14 -12 -8 -8 -6 -7
11 10 8 7 6 5 3 2 1 1 -1 -1 -4 -8 -7 -5 -9 -17 -18 -17 -17 -17 -16 -17 -16 -15 -14 -11 -7 -5 -12 -14 -15 -14 -18 -12 -12 -11 -11 -9 -8 -7 -5

GFSGL_sfc_dewp_114.txt.gz
Dewpoint
55 56 57 57 57 57 57 57 58 59 59 59 59 59 59 58 57 57 56 56 55 56 56 55 55 55 55 55 55 55 54 54 52 52 53 47 43 43 41 42 40 40 40
54 56 57 57 56 56 56 57 57 57 58 58 58 58 58 58 58 57 56 56 56 55 55 55 55 55 54 55 54 54 54 54 53 51 47 42 37 40 38 38 36 34 39
55 55 56 56 56 56 56 56 57 56 57 57 57 57 57 57 57 57 57 56 56 55 55 55 54 54 53 51 50 50 48 47 46 47 39 38 36 35 35 34 33 32 34
55 55 55 56 56 56 56 55 56 56 56 56 56 56 56 56 56 57 56 55 52 47 44 43 43 45 45 44 42 42 42 40 40 39 35 34 33 32 31 28 28 29 31
54 54 54 56 56 56 55 55 55 55 55 55 55 56 56 56 56 56 54 47 41 38 37 37 37 38 37 37 37 37 37 36 35 33 31 29 28 27 25 26 23 25 28
53 53 53 55 55 55 55 55 55 55 55 55 53 51 49 47 43 45 46 42 39 36 34 34 34 34 33 33 33 32 33 33 30 29 27 23 23 23 23 21 19 19 18
54 54 53 54 54 55 55 55 54 49 48 45 43 44 42 42 40 40 39 39 36 35 33 33 32 32 31 31 30 29 29 28 27 26 23 22 19 19 19 17 16 14 12
54 54 54 54 53 53 53 46 43 42 41 39 37 37 36 37 37 37 35 35 34 33 33 32 31 30 30 29 27 25 24 24 24 23 21 20 19 15 15 14 13 12 12
53 53 54 54 52 48 44 41 39 38 36 35 35 34 33 34 34 34 32 31 30 30 31 31 30 29 30 29 25 22 21 21 22 20 19 17 16 15 14 12 10 9 7
54 53 53 51 48 44 41 39 37 35 34 33 32 33 33 32 33 32 31 30 28 27 28 28 28 28 27 25 23 21 18 17 14 13 10 10 10 9 13 10 9 8 6
46 47 47 47 43 40 38 36 35 33 32 31 30 31 31 31 31 31 31 28 26 25 24 23 25 25 24 23 22 19 18 16 15 13 10 9 8 7 6 7 8 9 7
39 38 38 38 38 36 35 34 33 32 30 29 29 29 30 31 31 30 29 28 26 23 22 23 23 23 22 21 19 19 18 16 14 10 7 6 6 5 4 4 5 5 4
35 34 34 34 34 33 32 31 30 30 29 28 28 27 28 29 29 29 27 26 25 22 23 23 22 21 20 19 17 16 14 12 11 8 6 4 4 4 1 3 3 2 3
30 30 30 31 30 30 31 30 29 29 28 26 24 23 23 24 25 25 25 24 24 21 19 17 17 17 14 14 13 13 11 10 8 6 5 3 2 3 2 2 3 4 4
26 26 26 25 25 25 25 25 25 26 26 24 24 23 22 20 22 23 21 19 18 18 17 15 14 12 10 9 9 8 8 6 5 4 2 1 -0 0 0 2 2 1 0
26 26 25 25 24 24 24 25 28 28 28 27 26 24 24 25 25 25 24 23 21 18 13 10 10 9 8 6 5 5 5 4 3 1 1 -0 -1 -0 -1 0 1 -0 -1
24 25 24 24 24 24 23 23 22 27 28 28 28 27 26 26 25 24 22 20 18 14 9 9 7 7 6 5 4 3 3 3 1 -0 -1 -2 -3 -2 -2 -2 -2 -2 -2
23 23 23 23 23 23 23 22 21 20 20 21 26 25 25 24 22 20 19 16 10 10 8 7 6 6 4 2 2 1 0 -1 -1 -1 -3 -4 -7 -3 -4 -4 -3 -4 -4
21 21 21 21 22 22 21 20 20 19 18 17 18 19 19 19 17 16 13 9 8 7 5 4 4 3 2 -0 -2 -3 -4 -4 -6 -7 -6 -6 -11 -7 -6 -5 -5 -6 -6
20 21 20 19 19 17 17 16 14 14 13 12 10 10 9 7 6 6 7 8 7 5 5 2 1 1 -0 -3 -6 -8 -6 -7 -6 -5 -9 -11 -11 -9 -7 -6 -6 -6 -6
19 19 18 18 17 16 15 14 13 11 10 8 8 8 7 5 4 4 3 4 3 3 2 1 1 -0 -1 -2 -2 -7 -6 -12 -8 -6 -7 -7 -13 -9 -6 -6 -6 -6 -5
17 17 17 15 15 14 13 12 10 8 7 6 5 5 5 4 2 1 -0 -2 -1 1 2 1 1 1 0 -1 -4 -11 -10 -12 -10 -8 -8 -10 -9 -7 -7 -7 -7 -7 -6
16 15 14 13 12 12 10 9 8 7 5 5 4 2 1 0 -0 -1 -3 -4 -2 -3 -1 -3 -3 -3 -5 -10 -8 -5 -6 -5 -5 -8 -11 -12 -9 -8 -9 -8 -8 -7 -6
15 14 12 11 10 9 8 7 6 4 2 1 0 0 -1 -2 -4 -6 -9 -9 -8 -8 -9 -9 -5 -4 -5 -12 -11 -9 -2 -6 -6 -8 -14 -13 -10 -8 -8 -8 -7 -7 -7
12 11 10 9 8 7 6 4 3 2 1 0 -2 -4 -4 -5 -6 -10 -11 -11 -10 -12 -11 -13 -13 -11 -12 -14 -11 -7 -11 -11 -13 -14 -11 -12 -12 -12 -11 -9 -8 -7 -6
9 8 7 7 5 4 2 0 -0 -1 -2 -3 -4 -6 -5 -6 -8 -14 -16 -14 -14 -15 -14 -16 -14 -15 -14 -10 -8 -6 -13 -14 -14 -15 -14 -9 -11 -11 -11 -10 -9 -7 -6

GFSGL_sfc_dewp_117.txt.gz
Dewpoint
57 58 58 57 58 58 58 58 58 59 59 59 60 60 59 58 57 56 55 55 53 54 54 54 55 56 55 55 55 55 54 54 52 53 53 46 43 41 41 40 40 39 38
57 57 57 57 57 57 57 58 59 59 60 59 59 59 59 59 58 56 55 55 54 54 54 55 55 55 55 55 55 54 55 55 53 52 47 40 39 38 37 35 34 37 36
56 56 56 57 57 57 57 57 58 58 58 58 58 58 58 59 58 57 56 55 55 54 54 54 54 55 54 54 55 54 54 51 51 50 39 38 34 35 33 33 32 34 31
56 55 56 56 57 57 57 57 58 57 57 57 57 57 58 58 58 57 57 56 56 55 55 54 54 54 54 52 49 48 45 44 43 40 36 33 33 32 30 27 27 29 29
55 55 56 56 57 57 56 56 57 57 56 56 56 56 56 56 57 56 54 47 44 41 40 39 39 40 38 39 42 41 41 39 37 34 31 29 27 25 24 23 23 24 26
55 55 56 56 56 56 56 56 56 56 56 55 54 53 51 49 42 43 45 43 40 37 35 34 34 34 33 33 31 31 33 34 31 28 25 23 23 23 21 19 18 18 18
54 55 54 56 56 56 56 55 55 52 49 47 45 45 42 42 40 40 39 38 36 34 33 32 32 31 30 28 28 28 27 26 26 25 23 20 17 18 18 16 15 13 12
54 54 54 55 55 55 55 49 46 45 44 42 39 38 37 37 38 37 36 34 33 33 32 31 31 29 29 27 25 24 23 23 22 21 20 19 16 14 14 14 14 15 13
54 53 53 54 54 52 47 43 41 39 38 36 36 35 34 34 35 35 33 32 31 30 30 30 29 28 28 27 23 22 21 21 22 21 20 19 19 18 16 16 13 12 11
54 53 54 54 51 47 43 40 38 36 34 33 33 33 33 33 34 34 32 31 29 28 28 29 28 27 25 24 22 20 18 15 13 13 15 15 14 15 16 13 12 11 7
46 52 52 50 47 43 39 37 35 33 33 32 31 31 32 32 33 32 31 28 26 25 24 25 26 25 24 22 21 19 17 17 16 14 12 12 10 7 7 8 9 10 7
38 41 40 40 40 38 36 35 34 33 31 30 30 29 30 31 30 29 28 27 26 23 22 23 24 23 22 21 20 20 19 16 15 13 11 10 9 5 4 4 4 4 4
34 34 35 35 35 35 34 33 32 31 30 29 28 27 27 28 28 28 27 26 24 22 22 23 22 21 20 19 18 17 16 15 13 12 8 5 3 3 2 4 4 3 5
30 31 32 32 32 32 32 32 31 30 29 28 26 25 25 24 24 25 24 24 24 22 20 17 16 17 15 15 15 14 12 11 10 9 6 3 3 5 5 4 6 5 8
28 29 29 29 28 27 28 28 28 29 29 25 25 24 23 22 22 22 20 18 18 18 16 16 15 14 12 11 10 7 7 6 7 7 6 5 3 3 4 5 5 4 6
26 26 26 27 28 27 26 27 29 28 28 27 26 24 24 24 25 24 24 22 21 20 16 14 13 12 11 9 8 7 6 5 5 5 6 5 5 5 5 6 5 6 6
26 26 26 27 26 25 25 24 23 27 28 28 28 27 26 26 26 25 24 22 17 14 13 11 11 11 10 7 7 6 5 5 4 4 4 4 5 5 6 5 6 6 5
25 25 25 25 25 25 24 24 24 22 22 23 26 26 26 26 25 22 19 15 11 10 8 9 9 9 7 4 4 3 3 5 5 4 5 4 4 5 6 5 5 5 4
22 22 23 23 23 23 22 22 21 21 20 20 21 23 23 21 19 16 13 12 9 7 6 6 8 7 6 4 6 6 6 6 5 5 4 3 4 3 4 4 4 2 2
21 21 20 19 19 18 18 17 17 16 15 15 15 14 13 12 12 12 13 13 10 7 6 5 4 5 6 5 6 6 6 6 5 4 4 5 5 5 5 4 4 4 3
20 20 20 20 19 19 18 17 16 14 13 12 11 11 9 10 10 9 9 9 8 7 7 6 6 6 5 6 4 6 4 6 4 4 4 3 3 4 4 5 4 4 2
19 19 19 18 17 16 15 14 13 12 10 9 8 7 7 9 7 7 7 7 8 7 7 6 5 5 5 5 5 6 4 4 5 5 4 1 2 4 4 4 4 4 4
18 17 16 16 15 14 13 11 11 10 8 8 6 5 6 6 6 5 6 7 6 6 6 6 6 4 5 5 6 6 6 5 5 4 2 2 2 3 4 4 3 3 3
17 16 14 14 14 12 11 10 8 6 6 6 6 5 4 4 4 3 4 5 4 5 5 5 4 3 2 4 6 6 5 5 4 2 -4 -0 1 1 2 1 2 2 2
15 14 13 12 11 9 9 7 7 6 6 5 5 4 2 2 2 3 3 3 2 3 1 2 3 1 -0 -3 -1 -2 -2 -4 -3 -4 -1 -1 -1 -2 -1 -0 0 2 2
13 12 12 11 10 9 7 6 6 5 4 4 4 4 3 2 1 1 1 0 -0 -0 -0 1 -0 -5 -8 -3 -6 -6 -5 -5 -4 -6 -3 -1 -1 -0 0 -0 -1 1 2

GFSGL_sfc_dewp_120.txt.gz
Dewpoint
57 58 60 59 59 60 59 59 59 60 60 60 60 60 59 58 58 56 56 56 55 56 57 57 57 57 57 58 58 56 55 55 52 54 49 45 42 41 39 41 39 36 34
57 58 59 59 58 58 58 58 58 57 59 59 59 60 60 57 57 57 55 56 57 55 55 55 55 56 56 56 56 56 55 55 53 52 46 39 38 38 36 35 38 36 33
57 58 58 59 57 57 56 58 58 58 58 59 59 59 59 59 58 57 56 55 55 54 54 54 55 54 54 55 54 54 54 54 54 53 40 37 35 36 34 33 33 33 30
57 57 58 57 56 56 57 58 58 58 58 58 59 59 58 58 59 58 57 56 55 54 54 54 54 54 54 55 54 54 53 50 46 40 35 33 32 31 29 28 27 30 28
56 57 57 56 57 57 58 57 58 58 58 57 58 58 57 57 57 57 57 56 54 49 44 42 41 43 42 44 48 45 45 41 37 34 31 29 27 25 24 22 21 25 24
56 56 56 56 56 57 57 57 57 57 57 57 57 54 51 46 41 43 46 44 40 38 35 35 35 35 33 33 33 33 36 36 33 29 27 24 23 23 22 21 21 21 21
53 56 55 55 55 57 56 56 56 55 52 48 46 45 42 41 39 39 39 38 37 35 34 33 31 31 30 28 28 28 27 28 28 27 23 21 20 20 19 18 18 16 15
49 56 55 55 55 55 56 55 51 49 46 42 40 40 38 37 36 36 35 34 33 33 32 31 30 29 28 27 24 23 22 22 22 21 19 19 18 16 16 16 17 16 14
48 55 55 55 54 55 52 49 45 42 40 39 38 37 36 35 35 34 33 32 31 30 30 30 29 28 28 28 24 22 21 21 22 21 21 21 20 19 18 18 16 19 16
41 50 55 54 55 51 46 42 41 38 36 35 35 35 35 34 34 34 32 31 29 28 28 28 27 26 25 23 21 19 18 17 15 14 14 15 13 13 14 13 14 15 11
39 41 53 53 50 45 41 39 37 35 34 33 33 33 33 33 34 33 32 29 28 26 26 25 26 24 23 21 20 18 17 17 17 15 13 12 11 10 9 8 9 13 12
37 37 45 46 42 40 38 36 35 33 32 31 30 30 31 31 31 31 30 29 28 26 24 25 24 22 22 21 20 20 19 19 19 17 16 12 8 7 6 6 6 7 6
34 35 34 38 38 37 36 34 33 33 31 30 29 27 27 28 28 28 27 26 25 23 23 23 22 22 22 21 20 20 19 19 19 17 11 7 5 5 5 7 8 6 8
32 32 33 32 32 33 33 34 33 32 31 29 28 26 26 26 26 26 25 25 24 23 21 19 19 19 18 18 19 19 19 18 15 13 10 6 6 8 8 7 9 9 14
30 31 31 32 30 29 31 30 30 30 29 27 26 25 23 23 24 24 22 19 18 17 17 19 19 17 15 14 13 12 12 12 12 12 10 8 6 7 8 10 10 10 12
28 28 29 30 29 28 27 27 30 29 29 28 28 25 24 25 25 24 23 22 22 22 21 21 18 17 15 12 12 10 10 9 9 10 11 10 11 11 12 12 12 13 12
27 28 28 27 27 27 26 25 24 27 28 27 27 27 26 26 26 25 24 24 23 20 18 17 17 16 14 11 10 9 9 10 10 11 12 12 12 11 13 12 12 12 11
26 26 26 26 26 25 25 24 24 22 22 24 27 26 26 26 24 24 22 18 15 14 14 15 15 14 11 7 7 8 9 11 11 11 12 12 13 13 13 11 12 11 10
23 24 24 24 24 24 24 24 23 22 22 22 22 23 24 23 20 16 14 15 13 12 10 11 13 11 10 9 14 15 15 14 13 13 12 11 14 13 12 11 12 9 8
22 22 21 21 21 20 20 20 20 21 21 21 19 18 19 17 18 18 18 18 16 12 12 10 10 11 13 14 15 14 14 14 13 12 14 14 14 14 12 11 12 11 9
23 23 22 21 20 19 19 18 19 19 18 17 17 17 15 16 16 16 15 16 15 13 14 12 13 13 13 13 12 13 12 13 11 11 12 12 12 12 11 12 12 10 9
23 22 22 21 21 20 19 19 18 16 15 12 12 13 13 15 13 13 13 15 16 14 13 13 12 12 11 11 12 13 12 12 12 11 11 9 10 12 11 11 11 11 11
22 21 20 19 19 19 19 17 17 15 13 12 12 12 13 13 13 12 12 13 12 13 13 13 12 11 11 12 12 12 11 10 10 9 9 9 9 10 11 11 10 10 10
22 22 19 20 19 18 17 15 13 11 12 12 13 12 12 12 12 11 11 12 12 12 11 11 9 8 8 10 11 10 8 10 9 8 -1 6 7 7 8 7 8 8 9
22 21 20 19 17 15 13 12 12 12 12 11 11 10 10 10 9 10 10 9 9 9 8 8 8 5 4 3 5 5 3 -0 1 -0 5 4 5 4 5 6 6 7 8
20 19 18 17 15 14 14 13 13 12 11 11 11 11 10 9 9 9 8 7 6 6 6 6 5 3 1 4 2 1 -5 -6 -1 -5 -0 4 5 6 6 6 4 6 7

GFSGL_sfc_dewp_123.txt.gz
Dewpoint
57 58 59 60 61 61 60 61 61 62 61 61 59 58 56 55 55 56 56 57 57 57 57 57 57 57 57 58 59 59 58 56 53 53 48 44 43 42 41 39 37 35 35
57 57 58 59 61 59 59 59 61 60 61 61 60 59 57 56 55 55 55 56 56 56 57 57 57 56 58 59 58 57 56 56 55 52 43 40 38 38 38 38 36 33 32
54 57 58 58 60 59 59 59 59 59 59 59 60 60 59 58 56 56 55 55 55 55 55 56 56 57 58 57 56 56 57 54 54 50 41 37 36 35 33 34 34 32 29
51 57 57 58 59 59 59 58 59 59 58 58 58 59 60 59 58 57 57 57 56 55 55 55 55 56 56 56 54 54 53 53 51 42 36 33 32 31 32 30 29 30 27
48 51 57 58 59 57 58 58 58 58 57 58 58 59 59 59 59 58 57 57 56 55 53 51 52 51 45 46 52 53 52 45 42 38 33 31 28 28 27 26 26 27 24
48 49 55 58 57 57 58 58 58 58 57 57 57 55 52 48 41 44 52 53 50 42 38 37 39 38 36 35 34 33 39 42 37 34 30 27 25 24 24 24 25 27 24
47 48 50 57 57 57 57 57 57 57 55 51 48 47 44 42 39 40 39 39 37 36 35 34 33 34 33 31 30 29 29 30 31 31 27 24 23 23 23 23 23 22 18
44 45 48 56 57 56 57 56 55 52 47 43 41 41 39 37 37 36 35 35 33 33 33 33 32 31 31 28 26 23 23 23 23 22 22 22 21 20 21 21 23 22 19
41 42 43 55 56 55 55 51 47 44 42 40 39 37 37 36 35 35 34 32 31 30 31 31 31 29 30 30 24 22 21 22 24 25 25 24 22 21 21 23 24 24 15
36 38 40 43 55 54 49 45 43 40 38 37 36 36 35 35 35 34 33 31 29 27 28 28 29 28 28 26 22 20 19 19 19 17 16 17 17 16 18 18 19 17 17
36 38 39 42 53 48 44 41 38 36 35 34 33 34 34 34 34 34 32 30 28 26 25 25 25 24 23 22 20 17 16 17 17 15 13 13 12 10 10 10 12 16 14
35 36 36 43 46 43 40 37 36 35 33 32 31 30 31 32 32 32 31 30 29 26 25 24 23 23 22 21 20 20 19 19 19 18 14 12 12 9 8 8 8 8 7
34 34 34 35 40 40 37 35 34 34 32 31 29 28 28 29 30 30 29 28 26 24 24 23 23 23 22 21 21 21 20 21 21 19 15 9 8 8 8 10 9 10 10
32 33 33 33 32 34 35 35 34 32 31 29 28 26 26 25 26 26 26 25 25 23 22 20 20 20 20 22 22 23 23 20 17 15 11 9 9 11 10 10 11 12 15
30 31 32 31 30 29 29 30 31 32 31 28 27 26 24 23 25 26 24 21 19 19 19 19 19 18 19 19 17 15 14 14 15 14 13 10 9 10 10 13 12 12 13
29 29 30 30 29 28 27 27 30 28 28 28 27 25 25 26 25 24 23 23 23 24 21 21 21 21 19 14 15 14 13 13 13 13 15 14 13 14 14 14 15 15 14
27 28 28 28 27 26 25 23 22 26 28 28 27 26 25 25 25 26 26 26 26 25 22 22 22 21 18 14 13 13 14 14 14 14 15 16 15 15 15 14 15 14 13
26 26 27 27 26 26 25 24 23 22 21 23 26 26 26 26 26 26 25 24 22 22 21 20 18 17 13 10 10 10 12 14 15 14 15 16 17 16 15 14 14 14 12
23 23 25 25 26 25 24 23 23 22 21 21 22 23 24 25 26 26 24 22 19 16 14 14 16 15 14 13 18 18 18 17 17 17 15 15 17 15 14 13 14 13 12
23 23 22 22 23 24 23 21 21 20 19 18 18 19 22 23 22 23 22 21 20 17 17 14 13 15 17 17 17 16 15 16 16 15 16 16 16 15 14 13 14 13 11
24 23 22 21 21 21 21 21 21 20 21 21 23 24 21 21 20 20 19 19 19 17 18 15 17 17 17 16 15 16 15 16 14 14 14 13 14 14 12 13 13 12 11
25 24 23 22 22 20 19 20 18 18 18 18 19 19 18 20 19 18 18 18 20 18 17 16 15 14 14 15 15 16 15 14 13 13 12 11 12 13 12 12 13 12 12
24 23 22 21 21 21 20 18 18 18 17 16 15 16 17 18 18 16 17 18 17 17 17 16 16 14 15 16 16 14 13 12 12 11 11 11 11 12 12 12 11 10 11
24 22 21 22 21 20 19 18 18 15 16 17 17 17 16 16 16 16 16 16 15 15 14 14 13 12 12 13 13 13 11 12 10 10 7 8 9 9 9 8 9 9 9
24 24 23 21 19 19 19 18 17 16 15 16 15 15 13 14 13 13 13 13 12 12 11 11 9 8 8 9 9 7 4 1 4 1 8 6 6 6 7 7 8 8 8
23 22 20 19 19 18 17 16 15 15 14 14 14 14 13 12 12 12 11 10 9 9 9 9 8 6 6 6 5 2 -0 -1 2 -2 1 5 7 7 8 7 6 7 7